Date StartTime U_cm/s V_cm/s W_cm/s Ustd_cm/s Vstd_cm/s Wstd_cm/s Uvar_(cm/s)^2 Vvar_(cm/s)^2 Wvar_(cm/s)^2 KE_(m/s)^2 TurbulentKE_(m/s)^2 HorizWindSpeed_cm/s FrictionSpeec_cm/s DragCoef SpeedOfSound_m/s SonicTemperature_C Pressure_mb 
01/31/2014  00:00:00     -121.678       37.444      -26.655       97.264       71.691       38.672     9460.330     5139.532     1495.542        1.650        0.805      127.309       40.566        0.102      333.339        2.588      854.460
01/31/2014  00:01:00     -110.302       54.951      -10.354       57.074       53.899       38.952     3257.468     2905.075     1517.263        1.149        0.384      123.232       26.569        0.046      333.282        2.494      854.468
01/31/2014  00:02:00     -119.955       68.694      -14.027       81.354       91.518       48.713     6618.480     8375.486     2372.915        1.833        0.868      138.232       34.342        0.062      333.268        2.471      854.467
01/31/2014  00:03:00     -137.905      -39.195      -35.859       47.995       51.748       35.520     2303.481     2677.845     1261.666        1.404        0.312      143.367       25.054        0.031      333.321        2.558      854.462
01/31/2014  00:04:00     -128.995      120.739      -36.217       77.633       96.615       42.585     6026.958     9334.426     1813.442        2.485        0.859      176.685       32.932        0.035      333.243        2.427      854.465
01/31/2014  00:05:00     -124.104      118.091      -22.985       55.664      113.196       38.592     3098.517    12813.265     1489.307        2.364        0.870      171.310       23.744        0.019      333.260        2.457      854.462
01/31/2014  00:06:00      -64.991       20.318      -16.303       52.457       48.230       30.077     2751.696     2326.117      904.652        0.544        0.299       68.093       27.385        0.162      333.331        2.576      854.457
01/31/2014  00:07:00      -71.807       70.945      -12.993       46.896       39.678       29.140     2199.248     1574.377      849.134        0.749        0.231      100.943       27.165        0.072      333.311        2.542      854.459
01/31/2014  00:08:00      -57.367       57.817        2.493       35.013       70.716       27.315     1225.912     5000.777      746.087        0.681        0.349       81.448       26.674        0.107      333.326        2.567      854.466
01/31/2014  00:09:00      -63.371       34.904       -3.809       44.312       52.978       36.871     1963.543     2806.720     1359.475        0.569        0.306       72.347       38.283        0.280      333.278        2.488      854.484
01/31/2014  00:10:00     -124.231      122.215      -20.885       80.037       99.018       41.667     6405.953     9804.470     1736.164        2.437        0.897      174.270       32.324        0.034      333.241        2.425      854.497
01/31/2014  00:11:00     -147.863       51.900      -26.621       63.940       46.383       36.916     4088.261     2151.406     1362.812        1.643        0.380      156.707       30.260        0.037      333.199        2.356      854.507
01/31/2014  00:12:00     -167.283      117.118      -20.058      101.221      118.460       45.133    10245.654    14032.875     2036.967        3.420        1.316      204.206       47.079        0.053      333.180        2.323      854.516
01/31/2014  00:13:00      -62.076       57.581        7.099       47.874       79.247       33.118     2291.901     6280.043     1096.774        0.844        0.483       84.670       31.448        0.138      333.245        2.432      854.516
01/31/2014  00:14:00     -174.569       38.857      -22.078       70.622       61.874       37.145     4987.424     3828.346     1379.751        2.133        0.510      178.842       30.874        0.030      333.193        2.344      854.525
01/31/2014  00:15:00     -161.934       58.212      -32.614       89.551       78.016       41.921     8019.470     6086.530     1757.330        2.327        0.793      172.079       36.697        0.045      333.181        2.324      854.534
01/31/2014  00:16:00     -163.227       13.845      -26.269       94.368       64.692       49.952     8905.261     4185.084     2495.213        2.155        0.779      163.814       46.903        0.082      333.182        2.326      854.539
01/31/2014  00:17:00     -142.746       23.107      -21.556       83.726       71.753       49.766     7010.036     5148.442     2476.698        1.800        0.732      144.604       39.673        0.075      333.184        2.331      854.528
01/31/2014  00:18:00      -84.011       59.589      -10.109       86.865      101.191       51.273     7545.524    10239.683     2628.933        1.556        1.021      102.998       38.996        0.143      333.219        2.388      854.508
01/31/2014  00:19:00     -108.041       25.347      -32.817       66.816       49.461       28.685     4464.364     2446.413      822.833        1.056        0.387      110.975       24.400        0.048      333.216        2.384      854.506
01/31/2014  00:20:00     -170.985       39.354       -5.037      115.917       65.229       46.440    13436.807     4254.849     2156.711        2.533        0.992      175.455       47.289        0.073      333.127        2.237      854.494
01/31/2014  00:21:00      -51.669      103.069      -15.281       48.861       98.129       34.054     2387.413     9629.353     1159.705        1.335        0.659      115.295       34.149        0.088      333.170        2.310      854.485
01/31/2014  00:22:00      -50.744       54.181      -12.367       37.358       56.227       29.276     1395.596     3161.482      857.080        0.554        0.271       74.233       16.241        0.048      333.218        2.389      854.469
01/31/2014  00:23:00      -78.808       60.550       -2.205       43.782       61.292       29.947     1916.849     3756.715      896.831        0.823        0.329       99.383       25.700        0.067      333.144        2.266      854.462
01/31/2014  00:24:00      -35.255       74.074       -3.560       29.839       52.840       27.832      890.370     2792.069      774.637        0.560        0.223       82.035       32.996        0.162      333.283        2.497      854.448
01/31/2014  00:25:00      -72.437       26.160      -16.849       33.420       46.643       26.509     1116.892     2175.613      702.726        0.510        0.200       77.016       23.508        0.093      333.247        2.436      854.441
01/31/2014  00:26:00      -87.597       90.842      -29.305       66.680       54.709       33.482     4446.269     2993.089     1121.030        1.267        0.428      126.196       32.198        0.065      333.222        2.395      854.441
01/31/2014  00:27:00     -119.158      125.304      -22.096       84.760       71.028       35.082     7184.312     5045.018     1230.726        2.192        0.673      172.915       36.222        0.044      333.187        2.335      854.425
01/31/2014  00:28:00      -74.623      117.797      -11.040       59.624       73.249       39.487     3555.029     5365.399     1559.211        1.502        0.524      139.444       40.243        0.083      333.237        2.417      854.412
01/31/2014  00:29:00      -72.158      125.122      -17.006       48.357       51.884       35.021     2338.392     2691.945     1226.477        1.370        0.313      144.438       29.677        0.042      333.221        2.392      854.397
01/31/2014  00:30:00      -70.168       87.448      -20.102       50.071       48.150       28.044     2507.120     2318.469      786.452        0.929        0.281      112.119       33.141        0.087      333.216        2.384      854.386
01/31/2014  00:31:00     -102.503      107.250      -19.791       66.867       51.809       35.781     4471.207     2684.180     1280.260        1.542        0.422      148.356       30.041        0.041      333.208        2.371      854.383
01/31/2014  00:32:00      -67.162      154.984      -26.101       60.786       54.893       35.815     3694.956     3013.291     1282.746        1.860        0.400      168.911       34.061        0.041      333.255        2.448      854.374
01/31/2014  00:33:00     -127.616       94.154      -26.262       65.531       46.299       27.471     4294.338     2143.613      754.673        1.652        0.360      158.591       29.304        0.034      333.264        2.464      854.370
01/31/2014  00:34:00      -67.094       50.307      -16.876       53.241       39.466       21.278     2834.562     1557.586      452.742        0.608        0.242       83.860       23.624        0.079      333.209        2.373      854.370
01/31/2014  00:35:00      -45.801       53.504       -3.519       33.642       53.007       24.899     1131.786     2809.775      619.943        0.477        0.228       70.430       19.929        0.080      333.327        2.570      854.369
01/31/2014  00:36:00      -87.764       24.730        2.216       54.328       77.615       33.333     2951.566     6024.117     1111.094        0.920        0.504       91.182       32.090        0.124      333.279        2.490      854.381
01/31/2014  00:37:00      -71.916       35.483       -5.557       76.559       33.045       27.129     5861.209     1091.948      735.975        0.707        0.384       80.194       32.083        0.160      333.245        2.433      854.400
01/31/2014  00:38:00      -71.409       74.759      -12.281       37.454       33.696       25.384     1402.795     1135.440      644.335        0.701        0.159      103.383       24.019        0.054      333.200        2.358      854.414
01/31/2014  00:39:00      -94.362      129.980      -23.312       40.369       59.685       30.110     1629.649     3562.357      906.641        1.622        0.305      160.621       24.594        0.023      333.185        2.332      854.424
01/31/2014  00:40:00      -76.863       74.681      -13.965       42.018       38.992       23.960     1765.497     1520.346      574.061        0.777        0.193      107.169       18.322        0.029      333.262        2.461      854.420
01/31/2014  00:41:00      -84.225       83.261      -25.643       51.175       59.230       24.338     2618.880     3508.187      592.355        1.070        0.336      118.433       29.572        0.062      333.203        2.362      854.421
01/31/2014  00:42:00      -25.316       48.699       -3.666       19.098       29.557       20.900      364.744      873.608      436.815        0.235        0.084       54.886        9.165        0.028      333.308        2.539      854.428
01/31/2014  00:43:00      -35.797       58.523       -3.209       39.168       33.265       20.898     1534.129     1106.528      436.733        0.390        0.154       68.603       15.726        0.053      333.363        2.627      854.440
01/31/2014  00:44:00       -1.331       35.290       11.151       32.619       21.736       18.027     1063.975      472.464      324.961        0.162        0.093       35.315       13.428        0.145      333.345        2.598      854.454
01/31/2014  00:45:00      -62.655       42.890       -8.447       33.720       23.408       22.311     1137.019      547.943      497.788        0.401        0.109       75.929       17.567        0.054      333.288        2.505      854.465
01/31/2014  00:46:00      -33.127       43.806       -7.640       18.613       24.985       19.046      346.455      624.227      362.737        0.220        0.067       54.922       14.895        0.074      333.388        2.670      854.479
01/31/2014  00:47:00      -54.158       30.534      -17.949       26.550       34.177       21.625      704.881     1168.094      467.645        0.326        0.117       62.173       17.330        0.078      333.306        2.535      854.488
01/31/2014  00:48:00      -65.318       -4.306       -8.956       28.279       40.543       21.037      799.710     1643.706      442.537        0.363        0.144       65.460       12.567        0.037      333.323        2.561      854.511
01/31/2014  00:49:00     -115.953      -27.566        0.698       57.335       33.028       25.653     3287.277     1090.877      658.062        0.962        0.252      119.184       23.263        0.038      333.331        2.573      854.526
01/31/2014  00:50:00     -136.204      -63.046       -5.261       50.033       44.535       27.796     2503.292     1983.393      772.612        1.391        0.263      150.088       29.160        0.038      333.246        2.434      854.545
01/31/2014  00:51:00      -56.094      -68.089        3.475       60.632       43.606       34.647     3676.260     1901.497     1200.442        0.729        0.339       88.219       35.158        0.159      333.266        2.467      854.558
01/31/2014  00:52:00      -86.502       -4.663       -0.283       26.533       25.426       14.441      704.023      646.464      208.530        0.453        0.078       86.627        8.890        0.011      333.243        2.431      854.567
01/31/2014  00:53:00      -61.093      -36.092       -0.927       40.939       17.145       21.241     1676.028      293.944      451.182        0.373        0.121       70.958       19.645        0.077      333.201        2.360      854.583
01/31/2014  00:54:00      -89.907      -42.231       -2.292       43.324       29.752       24.002     1876.977      885.186      576.116        0.660        0.167       99.331       25.042        0.064      333.235        2.416      854.589
01/31/2014  00:55:00        7.993      -25.873       25.667       20.072       44.349       20.589      402.901     1966.806      423.925        0.209        0.140       27.079       11.749        0.188      333.314        2.548      854.595
01/31/2014  00:56:00        6.717       81.526       -1.442       29.007       39.190       25.552      841.416     1535.878      652.899        0.486        0.152       81.802       20.230        0.061      333.285        2.499      854.600
01/31/2014  00:57:00      -28.407       25.888        7.613       44.246       31.213       22.894     1957.739      974.244      524.133        0.250        0.173       38.433       18.275        0.226      333.335        2.581      854.588
01/31/2014  00:58:00      -84.755      -11.164       -7.895       39.070       47.833       25.906     1526.439     2287.953      671.108        0.593        0.224       85.487       21.344        0.062      333.312        2.544      854.577
01/31/2014  00:59:00     -107.433      -37.870        2.080       50.092       43.886       26.522     2509.202     1925.970      703.407        0.906        0.257      113.912       26.071        0.052      333.287        2.503      854.572
01/31/2014  01:00:00      -49.239      -16.007        5.348       39.601       30.413       26.279     1568.221      924.953      690.611        0.295        0.159       51.776       24.029        0.215      333.351        2.608      854.569
01/31/2014  01:01:00      -10.168       -1.904       15.072       25.191       22.468       12.607      634.565      504.805      158.933        0.082        0.065       10.345        7.964        0.593      333.382        2.661      854.558
01/31/2014  01:02:00      -18.564       40.894        1.078       19.180       17.985       15.556      367.885      323.454      241.985        0.148        0.047       44.910       13.789        0.094      333.312        2.543      854.541
01/31/2014  01:03:00      -23.192       29.851       10.196       19.713       23.838       16.165      388.619      568.251      261.310        0.138        0.061       37.802       13.409        0.126      333.379        2.655      854.530
01/31/2014  01:04:00        1.791       28.246       12.514       28.854       29.639       18.129      832.542      878.464      328.669        0.150        0.102       28.303       13.632        0.232      333.314        2.547      854.525
01/31/2014  01:05:00      -18.519       93.765      -18.012       48.549       20.208       16.327     2357.022      408.367      266.585        0.625        0.152       95.576       10.600        0.012      333.253        2.447      854.522
01/31/2014  01:06:00       93.851       74.582       29.628       41.426       36.682       31.038     1716.093     1345.564      963.371        0.964        0.201      119.877       16.196        0.018      333.223        2.396      854.507
01/31/2014  01:07:00        8.610       28.766       32.682       26.917       18.090       14.599      724.522      327.255      213.134        0.162        0.063       30.027        8.482        0.080      333.281        2.492      854.498
01/31/2014  01:08:00       26.753       23.595       15.900       23.387       20.331       24.466      546.941      413.368      598.565        0.154        0.078       35.671       16.528        0.215      333.208        2.370      854.495
01/31/2014  01:09:00       80.578       49.192        8.496       54.545       29.556       30.806     2975.166      873.552      949.021        0.689        0.240       94.407       18.425        0.038      333.138        2.257      854.501
01/31/2014  01:10:00       33.304      120.017      -13.687       43.904       81.216       28.468     1927.574     6596.079      810.439        1.252        0.467      124.552       38.716        0.097      333.141        2.261      854.508
01/31/2014  01:11:00       53.937       90.664       -8.352       33.285       56.136       26.958     1107.890     3151.212      726.730        0.809        0.249      105.494       23.018        0.048      333.110        2.210      854.507
01/31/2014  01:12:00       47.954       71.523       -6.013       26.160       26.967       21.351      684.326      727.201      455.847        0.466        0.093       86.111       18.057        0.044      333.110        2.210      854.511
01/31/2014  01:13:00        5.647       51.366        2.402       30.318       43.263       19.717      919.175     1871.699      388.744        0.293        0.159       51.676       23.413        0.205      333.163        2.298      854.497
01/31/2014  01:14:00        6.799      101.655       -7.601       45.297       47.109       21.056     2051.860     2219.250      443.353        0.758        0.236      101.882       16.301        0.026      333.203        2.362      854.507
01/31/2014  01:15:00       18.617       86.846       -6.836       35.776       34.838       24.227     1279.919     1213.707      586.939        0.551        0.154       88.819       19.107        0.046      333.129        2.240      854.520
01/31/2014  01:16:00       20.419       26.161       -2.860       27.483       18.991       21.337      755.316      360.660      455.279        0.134        0.079       33.187        5.632        0.029      333.125        2.236      854.527
01/31/2014  01:17:00      -64.407       69.354      -20.059       58.945       38.328       15.891     3474.457     1469.020      252.516        0.728        0.260       94.647        8.006        0.007      333.216        2.384      854.533
01/31/2014  01:18:00     -107.926       46.292      -12.776       43.601       28.531       19.594     1901.075      814.041      383.933        0.853        0.155      117.435       22.466        0.037      333.126        2.235      854.531
01/31/2014  01:19:00     -213.488       21.016      -11.911       57.506       39.246       25.579     3306.989     1540.248      654.281        2.583        0.275      214.520       30.085        0.020      333.153        2.277      854.531
01/31/2014  01:20:00     -179.625      -53.323      -14.541       62.227       66.062       33.337     3872.201     4364.123     1111.355        2.233        0.467      187.372       32.089        0.029      333.161        2.292      854.528
01/31/2014  01:21:00     -128.263      -66.129       -4.822       66.116       46.571       34.985     4371.319     2168.885     1223.917        1.430        0.388      144.307       34.554        0.057      333.186        2.335      854.528
01/31/2014  01:22:00      -90.343      -58.542        0.808       60.163       39.462       32.726     3619.612     1557.231     1071.022        0.892        0.312      107.653       25.014        0.054      333.201        2.360      854.528
01/31/2014  01:23:00      -95.320      -53.689        5.118       44.546       37.617       27.741     1984.317     1415.008      769.587        0.808        0.208      109.400       19.603        0.032      333.155        2.283      854.523
01/31/2014  01:24:00      -87.743      -16.052        2.765       45.256       45.960       20.463     2048.149     2112.284      418.742        0.627        0.229       89.199       17.744        0.040      333.163        2.297      854.531
01/31/2014  01:25:00      -72.357      -13.728       -8.320       39.351       26.217       21.656     1548.491      687.322      468.998        0.410        0.135       73.648       15.634        0.045      333.127        2.240      854.528
01/31/2014  01:26:00      -63.265       -1.724       -4.011       21.024       24.695       16.904      442.016      609.854      285.748        0.268        0.067       63.288       12.120        0.037      333.118        2.223      854.528
01/31/2014  01:27:00      -33.696        6.193        0.215       27.169       18.891       13.987      738.155      356.882      195.648        0.123        0.065       34.260       11.943        0.122      333.237        2.420      854.530
01/31/2014  01:28:00     -102.339       37.091      -23.825       29.757       25.085       18.903      885.476      629.234      357.337        0.714        0.094      108.853       14.789        0.018      332.987        2.008      854.538
01/31/2014  01:29:00      -94.348       62.960      -19.302       36.440       25.790       19.199     1327.841      665.142      368.586        0.780        0.118      113.427       19.445        0.029      333.002        2.030      854.552
01/31/2014  01:30:00      -28.929        5.954       -4.196       25.305       19.313       14.812      640.342      372.983      219.409        0.106        0.062       29.536       16.279        0.304      332.996        2.019      854.546
01/31/2014  01:31:00      -68.834      -13.950       -9.067       10.028       15.371       11.920      100.565      236.260      142.078        0.275        0.024       70.234        8.180        0.014      333.067        2.139      854.549
01/31/2014  01:32:00      -11.432      -17.813        5.509       22.759       17.878       12.163      517.993      319.628      147.940        0.073        0.049       21.166       14.493        0.469      333.080        2.161      854.552
01/31/2014  01:33:00      -34.251      -35.055        7.173       30.627       33.290       13.381      938.005     1108.226      179.057        0.234        0.111       49.010        7.865        0.026      333.100        2.195      854.564
01/31/2014  01:34:00      -58.724      -51.076        3.766       51.721       27.009       21.386     2675.019      729.506      457.363        0.497        0.193       77.829       21.654        0.077      333.020        2.062      854.576
01/31/2014  01:35:00      -53.835      -32.662        0.682       47.192       38.235       22.744     2227.124     1461.899      517.269        0.409        0.210       62.968       22.412        0.127      333.037        2.090      854.585
01/31/2014  01:36:00       -4.702        8.959       26.692       28.455       34.481       19.690      809.707     1188.919      387.692        0.160        0.119       10.118       12.266        1.470      333.123        2.231      854.594
01/31/2014  01:37:00      -28.872       -5.530       -2.692       41.622       22.419       21.064     1732.357      502.595      443.701        0.177        0.134       29.397       11.320        0.148      333.046        2.104      854.595
01/31/2014  01:38:00      -40.149      -41.675       -2.006       58.138       36.265       23.620     3379.975     1315.137      557.897        0.430        0.263       57.868       14.207        0.060      333.106        2.205      854.598
01/31/2014  01:39:00      -39.861      -46.465       10.435       61.667       23.800       21.537     3802.800      566.443      463.860        0.434        0.242       61.220       27.119        0.196      333.114        2.217      854.605
01/31/2014  01:40:00      -48.417      -26.359       -5.246       26.851       17.288       16.858      720.973      298.875      284.203        0.219        0.065       55.127       14.176        0.066      332.945        1.938      854.609
01/31/2014  01:41:00      -13.308      -20.058        4.394       31.879       32.843       12.035     1016.239     1078.630      144.833        0.142        0.112       24.071       15.196        0.399      332.923        1.904      854.615
01/31/2014  01:42:00      -51.355      -19.742       -3.237       19.575       28.865       16.507      383.195      833.201      272.491        0.226        0.074       55.018       10.121        0.034      332.957        1.959      854.609
01/31/2014  01:43:00      -16.059      -30.096       -5.853       21.129       27.054       12.408      446.420      731.895      153.948        0.126        0.067       34.112        6.820        0.040      333.063        2.134      854.608
01/31/2014  01:44:00       -4.744       59.865       -4.311       38.476       33.071       25.838     1480.426     1093.684      667.600        0.343        0.162       60.053       22.022        0.134      332.958        1.960      854.616
01/31/2014  01:45:00      -24.440       -6.907       -1.865       43.289       30.913       27.548     1873.978      955.592      758.916        0.212        0.179       25.398       23.983        0.892      333.004        2.036      854.613
01/31/2014  01:46:00      -81.291       37.660      -21.496       60.995       53.554       21.921     3720.331     2867.982      480.526        0.778        0.353       89.590       22.018        0.060      332.927        1.909      854.626
01/31/2014  01:47:00     -122.707       48.394      -14.521       64.714       65.844       37.651     4187.941     4335.470     1417.598        1.377        0.497      131.906       26.493        0.040      332.828        1.745      854.642
01/31/2014  01:48:00      -83.283       55.662      -11.967       60.634       50.788       36.324     3676.460     2579.429     1319.465        0.888        0.379      100.172       34.956        0.122      332.851        1.784      854.648
01/31/2014  01:49:00      -70.939       80.063      -16.739       40.116       54.459       30.756     1609.289     2965.800      945.952        0.862        0.276      106.969       22.848        0.046      332.837        1.759      854.648
01/31/2014  01:50:00      -69.704       98.115      -22.104       48.268       57.125       31.858     2329.808     3263.292     1014.923        1.079        0.330      120.354       16.744        0.019      332.791        1.684      854.654
01/31/2014  01:51:00      -79.224       40.457       -6.552       62.246       48.760       33.293     3874.597     2377.500     1108.457        0.766        0.368       88.956       21.572        0.059      332.807        1.709      854.652
01/31/2014  01:52:00      -75.826      110.132      -17.023       35.281       60.088       34.287     1244.717     3610.591     1175.610        1.210        0.302      133.711       30.596        0.052      332.779        1.664      854.656
01/31/2014  01:53:00      -84.173       71.730      -19.307       43.236       44.822       26.985     1869.339     2009.001      728.202        0.860        0.230      110.590       25.563        0.053      332.767        1.644      854.655
01/31/2014  01:54:00      -65.008       63.839      -10.236       29.624       40.047       26.230      877.555     1603.730      688.035        0.579        0.158       91.113       20.314        0.050      332.758        1.629      854.658
01/31/2014  01:55:00      -91.164      114.895      -35.131       63.244       61.748       28.734     3999.782     3812.782      825.631        1.569        0.432      146.669       32.386        0.049      332.721        1.568      854.658
01/31/2014  01:56:00      -38.544       21.946      -11.227       31.950       36.601       17.912     1020.802     1339.605      320.830        0.239        0.134       44.354       17.565        0.157      332.749        1.615      854.667
01/31/2014  01:57:00      -66.104       57.735       -6.413       39.402       45.929       21.451     1552.523     2109.476      460.159        0.593        0.206       87.767       14.987        0.029      332.833        1.754      854.673
01/31/2014  01:58:00      -74.587       42.784      -11.377       57.709       51.325       26.756     3330.275     2634.253      715.871        0.710        0.334       85.987       19.652        0.052      332.754        1.623      854.672
01/31/2014  01:59:00      -54.116       41.812       -6.227       21.963       37.784       22.746      482.388     1427.614      517.380        0.357        0.121       68.387       17.478        0.065      332.810        1.716      854.680
01/31/2014  02:00:00     -120.445       70.123      -24.883       81.449       55.842       35.075     6633.978     3118.307     1230.224        1.551        0.549      139.371       41.717        0.090      332.780        1.664      854.688
01/31/2014  02:01:00      -56.388       68.634        3.999       40.049       69.638       28.538     1603.888     4849.407      814.402        0.759        0.363       88.827       28.534        0.103      332.835        1.756      854.689
01/31/2014  02:02:00     -118.501       75.285      -19.135       85.231       61.885       33.508     7264.281     3829.794     1122.799        1.614        0.611      140.393       34.072        0.059      332.888        1.842      854.707
01/31/2014  02:03:00     -149.128      138.118      -31.688       47.025       91.711       45.286     2211.312     8410.841     2050.791        2.749        0.634      203.262       43.171        0.045      332.738        1.594      854.732
01/31/2014  02:04:00     -113.485      121.702      -23.665       33.664       56.316       28.789     1133.286     3171.509      828.819        1.669        0.257      166.404       24.296        0.021      332.725        1.574      854.731
01/31/2014  02:05:00      -75.545       28.795      -16.513       35.708       44.799       20.343     1275.044     2006.990      413.830        0.525        0.185       80.846       16.009        0.039      332.743        1.606      854.726
01/31/2014  02:06:00      -42.275       62.722      -10.888       65.128       49.667       30.698     4241.634     2466.765      942.351        0.674        0.383       75.639       26.710        0.125      332.831        1.749      854.748
01/31/2014  02:07:00      -60.717      131.889      -11.242       42.577       78.278       36.914     1812.784     6127.462     1362.654        1.525        0.465      145.194       40.616        0.078      332.813        1.719      854.770
01/31/2014  02:08:00      -10.780       11.752       14.759       32.161       25.658       20.004     1034.311      658.345      400.159        0.128        0.105       15.947       23.952        2.256      332.943        1.934      854.770
01/31/2014  02:09:00      -75.026      -21.889        1.598       70.257       36.062       30.422     4936.095     1300.504      925.526        0.664        0.358       78.154       36.057        0.213      332.936        1.923      854.767
01/31/2014  02:10:00      -39.179       -7.911        2.224       47.405       18.465       18.382     2247.229      340.968      337.886        0.226        0.146       39.969       24.412        0.373      332.834        1.756      854.792
01/31/2014  02:11:00      -50.705        6.899      -11.707       31.741       50.632       30.799     1007.473     2563.624      948.551        0.364        0.226       51.172       22.962        0.201      332.883        1.837      854.799
01/31/2014  02:12:00      -38.911       77.067      -15.108       42.225       40.298       23.918     1782.970     1623.963      572.093        0.583        0.199       86.333       20.422        0.056      333.009        2.044      854.810
01/31/2014  02:13:00      -76.343      118.496        0.462       39.362      101.509       50.387     1549.349    10304.082     2538.880        1.713        0.720      140.960       18.744        0.018      332.936        1.921      854.817
01/31/2014  02:14:00      -66.129      122.844      -12.024       63.933      104.716       36.085     4087.386    10965.501     1302.105        1.798        0.818      139.513       48.545        0.121      332.886        1.840      854.811
01/31/2014  02:15:00     -107.075      158.255      -32.590       43.044       42.372       29.574     1852.756     1795.392      874.614        2.105        0.226      191.075       24.268        0.016      332.793        1.684      854.813
01/31/2014  02:16:00      -55.432      130.270      -20.205       28.079       52.987       23.654      788.443     2807.585      559.507        1.230        0.208      141.573       15.708        0.012      332.790        1.683      854.827
01/31/2014  02:17:00      -81.736       63.082      -34.091       60.254       75.273       34.610     3630.510     5665.986     1197.838        1.116        0.525      103.247       19.911        0.037      332.828        1.744      854.836
01/31/2014  02:18:00      -91.844      176.860      -29.702       77.245       72.461       37.109     5966.811     5250.644     1377.059        2.659        0.630      199.285       40.456        0.041      332.742        1.598      854.826
01/31/2014  02:19:00      -58.450      114.088      -23.843       30.676       48.686       25.439      940.994     2370.307      647.149        1.048        0.198      128.189       20.479        0.026      332.774        1.654      854.814
01/31/2014  02:20:00      -97.858       43.858      -10.996       39.239       34.065       21.506     1539.725     1160.419      462.520        0.739        0.158      107.236       15.156        0.020      332.756        1.626      854.811
01/31/2014  02:21:00      -75.581       24.252      -15.819       38.507       25.768       30.820     1482.793      664.010      949.864        0.482        0.155       79.377       25.412        0.102      332.771        1.649      854.813
01/31/2014  02:22:00      -27.715        4.715      -13.039       46.032       53.835       30.046     2118.985     2898.155      902.761        0.344        0.296       28.113       25.391        0.816      332.802        1.702      854.803
01/31/2014  02:23:00      -82.375       40.774      -16.177       58.796       49.292       27.675     3457.005     2429.655      765.889        0.768        0.333       91.914       25.034        0.074      332.803        1.705      854.785
01/31/2014  02:24:00      -87.449       25.186       -8.433       67.826       72.108       30.749     4600.300     5199.544      945.473        0.955        0.537       91.004       25.485        0.078      332.794        1.688      854.787
01/31/2014  02:25:00     -186.696       43.027      -20.857      119.252       54.043       45.375    14220.974     2920.635     2058.930        2.817        0.960      191.590       49.404        0.066      332.755        1.621      854.795
01/31/2014  02:26:00     -175.838      -14.661      -18.292       82.025       37.247       31.080     6728.156     1387.335      965.940        2.027        0.454      176.449       34.820        0.039      332.763        1.636      854.796
01/31/2014  02:27:00     -142.121       40.989      -29.388       44.666       56.566       34.165     1995.066     3199.690     1167.228        1.455        0.318      147.914       18.436        0.016      332.808        1.710      854.811
01/31/2014  02:28:00      -79.393       -5.844      -24.916       50.008       59.976       31.220     2500.804     3597.161      974.705        0.701        0.354       79.608       13.611        0.029      332.859        1.798      854.823
01/31/2014  02:29:00     -118.447      -44.757       -9.211       50.112       44.167       26.066     2511.189     1950.697      679.454        1.063        0.257      126.621       16.696        0.017      332.842        1.768      854.835
01/31/2014  02:30:00     -168.642      -68.713      -18.345       55.143       54.468       37.593     3040.716     2966.785     1413.253        2.046        0.371      182.104       31.315        0.030      332.804        1.702      854.858
01/31/2014  02:31:00     -168.670      -41.776       -1.620       53.900       65.246       34.358     2905.194     4257.033     1180.446        1.927        0.417      173.766       26.174        0.023      332.816        1.724      854.877
01/31/2014  02:32:00     -166.824      -33.512       -2.949       66.297       65.741       38.705     4395.290     4321.870     1498.108        1.959        0.511      170.156       26.295        0.024      332.803        1.701      854.894
01/31/2014  02:33:00     -161.339      -39.480       -4.113       84.213       71.719       37.003     7091.763     5143.594     1369.200        2.060        0.680      166.099       34.731        0.044      332.803        1.703      854.911
01/31/2014  02:34:00     -145.545      -38.245       -9.697       49.923       62.587       42.514     2492.272     3917.109     1807.474        1.548        0.411      150.486       23.563        0.025      332.826        1.741      854.918
01/31/2014  02:35:00     -193.981      -21.402      -24.066       51.024       49.615       33.783     2603.451     2461.615     1141.276        2.243        0.310      195.158       26.313        0.018      332.782        1.664      854.931
01/31/2014  02:36:00     -154.043       -4.464       -9.385       68.270       70.781       40.532     4660.799     5009.882     1642.805        1.757        0.566      154.108       35.030        0.052      332.810        1.714      854.933
01/31/2014  02:37:00     -161.490       43.198      -22.589       55.094       75.605       35.902     3035.323     5716.186     1288.970        1.925        0.502      167.167       33.187        0.039      332.794        1.686      854.917
01/31/2014  02:38:00     -124.509       77.882      -14.098       52.991       58.063       30.015     2808.034     3371.322      900.895        1.442        0.354      146.861       27.008        0.034      332.814        1.722      854.898
01/31/2014  02:39:00     -116.990      -29.925       -6.610       49.109       44.118       29.012     2411.742     1946.438      841.680        0.991        0.260      120.757       23.008        0.036      332.852        1.784      854.886
01/31/2014  02:40:00     -151.065      -44.169       -1.068       60.186       42.388       29.060     3622.399     1796.702      844.472        1.552        0.313      157.390       32.167        0.042      332.812        1.718      854.875
01/31/2014  02:41:00     -160.444      -32.999      -14.403       56.023       36.199       26.328     3138.536     1310.400      693.139        1.609        0.257      163.802       24.666        0.023      332.797        1.694      854.873
01/31/2014  02:42:00     -127.650       -0.773       -3.680       49.558       32.277       27.768     2455.949     1041.806      771.050        1.029        0.213      127.652       21.626        0.029      332.806        1.708      854.874
01/31/2014  02:43:00     -109.550      -15.757       -8.746       68.530       44.702       27.821     4696.422     1998.273      774.035        0.990        0.373      110.677       27.112        0.060      332.864        1.805      854.888
01/31/2014  02:44:00     -168.000      -33.307      -26.173       52.344       25.444       21.479     2739.925      647.405      461.365        1.693        0.192      171.270       19.253        0.013      332.746        1.608      854.901
01/31/2014  02:45:00      -92.177       -3.573       -2.255       42.980       45.729       26.590     1847.315     2091.174      707.002        0.658        0.232       92.246       21.415        0.054      332.770        1.649      854.917
01/31/2014  02:46:00     -136.593      -27.572      -12.538       41.145       50.163       28.551     1692.910     2516.314      815.147        1.230        0.251      139.348       23.457        0.028      332.750        1.615      854.934
01/31/2014  02:47:00     -172.820      -50.015       -2.559       52.030       45.322       27.635     2707.123     2054.123      763.691        1.895        0.276      179.912       24.103        0.018      332.732        1.584      854.956
01/31/2014  02:48:00     -129.835      -33.267        5.250       64.686       45.411       31.677     4184.277     2062.132     1003.405        1.262        0.362      134.029       31.763        0.056      332.758        1.628      854.973
01/31/2014  02:49:00     -102.554      -61.457        0.320       57.862       48.212       24.743     3347.980     2324.444      612.192        1.029        0.314      119.559       25.128        0.044      332.776        1.659      854.983
01/31/2014  02:50:00      -86.547      -87.594        1.225       51.932       59.394       22.970     2696.904     3527.590      527.628        1.096        0.338      123.139       14.887        0.015      332.785        1.674      854.984
01/31/2014  02:51:00     -125.578     -110.216        5.660       59.683       45.049       37.871     3562.071     2029.396     1434.192        1.749        0.351      167.085       38.519        0.053      332.746        1.608      854.985
01/31/2014  02:52:00     -105.703     -121.832        0.236       60.360       51.401       37.787     3643.376     2642.074     1427.834        1.686        0.386      161.295       39.307        0.059      332.684        1.506      854.977
01/31/2014  02:53:00      -61.601      -87.940        4.365       35.996       35.737       25.810     1295.697     1277.122      666.132        0.739        0.162      107.370       20.517        0.037      332.656        1.459      854.962
01/31/2014  02:54:00      -67.262      -77.454        0.309       35.961       36.796       21.380     1293.162     1353.924      457.092        0.681        0.155      102.583       20.089        0.038      332.712        1.552      854.953
01/31/2014  02:55:00      -90.008      -67.843        0.780       35.506       38.220       21.914     1260.652     1460.780      480.237        0.795        0.160      112.713       19.539        0.030      332.722        1.569      854.951
01/31/2014  02:56:00      -53.305      -20.004       -0.896       32.215       36.189       26.587     1037.837     1309.654      706.880        0.315        0.153       56.935       25.094        0.194      332.647        1.445      854.944
01/31/2014  02:57:00     -119.865      -24.196       -2.688       71.240       31.674       25.500     5075.114     1003.261      650.235        1.084        0.336      122.283       28.442        0.054      332.649        1.447      854.942
01/31/2014  02:58:00      -40.143       -7.744       13.106       51.579       26.364       25.133     2660.380      695.061      631.680        0.291        0.199       40.884       31.253        0.584      332.678        1.497      854.949
01/31/2014  02:59:00      -58.700      -50.091       -9.998       51.837       36.814       23.288     2687.109     1355.289      542.330        0.532        0.229       77.168       25.240        0.107      332.724        1.573      854.958
01/31/2014  03:00:00      -16.499       -4.511       10.024       19.439       21.379       17.952      377.876      457.064      322.283        0.077        0.058       17.105       11.250        0.433      332.754        1.625      854.970
01/31/2014  03:01:00      -61.483      -51.720       -8.271       35.573       12.959       11.601     1265.440      167.940      134.593        0.405        0.078       80.344       12.247        0.023      332.700        1.533      854.980
01/31/2014  03:02:00      -44.222      -30.567        0.595       44.066       24.461       17.778     1941.827      598.335      316.072        0.287        0.143       53.758       12.050        0.050      332.643        1.438      854.983
01/31/2014  03:03:00      -95.550      -23.934       -7.095       42.236       25.255       13.790     1783.851      637.809      190.172        0.618        0.131       98.502        8.658        0.008      332.636        1.427      855.000
01/31/2014  03:04:00      -55.226       23.900       -2.954       46.359       32.207       19.218     2149.195     1037.321      369.326        0.359        0.178       60.176       24.453        0.165      332.654        1.458      855.017
01/31/2014  03:05:00      -52.614       16.573       -4.809       20.587       20.942       14.192      423.821      438.561      201.417        0.206        0.053       55.162       13.072        0.056      332.687        1.513      855.027
01/31/2014  03:06:00      -76.009       36.377      -15.565       13.700       21.098       12.259      187.682      445.119      150.277        0.406        0.039       84.266       11.656        0.019      332.598        1.365      855.037
01/31/2014  03:07:00      -38.767       13.023       -0.413       35.892       18.744       14.705     1288.207      351.346      216.247        0.176        0.093       40.896       13.415        0.108      332.715        1.559      855.039
01/31/2014  03:08:00      -31.937       38.526       -4.774       23.981       27.513       15.446      575.086      756.983      238.579        0.205        0.079       50.042       10.443        0.044      332.714        1.557      855.031
01/31/2014  03:09:00       -5.483       41.652        3.570       14.013       26.993       21.081      196.364      728.612      444.392        0.157        0.068       42.011       17.979        0.183      332.782        1.670      855.019
01/31/2014  03:10:00       -2.055       58.479      -10.601        8.575       18.714        9.553       73.535      350.218       91.262        0.203        0.026       58.515        8.661        0.022      332.616        1.393      855.012
01/31/2014  03:11:00       -7.172      113.763       -7.461       18.549       28.837       21.530      344.057      831.597      463.543        0.734        0.082      113.989       18.253        0.026      332.687        1.512      855.016
01/31/2014  03:12:00      -88.961       33.642      -11.334       40.577       34.039       21.765     1646.486     1158.651      473.704        0.623        0.164       95.109       22.194        0.054      332.707        1.544      855.020
01/31/2014  03:13:00     -174.157       24.626      -19.955       41.156       30.282       24.255     1693.823      917.020      588.316        1.727        0.160      175.890       21.084        0.014      332.603        1.372      855.028
01/31/2014  03:14:00     -134.517      -39.535      -23.577       44.538       44.932       21.341     1983.607     2018.888      455.454        1.234        0.223      140.206       21.568        0.024      332.605        1.375      855.027
01/31/2014  03:15:00     -118.052      -81.898       -2.742       30.826       29.285       20.922      950.242      857.583      437.719        1.145        0.112      143.679       17.966        0.016      332.631        1.419      855.027
01/31/2014  03:16:00     -128.965      -38.952      -12.669       31.621       39.212       20.593      999.868     1537.559      424.088        1.064        0.148      134.719       16.070        0.014      332.606        1.377      855.018
01/31/2014  03:17:00     -129.959      -47.761      -16.104       33.903       21.664       16.208     1149.399      469.319      262.712        1.066        0.094      138.457       13.750        0.010      332.588        1.347      855.011
01/31/2014  03:18:00     -114.685      -45.729       -7.561       42.987       35.347       24.605     1847.922     1249.405      605.382        0.950        0.185      123.466       11.531        0.009      332.620        1.401      855.001
01/31/2014  03:19:00      -81.274      -36.869       -0.177       49.074       33.850       23.926     2408.231     1145.823      572.463        0.604        0.206       89.245       22.207        0.062      332.651        1.453      854.997
01/31/2014  03:20:00      -57.456      -29.496        4.915       52.272       29.032       27.355     2732.405      842.865      748.294        0.426        0.216       64.585       33.143        0.263      332.640        1.434      855.003
01/31/2014  03:21:00     -120.757      -28.019       -8.888       40.291       26.742       21.426     1623.331      715.138      459.064        0.912        0.140      123.965       20.990        0.029      332.567        1.312      855.004
01/31/2014  03:22:00      -87.740      -32.297       -3.518       40.335       30.161       21.535     1626.879      909.656      463.776        0.588        0.150       93.496       23.908        0.065      332.589        1.349      855.006
01/31/2014  03:23:00      -39.409      -33.913        4.756       26.106       25.715       13.702      681.508      661.250      187.753        0.213        0.077       51.991       14.151        0.074      332.632        1.422      855.020
01/31/2014  03:24:00      -68.442      -23.534      -10.749       18.316       17.685       17.565      335.487      312.769      308.541        0.316        0.048       72.375        7.408        0.010      332.649        1.449      855.042
01/31/2014  03:25:00      -59.431        0.284      -16.318       20.162       15.380       17.363      406.501      236.537      301.482        0.237        0.047       59.432       12.498        0.044      332.617        1.396      855.069
01/31/2014  03:26:00      -74.786       20.414       -7.716       28.671       21.675       16.245      822.007      469.813      263.916        0.381        0.078       77.522       15.658        0.041      332.616        1.394      855.100
01/31/2014  03:27:00      -69.934       10.382       -4.272       19.364       30.355       15.813      374.972      921.444      250.036        0.328        0.077       70.700        8.852        0.016      332.682        1.504      855.117
01/31/2014  03:28:00      -44.684       -1.172      -15.870       27.268       22.797       26.396      743.554      519.684      696.768        0.210        0.098       44.699       13.659        0.093      332.627        1.412      855.133
01/31/2014  03:29:00     -131.442      -44.423      -11.546       39.094       33.180       15.654     1528.315     1100.887      245.054        1.113        0.144      138.746        9.510        0.005      332.631        1.417      855.136
01/31/2014  03:30:00      -81.705      -33.502      -15.553       25.703       28.641       19.287      660.628      820.332      371.974        0.495        0.093       88.306        5.317        0.004      332.619        1.399      855.128
01/31/2014  03:31:00      -66.623       29.620      -16.146       25.654       37.650       16.796      658.126     1417.511      282.101        0.397        0.118       72.911       12.126        0.028      332.610        1.385      855.128
01/31/2014  03:32:00      -22.965        0.000       -3.309       24.015       17.390       20.767      576.718      302.421      431.261        0.092        0.066       22.965       17.481        0.579      332.606        1.379      855.117
01/31/2014  03:33:00      -44.269      -15.938        8.166       28.634       24.357       17.387      819.932      593.241      302.318        0.200        0.086       47.050       16.001        0.116      332.651        1.453      855.109
01/31/2014  03:34:00      -51.599       51.655       -2.251       33.905       26.567       20.898     1149.573      705.813      436.741        0.381        0.115       73.011       19.558        0.072      332.686        1.512      855.127
01/31/2014  03:35:00      -97.681      119.894      -26.628       31.788       43.552       23.442     1010.502     1896.783      549.544        1.404        0.173      154.648       15.219        0.010      332.465        1.146      855.129
01/31/2014  03:36:00      -79.552       78.446      -17.891       28.319       31.521       21.598      801.951      993.556      466.467        0.753        0.113      111.724       17.303        0.024      332.517        1.230      855.133
01/31/2014  03:37:00      -73.210       59.987      -21.090       33.124       49.111       23.043     1097.205     2411.924      530.983        0.672        0.202       94.647       22.395        0.056      332.518        1.233      855.139
01/31/2014  03:38:00     -105.513       33.660      -17.348       30.759       22.332       17.505      946.135      498.723      306.425        0.716        0.088      110.752       11.415        0.011      332.512        1.222      855.140
01/31/2014  03:39:00     -104.389       59.440      -27.809       34.892       57.276       20.727     1217.441     3280.571      429.611        1.006        0.246      120.126       26.724        0.049      332.445        1.114      855.151
01/31/2014  03:40:00      -65.219       85.162      -18.219       37.142       34.472       19.950     1379.530     1188.347      397.987        0.740        0.148      107.267        9.029        0.007      332.404        1.046      855.149
01/31/2014  03:41:00      -74.568       46.021      -13.215       43.807       41.849       19.509     1919.058     1751.318      380.613        0.595        0.203       87.626       17.326        0.039      332.514        1.227      855.140
01/31/2014  03:42:00      -66.429       66.570       -7.207       26.395       49.695       19.603      696.691     2469.621      384.284        0.622        0.178       94.044       14.273        0.023      332.488        1.184      855.132
01/31/2014  03:43:00     -110.394      103.126      -25.556       29.307       53.371       34.165      858.887     2848.424     1167.217        1.417        0.244      151.069       34.476        0.052      332.451        1.121      855.136
01/31/2014  03:44:00      -98.443      131.321      -24.437       32.903       48.159       29.559     1082.626     2319.312      873.732        1.590        0.214      164.123       19.408        0.014      332.413        1.059      855.138
01/31/2014  03:45:00     -135.757       80.904      -29.676       40.787       54.986       23.589     1663.584     3023.476      556.442        1.555        0.262      158.036       24.514        0.024      332.393        1.025      855.134
01/31/2014  03:46:00      -39.410      100.190       -5.635       37.651       47.011       30.242     1417.593     2210.061      914.587        0.808        0.227      107.663       29.916        0.077      332.430        1.088      855.132
01/31/2014  03:47:00      -47.825        9.418        4.601       34.313       30.131       22.544     1177.402      907.893      508.244        0.249        0.130       48.743       22.649        0.216      332.523        1.241      855.128
01/31/2014  03:48:00      -74.240      -16.299        8.139       47.302       46.303       24.697     2237.521     2143.966      609.927        0.542        0.250       76.008       26.551        0.122      332.463        1.141      855.127
01/31/2014  03:49:00     -110.670      -33.745       -5.498       58.486       46.741       31.970     3420.590     2184.689     1022.091        1.002        0.331      115.700       28.781        0.062      332.489        1.184      855.124
01/31/2014  03:50:00      -99.339       18.572      -14.175       50.694       52.445       34.294     2569.882     2750.500     1176.098        0.845        0.325      101.060       28.547        0.080      332.387        1.017      855.116
01/31/2014  03:51:00     -111.417      -31.958      -12.969       70.516       44.397       26.757     4972.442     1971.114      715.949        1.063        0.383      115.910       31.368        0.073      332.396        1.032      855.106
01/31/2014  03:52:00     -119.010       27.280      -23.991       55.229       71.244       30.999     3050.206     5075.675      960.907        1.228        0.454      122.096       27.202        0.050      332.349        0.953      855.106
01/31/2014  03:53:00      -97.900      -18.576       -9.880       58.083       52.737       33.284     3373.624     2781.148     1107.795        0.864        0.363       99.647       28.360        0.081      332.378        1.002      855.118
01/31/2014  03:54:00      -81.443        6.296       -9.340       52.295       69.528       28.587     2734.763     4834.130      817.203        0.757        0.419       81.686       32.525        0.159      332.406        1.047      855.123
01/31/2014  03:55:00     -136.163      -52.561      -24.324       62.771       47.863       30.584     3940.174     2290.907      935.373        1.453        0.358      145.956       18.774        0.017      332.392        1.022      855.133
01/31/2014  03:56:00     -101.038       -8.834       -8.171       56.510       41.113       28.591     3193.333     1690.256      817.458        0.803        0.285      101.423       22.807        0.051      332.395        1.029      855.151
01/31/2014  03:57:00     -102.426      -13.313      -20.166       27.857       30.880       17.886      776.001      953.558      319.896        0.656        0.102      103.287        8.769        0.007      332.347        0.949      855.167
01/31/2014  03:58:00     -112.396      -40.323        0.087       52.770       44.432       24.746     2784.626     1974.205      612.388        0.981        0.269      119.410       26.083        0.048      332.294        0.863      855.182
01/31/2014  03:59:00     -149.519      -32.461      -10.278       36.693       44.329       23.139     1346.413     1965.088      535.435        1.368        0.192      153.002       16.164        0.011      332.309        0.888      855.199
01/31/2014  04:00:00     -108.232       -1.251       -2.787       65.296       50.779       30.534     4263.568     2578.551      932.301        0.975        0.389      108.239       29.705        0.075      332.454        1.128      855.206
01/31/2014  04:01:00      -52.107      -11.870        4.070       52.796       28.076       25.806     2787.423      788.275      665.970        0.356        0.212       53.442       29.767        0.310      332.472        1.157      855.216
01/31/2014  04:02:00      -67.688        6.197        0.444       51.488       57.381       31.775     2650.975     3292.602     1009.647        0.579        0.348       67.971       26.073        0.147      332.512        1.221      855.228
01/31/2014  04:03:00      -46.398      -26.925       -1.910       26.948       29.209       26.668      726.179      853.157      711.172        0.259        0.115       53.645       11.231        0.044      332.456        1.132      855.235
01/31/2014  04:04:00      -12.105       12.914       -3.875       30.452       25.081       17.146      927.334      629.070      293.982        0.109        0.093       17.700       11.233        0.403      332.567        1.313      855.241
01/31/2014  04:05:00      -45.240      -15.499       -1.902       35.334       42.430       16.391     1248.473     1800.326      268.657        0.280        0.166       47.822       16.390        0.117      332.552        1.289      855.247
01/31/2014  04:06:00      -60.570      -33.085        1.619       58.126       31.458       21.476     3378.618      989.636      461.228        0.480        0.241       69.017       26.695        0.150      332.556        1.294      855.258
01/31/2014  04:07:00      -54.527       -9.702        2.225       37.260       26.265       20.982     1388.271      689.848      440.225        0.279        0.126       55.384       18.293        0.109      332.591        1.352      855.280
01/31/2014  04:08:00      -79.509       52.119      -18.239       55.718       58.936       23.880     3104.469     3473.478      570.260        0.826        0.357       95.069       28.164        0.088      332.559        1.299      855.294
01/31/2014  04:09:00      -71.199      -17.637       -2.934       53.244       36.022       28.578     2834.940     1297.569      816.683        0.517        0.247       73.351       29.340        0.160      332.485        1.178      855.313
01/31/2014  04:10:00      -85.261       13.700       -4.376       44.601       38.399       19.068     1989.283     1474.463      363.603        0.565        0.191       86.355       19.907        0.053      332.499        1.203      855.322
01/31/2014  04:11:00      -74.494       38.988      -25.922       26.250       38.021       20.652      689.080     1445.608      426.506        0.515        0.128       84.080        4.257        0.003      332.532        1.255      855.331
01/31/2014  04:12:00      -44.379      -20.899      -15.307       38.974       28.480       22.392     1518.959      811.106      501.408        0.274        0.142       49.054       16.047        0.107      332.574        1.324      855.334
01/31/2014  04:13:00      -56.772      -36.487       -5.580       46.709       27.487       23.682     2181.713      755.515      560.841        0.404        0.175       67.485       13.835        0.042      332.507        1.215      855.345
01/31/2014  04:14:00      -43.871        6.257       -3.758       20.541       21.857       17.652      421.936      477.731      311.609        0.159        0.061       44.315       11.436        0.067      332.521        1.238      855.350
01/31/2014  04:15:00      -69.477      -29.529       -4.553       36.420       24.763       16.181     1326.426      613.190      261.840        0.396        0.110       75.492       11.302        0.022      332.522        1.238      855.358
01/31/2014  04:16:00      -92.173       28.885       -6.734       26.472       30.860       21.305      700.792      952.330      453.904        0.574        0.105       96.593       18.905        0.038      332.480        1.169      855.358
01/31/2014  04:17:00      -56.148      -18.770       -4.255       48.346       43.933       27.087     2337.341     1930.123      733.700        0.426        0.250       59.202       17.055        0.083      332.571        1.321      855.364
01/31/2014  04:18:00      -69.999       36.455      -16.950       33.750       60.235       24.343     1139.072     3628.279      592.581        0.594        0.268       78.923       10.911        0.019      332.597        1.363      855.380
01/31/2014  04:19:00     -144.562      -62.886       -7.199       56.751       45.519       31.820     3220.689     2072.023     1012.528        1.560        0.315      157.648       22.086        0.020      332.642        1.437      855.382
01/31/2014  04:20:00     -183.595       -0.334      -24.382       48.250      101.369       33.818     2328.049    10275.588     1143.638        2.402        0.687      183.596       28.082        0.023      332.584        1.340      855.389
01/31/2014  04:21:00     -104.683       18.437      -18.633       39.741       54.050       24.849     1579.362     2921.358      617.460        0.838        0.256      106.294        9.808        0.009      332.592        1.355      855.390
01/31/2014  04:22:00      -93.383      -57.033       -3.470       65.672       35.817       28.139     4312.749     1282.843      791.819        0.919        0.319      109.421       32.917        0.090      332.572        1.322      855.382
01/31/2014  04:23:00      -89.368      -56.602       -0.854       66.647       33.394       25.358     4441.810     1115.133      643.043        0.869        0.310      105.785       17.880        0.029      332.572        1.322      855.386
01/31/2014  04:24:00      -84.192      -37.909       -9.099       48.191       29.432       21.987     2322.324      866.228      483.442        0.614        0.184       92.333       19.668        0.045      332.447        1.115      855.379
01/31/2014  04:25:00     -119.627      -44.988       -2.892       51.478       29.863       17.509     2649.963      891.815      306.575        1.009        0.192      127.807       20.106        0.025      332.360        0.971      855.388
01/31/2014  04:26:00      -86.013      -11.163       -1.686       32.048       24.552       15.011     1027.073      602.825      225.321        0.469        0.093       86.734       12.613        0.021      332.361        0.974      855.391
01/31/2014  04:27:00     -115.485      -17.400      -10.911       28.825       36.792       18.057      830.856     1353.674      326.066        0.813        0.126      116.789       18.889        0.026      332.377        1.000      855.404
01/31/2014  04:28:00     -106.448       -6.613       -2.713       35.355       30.373       19.112     1250.003      922.545      365.280        0.696        0.127      106.654       18.017        0.029      332.333        0.926      855.421
01/31/2014  04:29:00      -81.514      -21.959       -4.728       41.166       36.471       20.077     1694.657     1330.135      403.099        0.529        0.171       84.420       18.253        0.047      332.368        0.985      855.431
01/31/2014  04:30:00     -147.646      -43.695       -9.124       56.365       31.909       21.677     3177.059     1018.159      469.908        1.423        0.233      153.976       18.074        0.014      332.391        1.023      855.436
01/31/2014  04:31:00     -125.947      -29.309      -14.467       50.609       46.747       30.456     2561.261     2185.319      927.567        1.130        0.284      129.312       29.041        0.050      332.421        1.073      855.437
01/31/2014  04:32:00      -75.450       11.046       -6.257       29.136       45.495       19.480      848.903     2069.792      379.479        0.458        0.165       76.254       19.106        0.063      332.471        1.154      855.446
01/31/2014  04:33:00     -168.287      -24.075       -9.494       71.993       51.910       32.216     5183.033     2694.625     1037.850        1.895        0.446      170.000       32.495        0.037      332.504        1.208      855.465
01/31/2014  04:34:00     -187.107      -13.918      -21.804       32.234       42.217       22.835     1039.044     1782.305      521.420        1.951        0.167      187.624       15.817        0.007      332.512        1.221      855.467
01/31/2014  04:35:00     -109.259      -35.350       -7.146       30.658       42.648       19.731      939.899     1818.864      389.323        0.819        0.157      114.835       17.043        0.022      332.498        1.200      855.473
01/31/2014  04:36:00      -88.430      -24.641      -12.701       27.875       28.696       18.004      776.992      823.482      324.151        0.526        0.096       91.799       14.515        0.025      332.517        1.231      855.469
01/31/2014  04:37:00     -110.814      -11.008      -24.337       28.898       26.312       21.570      835.100      692.295      465.260        0.749        0.100      111.359       13.798        0.015      332.652        1.454      855.470
01/31/2014  04:38:00      -83.575      -36.260      -14.351       25.460       25.444       21.091      648.221      647.377      444.838        0.512        0.087       91.102       15.569        0.029      332.621        1.403      855.475
01/31/2014  04:39:00      -86.783      -37.949      -11.122       44.311       36.522       15.604     1963.472     1333.860      243.470        0.632        0.177       94.717       11.748        0.015      332.679        1.499      855.480
01/31/2014  04:40:00      -83.717      -41.298       -6.667       32.069       31.263       22.712     1028.419      977.366      515.841        0.564        0.126       93.349       14.278        0.023      332.649        1.448      855.481
01/31/2014  04:41:00      -56.596       -9.823       -5.558       29.510       26.544       16.738      870.864      704.599      280.175        0.259        0.093       57.442        8.563        0.022      332.652        1.454      855.510
01/31/2014  04:42:00      -72.590      -13.634       -5.939       34.686       27.439       16.148     1203.139      752.879      260.761        0.385        0.111       73.859       15.670        0.045      332.672        1.487      855.525
01/31/2014  04:43:00      -53.023       24.501       -4.905       21.467       31.263       16.030      460.823      977.367      256.953        0.257        0.085       58.410        9.169        0.025      332.687        1.513      855.544
01/31/2014  04:44:00      -39.607       42.438       -5.110       25.962       27.211       22.436      674.019      740.463      503.359        0.266        0.096       58.049       19.637        0.114      332.768        1.646      855.564
01/31/2014  04:45:00      -31.654       20.976       -2.754       23.698       36.617       14.249      561.578     1340.820      203.020        0.178        0.105       37.973       20.542        0.293      332.692        1.521      855.581
01/31/2014  04:46:00      -40.894       60.992      -12.134       26.613       35.795       13.585      708.256     1281.254      184.542        0.386        0.109       73.433       11.372        0.024      332.711        1.553      855.594
01/31/2014  04:47:00      -65.666      109.730      -16.689       32.402       31.024       24.446     1049.864      962.470      597.629        0.962        0.130      127.878       18.668        0.021      332.695        1.525      855.619
01/31/2014  04:48:00      -59.153       77.580       -9.281       41.821       36.964       24.097     1748.980     1366.340      580.676        0.665        0.185       97.559       24.751        0.064      332.712        1.553      855.643
01/31/2014  04:49:00      -73.012      123.790      -22.081       33.119       42.301       22.176     1096.884     1789.392      491.775        1.226        0.169      143.717       11.199        0.006      332.678        1.498      855.671
01/31/2014  04:50:00        8.764      112.483      -17.951       31.784       22.234       13.653     1010.250      494.361      186.416        0.737        0.085      112.824        6.228        0.003      332.608        1.381      855.702
01/31/2014  04:51:00       47.986       82.003       -7.088       33.766       43.864       27.587     1140.111     1924.019      761.048        0.645        0.191       95.011       20.033        0.044      332.559        1.298      855.720
01/31/2014  04:52:00       49.004       70.028        5.673       47.665       50.429       35.790     2271.982     2543.047     1280.925        0.672        0.305       85.471       32.281        0.143      332.533        1.255      855.738
01/31/2014  04:53:00       32.025       92.904       -6.698       31.222       48.699       24.257      974.824     2371.591      588.401        0.682        0.197       98.269       23.677        0.058      332.486        1.179      855.758
01/31/2014  04:54:00       25.588      137.936      -21.891       34.077       53.916       22.044     1161.258     2906.932      485.952        1.236        0.228      140.289       18.346        0.017      332.453        1.126      855.777
01/31/2014  04:55:00      -12.493      151.983      -22.752       26.563       50.142       17.983      705.574     2514.240      323.373        1.366        0.177      152.496       16.631        0.012      332.397        1.032      855.797
01/31/2014  04:56:00      -32.874      169.086      -18.286       33.229       56.229       26.637     1104.149     3161.738      709.534        1.749        0.249      172.252       26.563        0.024      332.477        1.165      855.817
01/31/2014  04:57:00      -32.874       66.506       -1.388       32.066       41.257       27.929     1028.231     1702.156      780.049        0.451        0.176       74.188       26.020        0.123      332.502        1.207      855.813
01/31/2014  04:58:00     -104.052       92.903      -12.935       33.613       58.601       30.160     1129.843     3434.035      909.620        1.255        0.274      139.491       27.908        0.040      332.394        1.028      855.806
01/31/2014  04:59:00      -96.246       43.515       -9.117       35.413       28.518       23.240     1254.109      813.253      540.094        0.692        0.130      105.626       17.949        0.029      332.382        1.006      855.808
01/31/2014  05:00:00     -125.883       -1.252      -14.832       31.580       42.083       20.864      997.317     1770.991      435.300        0.964        0.160      125.890        9.476        0.006      332.394        1.029      855.803
01/31/2014  05:01:00     -115.291      -13.495      -13.407       22.960       22.682       13.301      527.162      514.489      176.903        0.744        0.061      116.079        8.870        0.006      332.392        1.027      855.783
01/31/2014  05:02:00     -139.570      -46.357       -7.340       45.010       28.726       21.416     2025.943      825.177      458.662        1.250        0.165      147.067       14.364        0.010      332.470        1.153      855.776
01/31/2014  05:03:00      -70.606      -41.359        1.096       65.610       45.206       25.619     4304.665     2043.540      656.339        0.685        0.350       81.828       29.614        0.131      332.522        1.238      855.779
01/31/2014  05:04:00     -133.396      -45.269       -2.696       48.884       33.787       25.085     2389.615     1141.550      629.236        1.201        0.208      140.868       22.838        0.026      332.418        1.066      855.788
01/31/2014  05:05:00     -100.572        7.680       -5.575       38.578       36.625       19.120     1488.225     1341.356      365.568        0.670        0.160      100.865       17.054        0.029      332.437        1.099      855.803
01/31/2014  05:06:00      -21.183       61.948      -12.871       34.682       50.508       17.162     1202.821     2551.025      294.538        0.425        0.202       65.469       17.885        0.075      332.503        1.208      855.829
01/31/2014  05:07:00        9.628      116.941      -16.258       26.908       29.135       21.771      724.034      848.830      473.985        0.804        0.102      117.336       19.735        0.028      332.443        1.109      855.854
01/31/2014  05:08:00      -21.383      110.566      -11.134       37.611       63.185       22.835     1414.569     3992.333      521.437        0.937        0.296      112.615       29.866        0.070      332.412        1.058      855.858
01/31/2014  05:09:00      -34.612      176.047      -23.038       27.318       39.460       20.653      746.259     1557.066      426.553        1.773        0.136      179.417       19.177        0.011      332.466        1.148      855.868
01/31/2014  05:10:00      -34.376       81.894       -2.309       37.252       37.458       22.755     1387.745     1403.098      517.779        0.560        0.165       88.817       24.535        0.076      332.644        1.441      855.882
01/31/2014  05:11:00      -79.143      124.757      -17.693       41.821       79.904       26.550     1748.965     6384.666      704.904        1.549        0.442      147.743       22.323        0.023      332.474        1.159      855.895
01/31/2014  05:12:00     -100.140       61.652      -16.751       47.473       49.342       26.372     2253.661     2434.666      695.478        0.975        0.269      117.597       21.056        0.032      332.492        1.190      855.898
01/31/2014  05:13:00     -100.884       24.842       -6.830       49.829       59.842       32.107     2482.977     3581.031     1030.841        0.897        0.355      103.897       26.229        0.064      332.454        1.128      855.894
01/31/2014  05:14:00      -91.989       68.678      -14.375       40.648       76.733       32.442     1652.287     5887.904     1052.482        1.099        0.430      114.798       30.957        0.073      332.439        1.102      855.883
01/31/2014  05:15:00     -123.317       13.885       -9.548       55.919       71.708       31.254     3126.901     5142.107      976.804        1.237        0.462      124.096       11.512        0.009      332.476        1.163      855.869
01/31/2014  05:16:00      -68.361        9.000      -17.020       22.264       27.855       17.256      495.675      775.901      297.760        0.331        0.078       68.951       11.786        0.029      332.484        1.175      855.867
01/31/2014  05:17:00     -139.907       55.066      -20.632       60.270       47.420       26.091     3632.482     2248.622      680.731        1.480        0.328      150.354       23.566        0.025      332.469        1.151      855.869
01/31/2014  05:18:00     -133.195       18.934      -19.119       53.909       51.396       35.959     2906.176     2641.541     1293.045        1.265        0.342      134.534       28.028        0.043      332.490        1.186      855.877
01/31/2014  05:19:00     -125.740      -11.129      -22.387       51.215       48.123       31.315     2622.933     2315.852      980.650        1.118        0.296      126.231       28.221        0.050      332.525        1.244      855.883
01/31/2014  05:20:00     -144.675       25.148      -18.880       53.439       41.643       35.408     2855.755     1734.164     1253.708        1.388        0.292      146.845       36.013        0.060      332.395        1.028      855.892
01/31/2014  05:21:00      -94.386       -9.877        6.602       56.222       71.341       34.391     3160.859     5089.577     1182.752        0.924        0.472       94.901       31.678        0.111      332.399        1.036      855.889
01/31/2014  05:22:00     -131.849      -34.860        1.633       76.124       76.777       39.749     5794.827     5894.778     1580.005        1.593        0.663      136.380       42.503        0.097      332.438        1.101      855.874
01/31/2014  05:23:00     -130.850       -8.489      -19.395       57.999       81.555       40.015     3363.920     6651.240     1601.184        1.459        0.581      131.125       28.791        0.048      332.438        1.101      855.858
01/31/2014  05:24:00     -187.846        8.409      -16.032       71.657       54.731       32.840     5134.748     2995.441     1078.496        2.241        0.460      188.034       32.357        0.030      332.390        1.019      855.841
01/31/2014  05:25:00     -143.478      -58.036      -20.790       73.222       47.751       39.975     5361.497     2280.126     1597.978        1.681        0.462      154.771       35.411        0.052      332.367        0.981      855.829
01/31/2014  05:26:00      -91.596      -54.318       -3.720       72.996       46.199       42.059     5328.389     2134.324     1768.921        1.029        0.462      106.491       29.784        0.078      332.348        0.952      855.826
01/31/2014  05:27:00     -143.415      -34.928       -3.877       53.938       66.678       32.519     2909.337     4445.891     1057.491        1.511        0.421      147.607       27.590        0.035      332.289        0.853      855.821
01/31/2014  05:28:00     -156.696      -54.246      -12.499       61.251       57.821       22.680     3751.699     3343.248      514.401        1.763        0.380      165.820       20.957        0.016      332.299        0.870      855.823
01/31/2014  05:29:00     -163.890      -44.312      -13.606       64.473       71.413       36.134     4156.786     5099.761     1305.663        1.978        0.528      169.774       31.117        0.034      332.295        0.864      855.827
01/31/2014  05:30:00     -149.019      -32.544       -5.223       60.025       79.378       41.764     3602.993     6300.848     1744.199        1.747        0.582      152.532       30.688        0.040      332.263        0.810      855.833
01/31/2014  05:31:00     -161.188      -25.818      -22.890       86.935       79.061       38.809     7557.679     6250.676     1506.165        2.124        0.766      163.242       37.200        0.052      332.264        0.812      855.847
01/31/2014  05:32:00      -81.437      -22.477        9.741       90.911       57.284       42.388     8264.862     3281.481     1796.751        1.029        0.667       84.482       47.686        0.319      332.255        0.798      855.857
01/31/2014  05:33:00     -171.654      -49.856      -22.638       70.230       49.757       37.084     4932.308     2475.791     1375.229        2.062        0.439      178.747        6.080        0.001      332.238        0.769      855.859
01/31/2014  05:34:00     -137.941      -45.517        0.960       90.565       61.502       40.754     8202.060     3782.534     1660.913        1.737        0.682      145.257       45.221        0.097      332.257        0.802      855.867
01/31/2014  05:35:00     -135.402      -58.124       -3.137       74.382       50.014       40.527     5532.695     2501.443     1642.416        1.570        0.484      147.350       38.974        0.070      332.268        0.819      855.857
01/31/2014  05:36:00     -183.960      -50.233      -19.020       71.233       55.574       36.984     5074.160     3088.516     1367.806        2.313        0.477      190.695       39.004        0.042      332.199        0.704      855.843
01/31/2014  05:37:00     -143.533      -64.897       -8.598       62.895       53.752       45.753     3955.740     2889.263     2093.379        1.691        0.447      157.522       38.214        0.059      332.233        0.764      855.844
01/31/2014  05:38:00     -109.457      -12.419       -9.954       72.051       81.601       45.913     5191.401     6658.743     2107.967        1.309        0.698      110.159       44.177        0.161      332.251        0.793      855.841
01/31/2014  05:39:00     -165.343       72.906      -31.400       59.035       47.595       41.936     3485.139     2265.293     1758.647        2.057        0.375      180.704       37.921        0.044      332.197        0.702      855.830
01/31/2014  05:40:00     -120.425       28.151      -20.409       67.210       66.974       43.060     4517.172     4485.559     1854.137        1.328        0.543      123.672       38.496        0.097      332.205        0.717      855.810
01/31/2014  05:41:00     -166.934       91.239      -30.550       66.126       56.137       36.237     4372.586     3151.378     1313.095        2.298        0.442      190.241       23.795        0.016      332.217        0.735      855.812
01/31/2014  05:42:00     -137.207       42.642       -9.222       53.486       74.224       36.905     2860.747     5509.241     1361.968        1.523        0.487      143.681       29.463        0.042      332.212        0.728      855.807
01/31/2014  05:43:00      -83.065       82.656       -8.310       52.578       68.416       34.875     2764.468     4680.764     1216.237        1.123        0.433      117.182       25.095        0.046      332.199        0.706      855.809
01/31/2014  05:44:00      -84.280       20.742       -7.943       35.942       75.080       23.893     1291.841     5637.040      570.890        0.755        0.375       86.795       25.447        0.086      332.239        0.772      855.818
01/31/2014  05:45:00     -120.154       11.655       -2.426       64.864       39.760       39.779     4207.275     1580.830     1582.380        1.097        0.369      120.718       38.780        0.103      332.199        0.707      855.844
01/31/2014  05:46:00     -118.993       18.991      -24.278       38.123       45.095       26.931     1453.385     2033.602      725.302        0.966        0.211      120.499       15.971        0.018      332.215        0.734      855.853
01/31/2014  05:47:00     -101.557       64.133      -15.616       71.740       46.534       41.294     5146.654     2165.432     1705.218        1.184        0.451      120.112       34.861        0.084      332.168        0.654      855.856
01/31/2014  05:48:00      -40.617       -5.486       -2.494       56.019       46.669       29.537     3138.149     2177.998      872.408        0.394        0.309       40.985       25.546        0.388      332.183        0.681      855.838
01/31/2014  05:49:00      -69.056      -14.086       -8.523       46.140       34.299       27.205     2128.909     1176.422      740.087        0.454        0.202       70.478       27.401        0.151      332.146        0.620      855.833
01/31/2014  05:50:00      -50.931       -3.439      -10.256       52.505       29.265       18.683     2756.805      856.432      349.051        0.334        0.198       51.047       15.106        0.088      332.120        0.575      855.834
01/31/2014  05:51:00      -42.394       36.519       -4.817       60.914       51.207       30.651     3710.573     2622.198      939.508        0.521        0.364       55.955       21.236        0.144      332.145        0.618      855.856
01/31/2014  05:52:00      -55.934       81.306      -19.182       45.479       49.911       39.829     2068.358     2491.117     1586.359        0.813        0.307       98.688       33.545        0.116      332.199        0.707      855.875
01/31/2014  05:53:00      -63.787       70.539       -2.276       38.578       49.015       28.020     1488.276     2402.478      785.135        0.686        0.234       95.102       18.658        0.038      332.173        0.664      855.892
01/31/2014  05:54:00      -74.341      154.091      -21.285       66.126       74.214       39.330     4372.701     5507.668     1546.862        2.057        0.571      171.087       44.439        0.067      332.156        0.634      855.903
01/31/2014  05:55:00      -59.683      117.398      -14.239       44.765       55.206       33.059     2003.903     3047.740     1092.867        1.184        0.307      131.698       26.619        0.041      332.218        0.737      855.901
01/31/2014  05:56:00     -101.076      163.595      -19.680       54.099       60.247       38.959     2926.668     3629.743     1517.793        2.272        0.404      192.301       28.195        0.021      332.138        0.604      855.904
01/31/2014  05:57:00      -78.592      118.827      -22.594       45.269       50.574       29.131     2049.291     2557.689      848.635        1.313        0.273      142.466       23.817        0.028      332.158        0.638      855.914
01/31/2014  05:58:00      -13.206       96.637        0.710       67.881       72.164       45.822     4607.807     5207.644     2099.699        1.071        0.596       97.535       33.659        0.119      332.200        0.708      855.927
01/31/2014  05:59:00      -82.577      160.843      -25.088       59.331       91.184       36.721     3520.225     8314.475     1348.467        2.325        0.659      180.802       33.536        0.034      332.198        0.703      855.939
01/31/2014  06:00:00      -38.607       79.680        8.378       57.982       86.848       41.147     3361.962     7542.539     1693.063        1.025        0.630       88.541       42.547        0.231      332.144        0.615      855.968
01/31/2014  06:01:00       -5.942      144.422       -4.655       28.891       64.281       32.551      834.680     4132.041     1059.573        1.347        0.301      144.544       28.072        0.038      332.147        0.620      855.989
01/31/2014  06:02:00      -48.454      129.521       -5.250       52.130       71.063       32.668     2717.556     5049.896     1067.180        1.399        0.442      138.288       16.849        0.015      332.172        0.661      856.010
01/31/2014  06:03:00      -18.721       64.080        4.635       57.068       52.353       36.910     3256.701     2740.876     1362.358        0.592        0.368       66.759       30.737        0.212      332.188        0.688      856.029
01/31/2014  06:04:00      -15.759       60.751        7.118       39.735       49.737       25.361     1578.857     2473.778      643.169        0.434        0.235       62.761       22.324        0.127      332.174        0.666      856.049
01/31/2014  06:05:00      -33.812      118.418       -6.242       69.335       92.581       37.300     4807.323     8571.291     1391.265        1.499        0.738      123.151       37.277        0.092      332.186        0.683      856.055
01/31/2014  06:06:00      -46.966      169.830       -4.497       51.221       97.997       45.613     2623.553     9603.428     2080.530        2.269        0.715      176.204       40.710        0.053      332.092        0.527      856.054
01/31/2014  06:07:00      -42.357      143.977      -18.219       53.486       46.664       30.499     2860.744     2177.498      930.204        1.441        0.298      150.078       20.972        0.020      332.118        0.574      856.068
01/31/2014  06:08:00       -7.007      126.475        4.882       50.651       77.865       39.725     2565.524     6062.904     1578.069        1.314        0.510      126.669       34.631        0.075      332.066        0.486      856.074
01/31/2014  06:09:00      -28.091       69.624        9.201       28.969       46.018       28.082      839.184     2117.614      788.613        0.473        0.187       75.077       20.646        0.076      332.100        0.544      856.102
01/31/2014  06:10:00      -11.235      196.999      -28.198       43.342       78.909       29.735     1878.557     6226.672      884.144        2.436        0.449      197.319       12.948        0.004      332.017        0.402      856.129
01/31/2014  06:11:00       -4.984       29.250        5.359       30.522       33.633       22.313      931.575     1131.165      497.891        0.173        0.128       29.672       14.902        0.252      332.051        0.462      856.156
01/31/2014  06:12:00        3.430      -11.656      -11.218       15.207       14.003        9.673      231.268      196.086       93.572        0.040        0.026       12.150        4.993        0.169      332.101        0.545      856.187
01/31/2014  06:13:00      -26.154       -5.162      -18.435       48.353       29.299       29.990     2338.023      858.413      899.389        0.257        0.205       26.659       20.697        0.603      332.096        0.537      856.214
01/31/2014  06:14:00        6.247       37.698        5.547       30.341       36.584       25.864      920.581     1338.403      668.953        0.221        0.146       38.212       17.895        0.219      332.076        0.504      856.238
01/31/2014  06:15:00      -32.848       -1.130       18.985       34.457       31.677       32.818     1187.270     1003.455     1077.051        0.235        0.163       32.868       23.024        0.491      332.079        0.508      856.272
01/31/2014  06:16:00      -60.581      121.845      -19.991       51.150       68.811       40.742     2616.286     4734.906     1659.929        1.396        0.451      136.075       32.897        0.058      331.980        0.345      856.292
01/31/2014  06:17:00      -32.959      100.636      -12.600       44.475       58.158       27.567     1978.011     3382.368      759.922        0.875        0.306      105.896       26.691        0.064      332.057        0.473      856.298
01/31/2014  06:18:00      -62.816      125.509       -6.667       58.624       88.346       36.741     3436.740     7804.997     1349.931        1.617        0.630      140.350       42.974        0.094      332.018        0.408      856.304
01/31/2014  06:19:00      -66.234       48.175        6.800      104.103       51.823       33.046    10837.401     2685.618     1092.032        1.068        0.731       81.900       18.742        0.052      332.009        0.392      856.286
01/31/2014  06:20:00      -16.492       50.175        0.019       55.112       56.888       30.071     3037.386     3236.283      904.271        0.498        0.359       52.816       34.742        0.433      332.019        0.408      856.269
01/31/2014  06:21:00     -112.027      140.997      -30.119       56.688       80.134       33.317     3213.551     6421.389     1110.036        2.204        0.537      180.084       35.704        0.039      331.912        0.232      856.273
01/31/2014  06:22:00      -64.133      206.573      -20.371       62.231      103.962       44.527     3872.665    10808.154     1982.674        3.193        0.833      216.299       49.320        0.052      331.926        0.255      856.261
01/31/2014  06:23:00      -38.135       62.277       -4.341       56.948       43.624       25.587     3243.124     1903.075      654.704        0.558        0.290       73.025       21.900        0.090      332.048        0.459      856.260
01/31/2014  06:24:00      -19.517       10.768       -2.362       55.330       66.030       30.362     3061.406     4360.026      921.855        0.442        0.417       22.291       18.199        0.667      331.968        0.325      856.248
01/31/2014  06:25:00     -111.901      111.199      -14.504       68.275      118.317       41.199     4661.440    13998.975     1697.379        2.272        1.018      157.756       37.669        0.057      331.907        0.223      856.223
01/31/2014  06:26:00      -56.007       55.484      -10.059       55.283       91.431       31.708     3056.204     8359.713     1005.416        0.937        0.621       78.837       16.993        0.046      331.880        0.180      856.205
01/31/2014  06:27:00     -128.647      129.603      -18.917       66.758       73.468       40.176     4456.662     5397.510     1614.112        2.258        0.573      182.612       32.777        0.032      331.886        0.190      856.182
01/31/2014  06:28:00      -73.591       40.156      -16.064       62.833       52.229       34.092     3948.007     2727.881     1162.235        0.756        0.392       83.834       35.801        0.182      331.885        0.188      856.173
01/31/2014  06:29:00      -40.816       83.109       -7.199       29.410       52.208       27.700      864.963     2725.717      767.269        0.649        0.218       92.591       18.839        0.041      331.966        0.321      856.163
01/31/2014  06:30:00      -41.072      131.055       -4.589       44.956       79.563       38.170     2021.054     6330.293     1456.924        1.434        0.490      137.340       34.779        0.064      331.959        0.311      856.153
01/31/2014  06:31:00      -78.017      101.416       -1.193       52.783       65.774       46.678     2785.993     4326.262     2178.872        1.283        0.465      127.953       39.467        0.095      331.945        0.289      856.155
01/31/2014  06:32:00     -157.844      184.143      -25.048       91.113      106.231       62.735     8301.556    11285.090     3935.650        4.148        1.176      242.536       50.464        0.043      331.891        0.197      856.161
01/31/2014  06:33:00     -132.032      160.847      -35.529       69.217       97.528       41.672     4790.957     9511.762     1736.564        3.030        0.802      208.097       40.477        0.038      331.913        0.233      856.165
01/31/2014  06:34:00      -79.033       95.791       -8.096       50.263       93.909       36.058     2526.416     8818.885     1300.164        1.406        0.632      124.186       32.544        0.069      331.954        0.300      856.184
01/31/2014  06:35:00      -78.100       51.054      -15.316       64.475       91.855       47.401     4157.029     8437.267     2246.828        1.189        0.742       93.306       40.132        0.185      331.912        0.232      856.201
01/31/2014  06:36:00     -124.868      114.419      -14.090       71.670       92.201       38.787     5136.630     8500.968     1504.438        2.201        0.757      169.363       33.175        0.038      331.903        0.218      856.229
01/31/2014  06:37:00     -112.463      110.069      -20.663       82.151       86.789       44.588     6748.817     7532.357     1988.113        2.073        0.813      157.363       54.133        0.118      331.860        0.147      856.240
01/31/2014  06:38:00     -108.197       85.400      -12.390       63.708       61.533       37.216     4058.684     3786.318     1385.003        1.419        0.462      137.839       33.475        0.059      331.883        0.185      856.245
01/31/2014  06:39:00     -174.500       25.567      -28.200       44.073       45.443       30.499     1942.415     2065.096      930.207        1.842        0.247      176.363       18.796        0.011      331.872        0.167      856.257
01/31/2014  06:40:00      -37.764       89.179       -7.605       59.827       85.396       39.981     3579.288     7292.530     1598.477        1.095        0.624       96.845       32.910        0.115      331.875        0.172      856.261
01/31/2014  06:41:00     -123.152      118.042      -38.041       66.190       68.381       42.419     4381.153     4675.911     1799.337        2.070        0.543      170.588       26.598        0.024      331.846        0.123      856.273
01/31/2014  06:42:00     -153.279       74.402      -24.701       52.632       42.400       35.489     2770.142     1797.740     1259.490        1.773        0.291      170.383       30.204        0.031      331.855        0.139      856.283
01/31/2014  06:43:00      -58.538       70.163      -11.553       67.528       53.494       29.251     4560.058     2861.567      855.641        0.838        0.414       91.375       27.369        0.090      331.942        0.282      856.297
01/31/2014  06:44:00      -51.930       74.971      -23.504       45.694       44.875       27.571     2087.926     2013.809      760.178        0.687        0.243       91.200       25.185        0.076      331.821        0.084      856.305
01/31/2014  06:45:00      -60.843      115.826      -17.029       73.782       58.085       39.166     5443.855     3373.916     1534.015        1.388        0.518      130.834       32.337        0.061      331.883        0.185      856.321
01/31/2014  06:46:00       -4.055      155.383      -27.681       29.587       56.888       26.860      875.373     3236.298      721.475        1.488        0.242      155.436       15.801        0.010      331.851        0.131      856.325
01/31/2014  06:47:00      -12.531      156.739      -10.096       48.601       68.984       35.568     2362.038     4758.738     1265.088        1.660        0.419      157.240       36.086        0.053      331.816        0.072      856.330
01/31/2014  06:48:00       -2.273      111.933        6.632       35.753       86.248       44.178     1278.260     7438.685     1951.683        1.162        0.533      111.956       48.776        0.190      331.889        0.196      856.324
01/31/2014  06:49:00       -2.054      164.075      -14.918       47.488      101.759       39.951     2255.130    10354.918     1596.100        2.067        0.710      164.088       52.158        0.101      331.931        0.262      856.311
01/31/2014  06:50:00      -58.222      112.713        0.745       47.879       78.524       40.445     2292.368     6166.018     1635.774        1.309        0.505      126.863       38.109        0.090      331.994        0.369      856.318
01/31/2014  06:51:00      -47.272       33.000        4.847       43.677       64.502       30.227     1907.720     4160.461      913.689        0.516        0.349       57.651       28.909        0.251      331.935        0.271      856.334
01/31/2014  06:52:00      -13.196       94.032       -5.708       54.154      119.253       40.687     2932.622    14221.189     1655.415        1.393        0.940       94.953       55.324        0.339      331.893        0.201      856.367
01/31/2014  06:53:00     -178.910      174.329      -36.568      107.003       98.004       49.369    11449.666     9604.721     2437.250        4.361        1.175      249.798       57.014        0.052      331.794        0.036      856.394
01/31/2014  06:54:00      -73.686       44.903        5.759       84.165       79.561       41.941     7083.778     6330.016     1759.078        1.132        0.759       86.290       36.737        0.181      331.780        0.016      856.419
01/31/2014  06:55:00     -143.398       22.674       -2.526      113.965       77.256       50.092    12988.128     5968.554     2509.179        2.127        1.073      145.180       49.646        0.117      331.819        0.077      856.433
01/31/2014  06:56:00     -114.700      121.400      -21.989       76.409       87.313       44.570     5838.293     7623.531     1986.515        2.191        0.772      167.015       36.467        0.048      331.772        0.000      856.462
01/31/2014  06:57:00     -112.313       99.431      -19.389       76.284       50.588       41.843     5819.312     2559.147     1750.808        1.650        0.506      150.003       39.004        0.068      331.788        0.027      856.473
01/31/2014  06:58:00     -121.546       71.118      -18.679       61.362       63.381       35.654     3765.304     4017.112     1271.183        1.462        0.453      140.823       26.313        0.035      331.746       -0.040      856.483
01/31/2014  06:59:00      -98.270       21.185       -8.703       66.195       38.876       33.276     4381.802     1511.312     1107.262        0.859        0.350      100.528       33.315        0.110      331.779        0.014      856.513
01/31/2014  07:00:00      -55.105       61.446       -4.712       36.960       73.679       34.980     1366.025     5428.583     1223.567        0.742        0.401       82.535       37.206        0.203      331.749       -0.035      856.526
01/31/2014  07:01:00      -65.006       93.990       12.662       98.827       92.864       66.202     9766.818     8623.734     4382.712        1.799        1.139      114.279       59.435        0.270      331.815        0.072      856.532
01/31/2014  07:02:00     -101.225        6.818      -12.434       40.453       65.943       37.244     1636.475     4348.542     1387.129        0.891        0.369      101.454       30.031        0.088      331.846        0.124      856.556
01/31/2014  07:03:00      -94.634      183.069      -19.589       70.926       86.418       52.612     5030.463     7468.084     2768.058        2.906        0.763      206.082       39.672        0.037      331.742       -0.049      856.565
01/31/2014  07:04:00      -78.376       25.447       -7.838       61.420       50.561       33.298     3772.426     2556.449     1108.748        0.714        0.372       82.404       34.490        0.175      331.804        0.057      856.574
01/31/2014  07:05:00      -68.634       33.471       -0.258       58.662       49.955       32.510     3441.203     2495.490     1056.917        0.641        0.350       76.361       29.909        0.153      331.747       -0.037      856.592
01/31/2014  07:06:00      -60.007      104.883       -9.512       64.385       81.753       37.449     4145.447     6683.608     1402.446        1.346        0.612      120.836       37.181        0.095      331.744       -0.043      856.607
01/31/2014  07:07:00     -130.561      138.029      -31.706       68.477       77.155       36.374     4689.089     5952.919     1323.050        2.453        0.598      189.995       37.185        0.038      331.693       -0.129      856.614
01/31/2014  07:08:00      -81.125       53.653       -7.758       41.972       52.919       31.778     1761.608     2800.436     1009.840        0.755        0.279       97.262       29.991        0.095      331.755       -0.026      856.618
01/31/2014  07:09:00      -42.181       39.912       -6.086       32.042       32.796       25.191     1026.700     1075.610      634.581        0.307        0.137       58.070       19.539        0.113      331.801        0.050      856.624
01/31/2014  07:10:00      -53.678      107.901      -16.179       43.506       66.447       31.345     1892.785     4415.155      982.515        1.104        0.365      120.515       27.854        0.053      331.774        0.006      856.633
01/31/2014  07:11:00     -132.188      113.883      -32.276       64.256       97.331       37.415     4128.894     9473.277     1399.853        2.324        0.750      174.479       48.144        0.076      331.654       -0.193      856.645
01/31/2014  07:12:00      -54.068      126.321      -15.989       51.582       62.680       40.564     2660.736     3928.816     1645.462        1.368        0.412      137.406       19.123        0.019      331.670       -0.166      856.652
01/31/2014  07:13:00     -127.947      113.222      -23.639       61.254       73.641       43.425     3752.104     5422.931     1885.698        2.040        0.553      170.850       35.175        0.042      331.611       -0.264      856.661
01/31/2014  07:14:00      -96.521       29.952       -3.484       64.012       46.593       35.323     4097.576     2170.874     1247.714        0.887        0.376      101.062       35.426        0.123      331.620       -0.248      856.675
01/31/2014  07:15:00     -139.259      123.039      -22.996       89.185       98.922       44.349     7954.053     9785.606     1966.859        2.738        0.985      185.827       44.120        0.056      331.546       -0.371      856.680
01/31/2014  07:16:00     -159.723      103.890      -30.639       76.228       89.193       42.910     5810.742     7955.406     1841.234        2.642        0.780      190.537       31.355        0.027      331.564       -0.343      856.675
01/31/2014  07:17:00      -90.080       67.391      -18.582       33.832       56.470       22.955     1144.600     3188.817      526.912        0.893        0.243      112.499       17.125        0.023      331.599       -0.282      856.675
01/31/2014  07:18:00      -75.181       -5.492      -11.794       42.240       59.301       23.430     1784.226     3516.635      548.947        0.583        0.292       75.381       16.884        0.050      331.639       -0.215      856.672
01/31/2014  07:19:00     -119.775      -99.303       -6.758       75.838       60.073       36.028     5751.400     3608.756     1298.034        1.745        0.533      155.587       34.362        0.049      331.588       -0.302      856.685
01/31/2014  07:20:00     -102.573      -11.480        0.804       87.566       75.563       49.550     7667.868     5709.806     2455.174        1.324        0.792      103.213       37.498        0.132      331.558       -0.350      856.699
01/31/2014  07:21:00     -125.333      -44.346        6.056       75.225       83.857       37.133     5658.821     7032.076     1378.873        1.589        0.703      132.947       31.107        0.055      331.593       -0.293      856.722
01/31/2014  07:22:00     -154.151      -51.529       -2.906       91.947       57.414       36.509     8454.268     3296.327     1332.915        1.975        0.654      162.535       38.931        0.057      331.522       -0.410      856.753
01/31/2014  07:23:00      -98.414      -11.801       -1.031       62.527       44.002       34.342     3909.584     1936.173     1179.378        0.842        0.351       99.119       35.442        0.128      331.536       -0.387      856.767
01/31/2014  07:24:00     -131.906      -19.778       -0.961       73.778       52.739       30.998     5443.168     2781.414      960.863        1.349        0.459      133.380       27.180        0.042      331.487       -0.468      856.768
01/31/2014  07:25:00     -140.087      -12.295       -4.279       37.486       71.410       29.519     1405.207     5099.395      871.369        1.358        0.369      140.625       15.627        0.012      331.502       -0.442      856.774
01/31/2014  07:26:00     -113.213      -53.050       -0.791       66.394       56.954       37.405     4408.168     3243.739     1399.137        1.234        0.453      125.026       42.810        0.117      331.530       -0.397      856.778
01/31/2014  07:27:00      -85.356      -58.606       13.314       81.427       51.733       33.350     6630.397     2676.342     1112.225        1.066        0.521      103.539       43.992        0.181      331.585       -0.304      856.787
01/31/2014  07:28:00      -73.900      -40.070        2.105       75.599       51.368       37.245     5715.153     2638.635     1387.213        0.840        0.487       84.064       25.550        0.092      331.596       -0.287      856.804
01/31/2014  07:29:00     -174.424      -45.934       -9.530       71.482       75.106       41.713     5109.738     5640.853     1740.001        2.256        0.625      180.371       39.467        0.048      331.580       -0.314      856.827
01/31/2014  07:30:00     -150.522      -34.710       -5.804       78.967       67.888       39.846     6235.776     4608.794     1587.736        1.816        0.622      154.472       43.202        0.078      331.600       -0.282      856.841
01/31/2014  07:31:00     -192.818       34.787      -13.834       71.848       53.641       38.212     5162.127     2877.308     1460.125        2.404        0.475      195.931       31.667        0.026      331.609       -0.268      856.843
01/31/2014  07:32:00     -163.014       -4.260       -9.921       70.782       70.196       34.050     5010.035     4927.528     1159.397        1.889        0.555      163.069       26.657        0.027      331.608       -0.269      856.844
01/31/2014  07:33:00     -160.717      -23.109       -1.231       49.096       43.943       28.547     2410.436     1930.950      814.927        1.576        0.258      162.370       27.059        0.028      331.664       -0.176      856.834
01/31/2014  07:34:00      -99.300      -55.889      -11.393       71.157       42.598       29.592     5063.288     1814.614      875.678        1.043        0.388      113.948       24.990        0.048      331.753       -0.027      856.821
01/31/2014  07:35:00     -208.551      -87.721       -6.131       92.554      110.315       45.595     8566.223    12169.496     2078.912        3.702        1.141      226.249       41.470        0.034      331.777        0.010      856.830
01/31/2014  07:36:00     -166.491      -87.542        0.553      116.465      102.339       50.801    13564.043    10473.344     2580.700        3.100        1.331      188.103       57.895        0.095      331.761       -0.016      856.827
01/31/2014  07:37:00      -70.052      -36.084        7.863       73.783       39.539       32.339     5443.888     1563.314     1045.828        0.716        0.403       78.800       33.144        0.177      331.822        0.084      856.847
01/31/2014  07:38:00     -139.733      -56.340       -8.820       76.321       54.015       29.790     5824.957     2917.663      887.468        1.620        0.482      150.663       28.607        0.036      331.772        0.001      856.848
01/31/2014  07:39:00      -78.395      -48.337        7.333       88.966       66.448       47.175     7914.980     4415.365     2225.469        1.154        0.728       92.100       51.714        0.315      331.883        0.184      856.853
01/31/2014  07:40:00     -191.068      -95.784       -5.074      106.504       78.198       42.777    11343.154     6114.876     1829.895        3.249        0.964      213.733       39.567        0.034      331.820        0.079      856.863
01/31/2014  07:41:00     -281.121      -24.262      -18.243       81.614       79.711       49.503     6660.893     6353.842     2450.552        4.771        0.773      282.166       40.656        0.021      331.700       -0.117      856.877
01/31/2014  07:42:00     -200.695     -120.885      -23.769      127.970      105.296       51.239    16376.266    11087.147     2625.427        4.277        1.504      234.290       42.341        0.033      331.772       -0.000      856.885
01/31/2014  07:43:00     -278.547     -119.852      -24.607       98.157       67.073       39.665     9634.706     4498.793     1573.273        5.413        0.785      303.237       38.047        0.016      331.742       -0.051      856.892
01/31/2014  07:44:00     -106.390      -93.218        7.051       95.867       75.789       50.618     9190.541     5743.940     2562.145        1.877        0.875      141.451       58.101        0.169      331.882        0.183      856.905
01/31/2014  07:45:00      -63.978      -89.295       13.162       98.059       75.553       50.975     9615.550     5708.326     2598.405        1.508        0.896      109.849       56.020        0.260      331.878        0.176      856.921
01/31/2014  07:46:00        1.392       -4.434       27.679       34.597       49.065       28.465     1196.946     2407.377      810.248        0.260        0.221        4.648       27.471       34.937      331.935        0.271      856.931
01/31/2014  07:47:00      -87.690      -21.196        4.153       90.597       57.966       43.640     8207.894     3360.049     1904.441        1.081        0.674       90.216       44.919        0.248      331.920        0.246      856.937
01/31/2014  07:48:00     -213.854      -25.060      -25.099       54.869       50.693       34.489     3010.661     2569.752     1189.505        2.688        0.338      215.318       24.422        0.013      331.783        0.019      856.939
01/31/2014  07:49:00     -168.734      -41.506       -4.560       65.018       84.592       37.449     4227.286     7155.730     1402.453        2.150        0.639      173.764       25.483        0.022      331.786        0.024      856.943
01/31/2014  07:50:00     -259.758      -99.539       -8.598       86.492       84.230       50.739     7480.893     7094.716     2574.406        4.730        0.858      278.177       34.467        0.015      331.625       -0.243      856.943
01/31/2014  07:51:00     -103.199      -24.696       12.509       67.630       55.804       36.753     4573.810     3114.136     1350.807        1.023        0.452      106.113       41.727        0.155      331.713       -0.094      856.965
01/31/2014  07:52:00     -180.816        8.237      -12.715       55.276       45.061       27.219     3055.431     2030.516      740.894        1.937        0.291      181.004       29.347        0.026      331.695       -0.123      856.977
01/31/2014  07:53:00     -149.889      -63.640       -6.325       54.182       66.830       37.015     2935.711     4466.184     1370.116        1.766        0.439      162.840       28.745        0.031      331.710       -0.101      856.992
01/31/2014  07:54:00      -61.676      -69.912       -0.451       57.918       44.846       29.458     3354.527     2011.146      867.767        0.746        0.312       93.229       27.660        0.088      331.742       -0.046      856.998
01/31/2014  07:55:00      -32.294      -20.606       11.209       44.775       30.033       30.836     2004.767      902.004      950.880        0.272        0.193       38.308       31.296        0.667      331.821        0.084      856.996
01/31/2014  07:56:00      -66.961      -67.808        9.093       52.801       50.128       29.850     2787.919     2512.827      890.997        0.768        0.310       95.297       23.456        0.061      331.749       -0.035      857.001
01/31/2014  07:57:00     -123.685      -59.683      -11.739       52.333       65.407       30.316     2738.755     4278.029      919.053        1.347        0.397      137.332       28.125        0.042      331.764       -0.011      857.013
01/31/2014  07:58:00     -124.058      -53.804       -6.398       62.032       40.806       31.756     3847.950     1665.160     1008.448        1.242        0.326      135.223       34.737        0.066      331.804        0.056      857.014
01/31/2014  07:59:00      -56.922      -25.835       -5.526       33.099       38.402       24.702     1095.526     1474.751      610.209        0.356        0.159       62.510       24.612        0.155      331.748       -0.036      857.015
01/31/2014  08:00:00      -28.039      -20.312        3.633       10.001       17.049       14.040      100.013      290.663      197.118        0.090        0.029       34.623        8.154        0.055      331.867        0.158      857.022
01/31/2014  08:01:00       -9.703        0.651       17.916       17.848       18.021       10.192      318.534      324.768      103.879        0.058        0.037        9.725        8.680        0.797      332.006        0.387      857.025
01/31/2014  08:02:00       38.012       16.227       23.877       33.890       25.477       14.552     1148.509      649.082      211.754        0.214        0.100       41.331       12.979        0.099      331.983        0.349      857.032
01/31/2014  08:03:00       92.370       54.976       21.273       28.918       26.541       26.492      836.276      704.408      701.842        0.712        0.112      107.492        7.792        0.005      331.805        0.057      857.043
01/31/2014  08:04:00       80.813       55.423        5.192       27.246       25.300       25.774      742.317      640.111      664.289        0.584        0.102       97.992       14.687        0.022      331.787        0.027      857.076
01/31/2014  08:05:00       68.490       34.270       14.089       39.260       25.589       27.961     1541.313      654.810      781.819        0.452        0.149       76.585       18.808        0.060      331.854        0.137      857.096
01/31/2014  08:06:00       55.600       33.269       11.423       43.117       33.754       33.039     1859.034     1139.325     1091.588        0.421        0.204       64.794       29.772        0.211      331.871        0.165      857.112
01/31/2014  08:07:00      100.837       59.136       10.361       36.028       33.176       26.352     1298.016     1100.638      694.449        0.843        0.155      116.898       16.512        0.020      331.870        0.163      857.130
01/31/2014  08:08:00       64.844      147.533      -14.736       57.755      106.207       44.334     3335.608    11279.952     1965.464        2.138        0.829      161.154       59.822        0.138      331.782        0.017      857.139
01/31/2014  08:09:00       32.174       60.842       -1.386       41.377       52.327       28.443     1712.023     2738.145      808.991        0.500        0.263       68.825       31.081        0.204      331.864        0.154      857.165
01/31/2014  08:10:00       36.236       43.861       37.846       20.569       19.973       14.932      423.094      398.933      222.964        0.286        0.052       56.894        7.774        0.019      331.950        0.297      857.180
01/31/2014  08:11:00       18.995       10.749       10.599       26.177       20.875       23.323      685.236      435.772      543.947        0.113        0.083       21.825        5.945        0.074      331.976        0.340      857.198
01/31/2014  08:12:00       35.852       59.456        8.377       48.606       69.938       31.630     2362.524     4891.284     1000.484        0.657        0.413       69.428       33.103        0.227      331.845        0.123      857.227
01/31/2014  08:13:00       14.507      120.327       -8.182       48.912       78.609       39.164     2392.368     6179.374     1533.781        1.243        0.505      121.198       48.106        0.158      331.843        0.120      857.233
01/31/2014  08:14:00      -19.057      120.141      -15.064       30.767       49.264       26.248      946.603     2426.920      688.977        0.954        0.203      121.643       26.622        0.048      331.826        0.092      857.242
01/31/2014  08:15:00       22.625       22.250       -2.104       20.900       16.374       16.737      436.795      268.103      280.116        0.100        0.049       31.733       14.815        0.218      331.959        0.312      857.237
01/31/2014  08:16:00       28.448       10.135       11.591       21.515       18.914       19.766      462.895      357.731      390.695        0.113        0.061       30.200        7.845        0.067      331.977        0.340      857.253
01/31/2014  08:17:00       31.797        6.215       13.456       17.655       18.862       15.527      311.696      355.771      241.103        0.107        0.045       32.399       11.332        0.122      332.004        0.385      857.268
01/31/2014  08:18:00       38.624       20.128       19.249       41.867       33.795       31.662     1752.815     1142.129     1002.466        0.308        0.195       43.554       26.034        0.357      332.056        0.471      857.273
01/31/2014  08:19:00      -87.471       51.634       -9.127       60.391       58.346       35.399     3647.123     3404.309     1253.079        0.935        0.415      101.574       36.095        0.126      331.943        0.283      857.306
01/31/2014  08:20:00      -85.399       30.352      -19.615       58.157       42.227       28.057     3382.204     1783.105      787.207        0.727        0.298       90.632        7.404        0.007      331.859        0.147      857.306
01/31/2014  08:21:00      -15.859        3.114        7.286       49.453       40.599       30.197     2445.564     1648.277      911.854        0.266        0.250       16.161       33.064        4.186      331.982        0.348      857.307
01/31/2014  08:22:00        9.242       30.959       36.325       24.036       26.731       14.466      577.707      714.548      209.267        0.193        0.075       32.309        8.941        0.077      332.068        0.492      857.313
01/31/2014  08:23:00      -17.911      -25.481       -5.475       30.585       27.038       17.200      935.434      731.064      295.854        0.148        0.098       31.146       18.319        0.346      332.076        0.504      857.315
01/31/2014  08:24:00        8.986      -74.247      -13.802       26.612       22.997       15.282      708.184      528.841      233.526        0.363        0.074       74.789        9.472        0.016      332.098        0.539      857.330
01/31/2014  08:25:00        8.999      -38.248        0.556       14.432       24.538       18.773      208.281      602.129      352.435        0.135        0.058       39.292       13.133        0.112      332.161        0.643      857.338
01/31/2014  08:26:00       -2.145      -17.558        7.767       18.341       25.385       15.723      336.381      644.418      247.222        0.080        0.061       17.689       15.491        0.767      332.160        0.642      857.362
01/31/2014  08:27:00      -37.777      -39.969        5.101       31.278       28.936       19.740      978.338      837.297      389.683        0.263        0.110       54.997       14.903        0.073      332.024        0.417      857.390
01/31/2014  08:28:00      -10.285       10.324       21.514       38.146       31.738       16.149     1455.095     1007.325      260.777        0.170        0.136       14.573       17.488        1.440      332.166        0.651      857.421
01/31/2014  08:29:00      -56.184      -23.122        3.856       30.504       29.139       23.353      930.482      849.072      545.376        0.302        0.116       60.756       16.079        0.070      332.135        0.601      857.448
01/31/2014  08:30:00      -77.617      -48.994       -9.730       30.235       21.042       17.079      914.129      442.750      291.685        0.508        0.082       91.787        7.981        0.008      331.932        0.266      857.470
01/31/2014  08:31:00     -110.155      -29.586        8.813       39.744       34.988       23.187     1579.578     1224.126      537.645        0.821        0.167      114.059       21.992        0.037      331.835        0.107      857.502
01/31/2014  08:32:00      -84.875      -42.778       -1.078       36.801       28.900       16.215     1354.315      835.182      262.941        0.574        0.123       95.046       14.861        0.024      331.840        0.115      857.515
01/31/2014  08:33:00      -46.454       -3.837        9.992       58.367       33.593       25.881     3406.720     1128.477      669.835        0.374        0.260       46.612       22.837        0.240      332.056        0.471      857.531
01/31/2014  08:34:00     -107.161       -0.457      -12.254       69.433       74.399       39.980     4820.945     5535.223     1598.389        1.179        0.598      107.162       43.733        0.167      331.931        0.264      857.551
01/31/2014  08:35:00     -194.136      -33.375      -15.462       88.483       49.842       34.125     7829.294     2484.192     1164.486        2.526        0.574      196.984       43.339        0.048      331.806        0.056      857.566
01/31/2014  08:36:00     -176.318      -14.955      -29.305       36.577       29.055       19.228     1337.844      844.213      369.712        1.736        0.128      176.951       17.448        0.010      331.752       -0.031      857.592
01/31/2014  08:37:00     -135.041       50.760      -18.163       37.616       29.958       23.827     1414.986      897.457      567.726        1.201        0.144      144.266       17.388        0.015      331.736       -0.056      857.610
01/31/2014  08:38:00      -36.541       67.072       -1.355       37.273       42.018       29.848     1389.288     1765.486      890.888        0.494        0.202       76.380       31.025        0.165      331.967        0.324      857.623
01/31/2014  08:39:00      -44.276       66.017      -10.046       28.229       39.386       25.228      796.863     1551.224      636.475        0.470        0.149       79.490       26.419        0.110      331.913        0.234      857.620
01/31/2014  08:40:00        1.883       54.965       -0.082       19.027       46.752       21.565      362.016     2185.767      465.030        0.302        0.151       54.997       28.066        0.260      332.057        0.472      857.628
01/31/2014  08:41:00       -5.744      132.618      -13.576       12.993       21.826       12.804      168.827      476.362      163.951        0.931        0.040      132.742        7.763        0.003      331.814        0.071      857.631
01/31/2014  08:42:00       26.679       85.635       -8.357       33.441       38.440       23.183     1118.324     1477.602      537.462        0.562        0.157       89.694       18.428        0.042      331.918        0.243      857.643
01/31/2014  08:43:00       51.315       33.045       -4.060       23.721       28.946       18.669      562.688      837.873      348.519        0.275        0.087       61.035       18.605        0.093      331.935        0.271      857.653
01/31/2014  08:44:00       49.311       35.603        3.155       34.388       25.608       26.255     1182.568      655.795      689.349        0.312        0.126       60.821       13.988        0.053      332.089        0.524      857.656
01/31/2014  08:45:00       19.973       35.414        0.365       18.057       22.680       14.172      326.052      514.361      200.856        0.135        0.052       40.658        9.616        0.056      332.070        0.493      857.673
01/31/2014  08:46:00       27.054       35.200       15.070       24.604       26.492       17.745      605.375      701.849      314.879        0.191        0.081       44.396       11.387        0.066      332.197        0.703      857.676
01/31/2014  08:47:00        6.508       -6.555       18.135       16.644       21.561       15.186      277.020      464.871      230.620        0.069        0.049        9.237       10.656        1.331      332.304        0.881      857.681
01/31/2014  08:48:00       19.800       26.249       33.859       16.504       23.317       10.447      272.384      543.680      109.149        0.158        0.046       32.879        4.500        0.019      332.179        0.673      857.680
01/31/2014  08:49:00        3.813       20.264       34.088       16.578       21.298       10.180      274.831      453.626      103.640        0.121        0.042       20.619        7.973        0.150      332.228        0.754      857.672
01/31/2014  08:50:00       18.257        3.120       23.908       12.218       17.757       14.706      149.272      315.323      216.260        0.080        0.034       18.521       10.802        0.340      332.178        0.673      857.659
01/31/2014  08:51:00       -8.637       -7.680       -5.993       20.810       12.769       10.862      433.058      163.049      117.987        0.044        0.036       11.558        3.960        0.117      332.143        0.614      857.644
01/31/2014  08:52:00      -72.278       -6.513       -7.566       10.902       14.247       11.808      118.846      202.979      139.419        0.289        0.023       72.570        6.010        0.007      332.072        0.496      857.639
01/31/2014  08:53:00      -92.001      -20.118      -10.778       23.999       21.329       14.475      575.971      454.906      209.540        0.511        0.062       94.175        7.876        0.007      332.131        0.596      857.616
01/31/2014  08:54:00     -102.459        0.806       -2.343       43.844       45.423       28.678     1922.298     2063.215      822.437        0.766        0.240      102.462       25.428        0.062      332.218        0.739      857.614
01/31/2014  08:55:00      -91.679       15.416      -16.610       40.848       40.514       20.330     1668.593     1641.407      413.312        0.632        0.186       92.966        5.828        0.004      332.219        0.739      857.608
01/31/2014  08:56:00      -46.101       -4.413       -7.285       35.515       30.726       13.969     1261.349      944.091      195.120        0.230        0.120       46.312       10.723        0.054      332.184        0.682      857.601
01/31/2014  08:57:00      -38.138       94.801      -12.020       19.912       39.355       17.643      396.495     1548.855      311.274        0.642        0.113      102.185       14.062        0.019      332.172        0.661      857.616
01/31/2014  08:58:00      -46.219       39.009      -14.998       26.099       36.258       14.847      681.160     1314.607      220.435        0.305        0.111       60.480       10.194        0.028      332.097        0.540      857.617
01/31/2014  08:59:00      -28.432        5.282      -10.982       28.700       13.606       13.282      823.694      185.125      176.421        0.107        0.059       28.918       13.378        0.214      332.191        0.694      857.612
01/31/2014  09:00:00       12.297       13.324        3.654       18.495       13.839       14.457      342.049      191.530      209.018        0.054        0.037       18.131       11.932        0.433      332.296        0.867      857.594
01/31/2014  09:01:00       -4.781      -17.578       -3.047       26.786       26.568       20.745      717.485      705.883      430.334        0.110        0.093       18.216       18.116        0.989      332.463        1.140      857.579
01/31/2014  09:02:00       24.636      -22.450       17.029       31.637       28.242       23.440     1000.900      797.621      549.456        0.187        0.117       33.331       20.391        0.374      332.492        1.189      857.577
01/31/2014  09:03:00      -66.286       60.261       -9.362       39.155       47.189       20.565     1533.103     2226.766      422.932        0.615        0.209       89.583       31.960        0.127      332.258        0.803      857.595
01/31/2014  09:04:00      -73.668       87.132       -8.239       43.203       44.147       24.017     1866.480     1948.984      576.804        0.874        0.220      114.101       17.250        0.023      332.255        0.800      857.623
01/31/2014  09:05:00      -71.342      136.145      -20.698       44.122       45.243       29.347     1946.759     2046.915      861.233        1.445        0.243      153.704       28.981        0.036      332.325        0.912      857.647
01/31/2014  09:06:00      -58.849      107.712      -19.501       48.673       36.654       20.463     2369.068     1343.517      418.729        0.979        0.207      122.740       13.642        0.012      332.234        0.763      857.653
01/31/2014  09:07:00      -29.121      127.554       -7.567       30.473       41.724       20.367      928.592     1740.870      414.812        1.013        0.154      130.836        9.309        0.005      332.202        0.712      857.687
01/31/2014  09:08:00      -61.889       93.406      -20.766       33.820       34.844       20.351     1143.775     1214.084      414.177        0.788        0.139      112.049       22.140        0.039      332.231        0.759      857.717
01/31/2014  09:09:00      -28.358       88.142       -6.595       28.450       33.492       22.912      809.400     1121.719      524.979        0.554        0.123       92.592       21.301        0.053      332.468        1.150      857.748
01/31/2014  09:10:00      -42.342       93.051      -11.481       38.456       36.914       25.039     1478.861     1362.662      626.967        0.703        0.173      102.232       18.709        0.033      332.395        1.029      857.770
01/31/2014  09:11:00      -84.805       69.312      -22.950       30.855       52.760       25.175      952.038     2783.614      633.801        0.845        0.218      109.526       26.299        0.058      332.229        0.757      857.803
01/31/2014  09:12:00      -30.111      128.946      -17.073       37.166       59.051       29.550     1381.347     3487.079      873.178        1.178        0.287      132.415       34.728        0.069      332.255        0.798      857.827
01/31/2014  09:13:00      -16.979      128.924      -14.745       38.049       42.726       26.041     1447.706     1825.553      678.127        1.054        0.198      130.037       25.913        0.040      332.347        0.950      857.844
01/31/2014  09:14:00      -12.442       92.699       -8.168       28.618       79.238       36.229      818.987     6278.714     1312.551        0.861        0.421       93.530       39.778        0.181      332.441        1.107      857.855
01/31/2014  09:15:00      -81.818      174.796      -21.096       52.012       71.903       35.992     2705.205     5170.021     1295.433        2.343        0.459      192.996       34.092        0.031      332.218        0.735      857.882
01/31/2014  09:16:00      -50.527      104.212      -11.646       40.361       54.859       30.096     1629.016     3009.508      905.798        0.955        0.277      115.815       30.315        0.069      332.292        0.860      857.897
01/31/2014  09:17:00      -24.606      202.506      -19.183       39.516       49.047       29.052     1561.543     2405.607      844.010        2.340        0.241      203.995       25.262        0.015      332.312        0.892      857.919
01/31/2014  09:18:00        2.635      193.329      -23.860       53.287       53.945       32.962     2839.479     2910.067     1086.496        2.239        0.342      193.347       29.288        0.023      332.264        0.811      857.932
01/31/2014  09:19:00       -7.541      182.321      -22.863       44.672       79.690       31.730     1995.590     6350.421     1006.771        2.159        0.468      182.477       36.937        0.041      332.235        0.766      857.947
01/31/2014  09:20:00       -4.050      249.732      -38.679       34.012       73.845       27.090     1156.804     5453.032      733.873        3.561        0.367      249.765       35.022        0.020      332.147        0.616      857.953
01/31/2014  09:21:00      -23.034      137.393       -9.789       69.508       68.652       34.743     4831.297     4713.107     1207.111        1.513        0.538      139.310       31.997        0.053      332.302        0.877      857.963
01/31/2014  09:22:00        4.576      184.779      -23.945       40.282      116.699       38.665     1622.648    13618.652     1494.981        2.573        0.837      184.836       55.313        0.090      332.185        0.682      857.977
01/31/2014  09:23:00       17.684      207.599      -17.952       45.930       66.895       43.626     2109.562     4475.006     1903.265        2.611        0.424      208.351       38.264        0.034      332.167        0.651      857.975
01/31/2014  09:24:00      -40.265      266.127      -30.730       44.278       57.055       26.103     1960.540     3255.222      681.351        3.964        0.295      269.156       25.213        0.009      332.068        0.485      858.000
01/31/2014  09:25:00      -91.154      192.313      -18.966       59.307       82.434       42.270     3517.355     6795.301     1786.714        2.887        0.605      212.822       44.749        0.044      332.250        0.787      857.997
01/31/2014  09:26:00       15.286      189.648      -19.819       40.244       90.181       41.779     1619.545     8132.632     1745.509        2.404        0.575      190.263       51.057        0.072      332.244        0.779      857.993
01/31/2014  09:27:00      -37.896      264.324      -31.713       31.342       57.301       28.663      982.349     3283.407      821.566        3.870        0.254      267.026       25.959        0.009      332.204        0.711      858.000
01/31/2014  09:28:00      -42.879      135.530       -3.906       41.978       52.615       33.616     1762.167     2768.294     1130.064        1.294        0.283      142.152       29.364        0.043      332.546        1.278      858.021
01/31/2014  09:29:00      -98.468      160.647      -19.600       91.008       99.964       50.752     8282.415     9992.725     2575.725        2.837        1.043      188.424       54.437        0.083      332.446        1.113      858.030
01/31/2014  09:30:00     -133.177      152.680      -35.976       52.306       67.765       41.565     2735.939     4592.060     1727.677        2.570        0.453      202.602       36.816        0.033      332.350        0.954      858.053
01/31/2014  09:31:00      -46.078       87.477       -0.531       54.965       69.006       34.788     3021.105     4761.819     1210.214        0.938        0.450       98.871       38.849        0.154      332.871        1.816      858.070
01/31/2014  09:32:00      -17.195       89.334       -5.387       46.877       97.742       29.125     2197.451     9553.568      848.241        1.045        0.630       90.974       28.164        0.096      332.805        1.706      858.075
01/31/2014  09:33:00      -15.151       88.824        6.729       59.809       96.436       36.315     3577.061     9299.825     1318.810        1.118        0.710       90.107       44.866        0.248      332.882        1.833      858.067
01/31/2014  09:34:00       33.217      184.198      -13.562       66.494      103.805       52.828     4421.489    10775.557     2790.789        2.660        0.899      187.169       61.507        0.108      332.623        1.404      858.073
01/31/2014  09:35:00      -45.343      167.853       -9.151       66.024      111.133       42.338     4359.110    12350.563     1792.490        2.441        0.925      173.869       58.206        0.112      332.638        1.430      858.074
01/31/2014  09:36:00      -15.231      206.724      -20.793       45.413       65.421       34.771     2062.356     4279.960     1208.996        2.547        0.378      207.284       33.386        0.026      332.784        1.670      858.068
01/31/2014  09:37:00       -4.793      223.216      -13.950       57.812      120.622       50.446     3342.204    14549.705     2544.811        3.524        1.022      223.268       57.473        0.066      332.705        1.540      858.072
01/31/2014  09:38:00      -40.211      312.984      -40.919       68.299       84.088       38.059     4664.748     7070.811     1448.518        5.721        0.659      315.556       38.732        0.015      332.404        1.041      858.088
01/31/2014  09:39:00      -10.286      268.410      -31.048       53.422      106.066       43.783     2853.925    11250.081     1916.913        4.456        0.801      268.607       54.589        0.041      332.590        1.351      858.092
01/31/2014  09:40:00       -1.971      217.889      -19.807       50.814      107.280       44.619     2582.070    11508.952     1990.855        3.197        0.804      217.898       53.989        0.061      332.628        1.415      858.100
01/31/2014  09:41:00        7.464      249.384      -34.031       50.672       77.840       38.067     2567.679     6059.124     1449.098        3.674        0.504      249.496       40.221        0.026      332.633        1.419      858.133
01/31/2014  09:42:00       -1.033      192.436      -25.977       66.253       77.026       42.811     4389.445     5932.945     1832.749        2.493        0.608      192.439       41.913        0.047      332.708        1.543      858.168
01/31/2014  09:43:00      -59.682      212.436      -26.599       67.058       58.014       42.507     4496.723     3365.634     1806.827        2.953        0.483      220.660       31.328        0.020      332.678        1.494      858.209
01/31/2014  09:44:00      -34.135      155.824       -2.138       43.877       63.590       38.173     1925.198     4043.687     1457.198        1.644        0.371      159.519       32.074        0.040      333.036        2.088      858.240
01/31/2014  09:45:00       -0.464      178.748      -15.586       59.790       79.746       46.126     3574.898     6359.471     2127.612        2.213        0.603      178.749       40.801        0.052      332.774        1.653      858.254
01/31/2014  09:46:00      -18.636      101.631       -2.561       40.678       93.740       37.881     1654.719     8787.109     1435.001        1.128        0.594      103.325       47.660        0.213      332.908        1.877      858.245
01/31/2014  09:47:00      -21.629      246.896      -25.367       39.489       63.323       39.281     1559.356     4009.864     1543.026        3.459        0.356      247.841       34.546        0.019      332.578        1.327      858.262
01/31/2014  09:48:00     -113.722      175.901      -28.109       86.714       61.460       46.172     7519.271     3777.330     2131.813        2.904        0.671      209.461       38.046        0.033      332.677        1.492      858.257
01/31/2014  09:49:00        5.803      182.696      -26.371       58.858      135.550       52.478     3464.217    18373.717     2753.972        2.935        1.230      182.788       73.048        0.160      332.805        1.706      858.244
01/31/2014  09:50:00       39.632       58.210       12.434       69.997       70.703       44.701     4899.569     4998.954     1998.189        0.850        0.595       70.420       40.383        0.329      333.110        2.210      858.250
01/31/2014  09:51:00      -24.187      159.028       -4.632       58.551       96.864       37.706     3428.274     9382.602     1421.707        2.006        0.712      160.857       39.230        0.059      333.099        2.191      858.257
01/31/2014  09:52:00        3.336      122.835       -8.309       51.161      155.331       46.207     2617.477    24127.762     2135.086        2.202        1.444      122.880       65.186        0.281      333.224        2.398      858.243
01/31/2014  09:53:00      -39.717      315.630      -41.389       68.340       82.528       42.050     4670.297     6810.793     1768.201        5.808        0.662      318.119       40.529        0.016      332.771        1.647      858.254
01/31/2014  09:54:00       21.916      221.841      -20.659       62.570       83.408       50.481     3914.954     6956.874     2548.374        3.177        0.671      222.921       48.165        0.047      332.930        1.910      858.258
01/31/2014  09:55:00      -19.132      295.043      -23.467       72.912      115.681       59.752     5316.213    13382.179     3570.355        5.511        1.113      295.663       58.092        0.039      332.934        1.915      858.272
01/31/2014  09:56:00      -23.586      264.561      -23.070       98.091      129.151       71.920     9621.751    16680.108     5172.459        5.127        1.574      265.610       71.931        0.073      332.755        1.620      858.291
01/31/2014  09:57:00     -115.222      203.362      -39.221       85.718      141.582       54.949     7347.643    20045.358     3019.376        4.329        1.521      233.735       50.169        0.046      332.864        1.800      858.308
01/31/2014  09:58:00      -49.099      363.003      -40.447       89.309      121.630       55.847     7976.071    14793.937     3118.918        8.085        1.294      366.308       57.004        0.024      332.622        1.401      858.327
01/31/2014  09:59:00      -63.391      184.159        0.687       81.668      145.013       65.294     6669.703    21028.768     4263.291        3.494        1.598      194.764       77.308        0.158      333.045        2.101      858.331
01/31/2014  10:00:00     -109.522      210.201      -19.833      124.791      158.178       64.855    15572.691    25020.288     4206.134        5.068        2.240      237.022       61.330        0.067      332.888        1.841      858.336
01/31/2014  10:01:00     -100.491      277.987      -27.016       94.102      167.546       55.641     8855.158    28071.649     3095.947        6.406        2.001      295.593       67.093        0.052      332.802        1.699      858.337
01/31/2014  10:02:00      -41.818      286.495      -26.427       80.333      125.872       53.970     6453.396    15843.761     2912.715        5.486        1.260      289.531       62.577        0.047      332.772        1.650      858.316
01/31/2014  10:03:00      -53.100      504.179      -57.010       88.000      123.814       48.820     7743.919    15329.841     2383.376       14.286        1.273      506.967       55.411        0.012      332.485        1.175      858.307
01/31/2014  10:04:00      -78.932      356.839      -33.779       87.405      155.766       71.620     7639.561    24263.067     5129.493        8.586        1.852      365.465       85.324        0.055      332.659        1.462      858.309
01/31/2014  10:05:00      -58.680      334.993      -35.191       95.575      121.704       58.685     9134.546    14811.813     3443.910        7.214        1.370      340.094       67.902        0.040      332.775        1.653      858.313
01/31/2014  10:06:00      -98.189      276.188      -29.967       87.620       88.936       54.021     7677.217     7909.687     2918.280        5.266        0.925      293.123       47.905        0.027      332.709        1.545      858.320
01/31/2014  10:07:00     -123.014      218.584      -16.967      106.210      103.125       57.477    11280.518    10634.751     3303.654        4.420        1.261      250.822       60.857        0.059      332.932        1.912      858.320
01/31/2014  10:08:00      -98.227      236.246      -20.892      106.392      105.831       63.655    11319.257    11200.163     4051.975        4.623        1.329      255.853       59.722        0.054      332.806        1.704      858.322
01/31/2014  10:09:00      -81.571      342.602      -45.012       93.706      130.103       51.249     8780.765    16926.746     2626.436        7.719        1.417      352.178       54.509        0.024      332.717        1.559      858.332
01/31/2014  10:10:00      -85.449      294.874      -16.581      126.748      118.855       58.796    16065.076    14126.405     3457.017        6.408        1.682      307.005       59.820        0.038      332.885        1.835      858.334
01/31/2014  10:11:00     -116.344      386.571      -42.420       89.869      120.666       58.109     8076.394    14560.174     3376.667        9.539        1.301      403.699       54.974        0.019      332.640        1.432      858.352
01/31/2014  10:12:00     -141.245      266.787      -41.152       81.907       85.620       50.218     6708.718     7330.824     2521.813        5.469        0.828      301.870       50.002        0.027      332.652        1.449      858.370
01/31/2014  10:13:00     -122.159      146.857      -20.805      111.713      108.017       61.991    12479.805    11667.706     3842.942        3.245        1.400      191.023       81.504        0.182      332.943        1.933      858.380
01/31/2014  10:14:00        5.221      243.855       -5.593       58.809      152.868       63.454     3458.520    23368.523     4026.349        4.518        1.543      243.911       70.301        0.083      332.986        2.004      858.391
01/31/2014  10:15:00      -60.642      359.782      -39.389       76.382       88.320       45.907     5834.172     7800.381     2107.476        7.520        0.787      364.857       40.461        0.012      332.797        1.690      858.392
01/31/2014  10:16:00      -18.410      313.223      -30.332       83.446      108.802       67.791     6963.280    11837.850     4595.590        6.138        1.170      313.764       67.857        0.047      332.975        1.984      858.393
01/31/2014  10:17:00      -45.682      372.216      -34.488       77.134      106.315       50.090     5949.694    11302.972     2509.007        8.079        0.988      375.009       42.543        0.013      332.820        1.727      858.416
01/31/2014  10:18:00     -109.812      170.278      -23.081      101.826       99.582       61.025    10368.491     9916.540     3724.028        3.279        1.200      202.616       68.655        0.115      332.923        1.898      858.434
01/31/2014  10:19:00      -35.872      388.172      -38.934       65.375       87.328       51.365     4273.848     7626.224     2638.365        8.401        0.727      389.826       47.433        0.015      332.590        1.348      858.431
01/31/2014  10:20:00      -72.300      298.556      -31.996       93.499      102.623       50.405     8742.011    10531.496     2540.685        5.860        1.091      307.185       50.928        0.027      332.636        1.424      858.453
01/31/2014  10:21:00       -8.243      372.417      -41.702       88.274       90.299       68.180     7792.298     8153.876     4648.540        8.054        1.030      372.509       56.678        0.023      332.630        1.414      858.459
01/31/2014  10:22:00      -74.490      274.749      -28.850       65.184      164.557       58.120     4248.925    27079.032     3377.980        5.828        1.735      284.668       73.109        0.066      332.708        1.545      858.460
01/31/2014  10:23:00      -86.946      220.336      -19.480       88.960      101.863       57.154     7913.803    10376.164     3266.524        3.902        1.078      236.870       52.171        0.049      332.842        1.765      858.454
01/31/2014  10:24:00     -124.736      196.674      -36.319       87.108      120.973       59.389     7587.803    14634.425     3527.024        4.065        1.287      232.894       53.436        0.053      332.893        1.849      858.441
01/31/2014  10:25:00      -68.977      286.479      -25.548       83.100      116.331       55.783     6905.583    13532.867     3111.722        5.551        1.178      294.666       59.749        0.041      332.986        2.003      858.445
01/31/2014  10:26:00      -24.144      399.800      -45.388       75.555      108.499       49.412     5708.505    11771.970     2441.569        9.120        0.996      400.529       53.889        0.018      332.753        1.617      858.446
01/31/2014  10:27:00       -3.317      300.695      -24.686       73.204      122.873       59.531     5358.872    15097.839     3543.919        5.752        1.200      300.713       58.161        0.037      332.881        1.830      858.443
01/31/2014  10:28:00      -55.935      376.929      -36.973       75.903      150.433       58.814     5761.327    22630.186     3459.076        8.921        1.593      381.057       67.336        0.031      332.812        1.715      858.452
01/31/2014  10:29:00     -101.627      450.089      -49.846       93.280      107.419       55.130     8701.242    11538.734     3039.316       11.933        1.164      461.420       44.465        0.009      332.656        1.458      858.466
01/31/2014  10:30:00      -41.623      375.888      -27.711       88.178      126.870       64.914     7775.304    16095.989     4213.782        8.593        1.404      378.185       61.713        0.027      332.799        1.693      858.474
01/31/2014  10:31:00     -105.915      321.128      -42.014       98.206      117.982       57.897     9644.359    13919.860     3352.113        7.151        1.346      338.144       47.855        0.020      332.954        1.949      858.485
01/31/2014  10:32:00      -95.153      311.862      -38.188       74.937      110.903       55.584     5615.567    12299.494     3089.636        6.438        1.050      326.055       56.349        0.030      333.013        2.048      858.506
01/31/2014  10:33:00     -223.239      275.972      -49.684      123.127      109.219       55.045    15160.369    11928.706     3029.907        7.929        1.506      354.959       64.751        0.033      332.862        1.797      858.531
01/31/2014  10:34:00      -83.621      237.741      -15.539       78.231      118.828       59.049     6120.078    14120.184     3486.768        4.374        1.186      252.019       53.081        0.044      333.094        2.183      858.534
01/31/2014  10:35:00     -105.996      161.936       -3.718       93.190      113.690       53.691     8684.397    12925.421     2882.701        3.098        1.225      193.542       53.020        0.075      333.101        2.195      858.529
01/31/2014  10:36:00      -67.810      187.751        5.297       70.637       99.253       57.604     4989.619     9851.165     3318.202        2.901        0.908      199.621       59.287        0.088      333.355        2.614      858.531
01/31/2014  10:37:00      -40.422      219.616      -17.294       71.570      144.408       45.120     5122.321    20853.767     2035.805        3.908        1.401      223.305       53.819        0.058      333.240        2.423      858.567
01/31/2014  10:38:00     -134.992      435.789      -38.645      129.502      143.328       75.646    16770.763    20542.873     5722.275       12.632        2.152      456.218       71.952        0.025      332.858        1.791      858.584
01/31/2014  10:39:00     -151.710      345.102      -38.211       94.856      117.005       72.856     8997.701    13690.173     5308.016        8.578        1.400      376.977       73.391        0.038      332.811        1.713      858.619
01/31/2014  10:40:00      -51.251      242.820      -18.350       70.093      102.210       52.132     4913.092    10446.905     2717.762        4.000        0.904      248.170       54.882        0.049      333.038        2.090      858.613
01/31/2014  10:41:00      -68.469      403.783      -44.247       76.060      140.817       49.133     5785.181    19829.406     2414.089        9.885        1.401      409.547       62.750        0.023      332.772        1.650      858.607
01/31/2014  10:42:00      -78.986      327.860      -38.185       65.472       77.500       44.842     4286.600     6006.320     2010.829        6.374        0.615      337.240       40.499        0.014      333.021        2.059      858.598
01/31/2014  10:43:00      -84.227      414.121      -36.457      117.514      124.778       61.947    13809.523    15569.554     3837.406       10.656        1.661      422.599       54.546        0.017      333.088        2.171      858.609
01/31/2014  10:44:00      -34.501      378.064      -29.646       86.129      154.245       58.033     7418.245    23791.401     3367.777        8.978        1.729      379.635       65.565        0.030      333.008        2.041      858.630
01/31/2014  10:45:00      -58.451      379.398      -45.374      101.151      105.022       53.947    10231.603    11029.685     2910.329        8.679        1.209      383.874       47.237        0.015      333.009        2.041      858.639
01/31/2014  10:46:00     -103.537      339.178      -35.901      122.749      111.600       69.809    15067.419    12454.646     4873.293        7.972        1.620      354.629       67.647        0.036      333.055        2.116      858.666
01/31/2014  10:47:00     -155.846      395.525      -46.067       76.835      110.994       56.385     5903.635    12319.573     3179.268       10.212        1.070      425.122       53.355        0.016      332.776        1.656      858.692
01/31/2014  10:48:00     -168.646      294.646      -40.941      115.361      120.831       76.351    13308.176    14600.130     5829.505        7.533        1.687      339.496       84.954        0.063      332.807        1.706      858.684
01/31/2014  10:49:00      -78.547      385.224      -35.437       73.937      168.450       62.728     5466.733    28375.445     3934.854        9.679        1.889      393.150       67.879        0.030      332.815        1.721      858.703
01/31/2014  10:50:00     -105.898      309.403      -42.054       95.379      129.365       47.270     9097.190    16735.220     2234.444        6.839        1.403      327.024       51.567        0.025      332.872        1.814      858.699
01/31/2014  10:51:00     -185.688      276.505      -39.731       85.722       96.119       66.322     7348.311     9238.841     4398.656        6.675        1.049      333.069       54.966        0.027      332.882        1.831      858.692
01/31/2014  10:52:00      -10.916      242.635      -15.297       84.033      132.147       61.930     7061.470    17462.908     3835.283        4.379        1.418      242.881       68.114        0.079      333.316        2.551      858.695
01/31/2014  10:53:00       15.955      328.261      -22.918       84.289      133.395       80.660     7104.584    17794.265     6505.976        6.996        1.570      328.649       79.598        0.059      333.040        2.093      858.692
01/31/2014  10:54:00      -51.525      426.101      -47.203       86.899      128.840       48.933     7551.437    16599.777     2394.443       10.649        1.327      429.205       60.390        0.020      332.780        1.663      858.699
01/31/2014  10:55:00      -23.265      336.083      -35.355       64.472       74.757       46.568     4156.624     5588.584     2168.620        6.333        0.596      336.887       39.902        0.014      333.038        2.090      858.701
01/31/2014  10:56:00       11.260      202.321       -4.863       74.533      126.939       59.176     5555.214    16113.502     3501.778        3.312        1.259      202.634       58.816        0.084      333.360        2.622      858.713
01/31/2014  10:57:00       39.230      299.112      -32.445       91.607      204.653       75.452     8391.850    41882.720     5692.967        7.400        2.798      301.674      105.337        0.122      332.924        1.902      858.730
01/31/2014  10:58:00       50.205      264.874      -18.016       81.026      151.060       74.256     6565.254    22819.034     5513.915        5.394        1.745      269.590       81.015        0.090      332.903        1.865      858.723
01/31/2014  10:59:00        2.333      224.779      -23.811       77.258      132.288       65.325     5968.857    17500.082     4267.392        3.941        1.387      224.791       73.377        0.107      332.886        1.838      858.735
01/31/2014  11:00:00       10.049      156.124      -17.175       58.211       75.849       37.612     3388.502     5753.035     1414.652        1.766        0.528      156.447       38.152        0.059      333.029        2.075      858.732
01/31/2014  11:01:00      -64.400      177.739       -6.668       92.040      102.435       66.332     8471.341    10493.031     4399.916        2.957        1.168      189.046       63.597        0.113      333.060        2.125      858.743
01/31/2014  11:02:00      -14.789      245.917      -16.741       58.776      116.996       51.307     3454.670    13688.153     2632.423        4.037        0.989      246.361       50.537        0.042      333.062        2.128      858.754
01/31/2014  11:03:00        6.222      364.086      -41.483       63.967       95.743       52.947     4091.833     9166.800     2803.388        7.519        0.803      364.139       47.283        0.017      332.745        1.603      858.765
01/31/2014  11:04:00      -11.318      220.826      -29.811       63.756       79.112       43.738     4064.856     6258.737     1913.026        3.101        0.612      221.116       34.836        0.025      332.856        1.788      858.755
01/31/2014  11:05:00      -25.027      332.666      -30.693       68.073      128.368       51.061     4633.939    16478.310     2607.273        6.797        1.186      333.606       53.623        0.026      332.742        1.599      858.761
01/31/2014  11:06:00       10.387      352.013      -29.483       77.304       98.176       59.651     5975.884     9638.469     3558.264        7.203        0.959      352.166       53.987        0.024      332.696        1.524      858.767
01/31/2014  11:07:00      -21.183      299.071      -27.802       62.497       86.068       45.800     3905.813     7407.766     2097.620        5.204        0.671      299.821       46.297        0.024      332.737        1.591      858.769
01/31/2014  11:08:00      -24.417      395.571      -43.481       95.772      140.009       73.274     9172.325    19602.521     5369.029        9.655        1.707      396.324       84.886        0.046      332.657        1.459      858.778
01/31/2014  11:09:00      -36.406      306.858      -42.132       62.773      108.544       50.796     3940.499    11781.826     2580.250        5.778        0.915      309.010       51.689        0.028      332.705        1.538      858.796
01/31/2014  11:10:00      -14.736      413.001      -41.828       55.170       81.092       36.295     3043.759     6575.886     1317.328        9.173        0.547      413.263       36.588        0.008      332.517        1.228      858.810
01/31/2014  11:11:00      -35.474      333.322      -31.233       84.850       91.425       49.748     7199.578     8358.551     2474.884        6.568        0.902      335.204       49.642        0.022      332.636        1.426      858.819
01/31/2014  11:12:00       16.091      306.193      -32.223       76.718       95.363       53.613     5885.577     9094.180     2874.375        5.645        0.893      306.616       56.775        0.034      332.691        1.514      858.810
01/31/2014  11:13:00      -92.464      190.255      -17.608      108.494      112.066       62.728    11771.017    12558.867     3934.860        3.666        1.413      211.534       50.349        0.057      332.813        1.717      858.813
01/31/2014  11:14:00       -8.673      213.594       -7.338       90.214      131.217       65.238     8138.635    17217.921     4256.031        3.768        1.481      213.770       65.085        0.093      332.852        1.781      858.821
01/31/2014  11:15:00       10.823      256.781      -12.148       72.534      132.440       61.181     5261.189    17540.276     3743.061        4.637        1.327      257.009       78.307        0.093      332.733        1.586      858.799
01/31/2014  11:16:00       79.913      224.878      -10.310      100.401      149.674       71.122    10080.393    22402.441     5058.289        4.730        1.877      238.655       81.910        0.118      332.770        1.646      858.780
01/31/2014  11:17:00      -27.579      327.337      -45.207       76.863      183.997       45.452     5907.954    33854.960     2065.914        7.588        2.091      328.497       70.832        0.046      332.745        1.604      858.769
01/31/2014  11:18:00       25.519      400.555      -45.790       71.950      117.478       60.652     5176.784    13801.109     3678.623        9.292        1.133      401.367       60.984        0.023      332.731        1.580      858.780
01/31/2014  11:19:00       65.744      177.738      -13.978      111.125      139.826       70.873    12348.717    19551.284     5022.921        3.651        1.846      189.507       70.497        0.138      332.818        1.727      858.767
01/31/2014  11:20:00       46.644      275.701      -21.970       79.382      127.662       65.870     6301.437    16297.503     4338.887        5.280        1.347      279.619       57.028        0.042      332.866        1.805      858.778
01/31/2014  11:21:00       29.017      202.416       17.060       92.641      145.258       80.287     8582.365    21099.952     6445.928        3.911        1.806      204.485       80.507        0.155      332.815        1.721      858.780
01/31/2014  11:22:00       21.289      270.355      -23.003      101.919      174.036       64.550    10387.381    30288.435     4166.650        5.945        2.242      271.192       89.866        0.110      332.661        1.466      858.778
01/31/2014  11:23:00      106.262      113.314       17.351      109.561       96.340       68.280    12003.585     9281.445     4662.165        2.519        1.297      155.343       53.579        0.119      332.812        1.718      858.752
01/31/2014  11:24:00      119.526      145.939       -8.825      105.550      123.092       74.114    11140.778    15151.719     5492.949        3.372        1.589      188.639       80.818        0.184      332.834        1.752      858.732
01/31/2014  11:25:00       64.530      227.578      -12.517      122.385      156.208       89.529    14978.043    24400.966     8015.516        5.175        2.370      236.550       97.584        0.170      332.918        1.891      858.722
01/31/2014  11:26:00       14.508      213.116      -12.475       85.892      157.021       66.397     7377.385    24655.471     4408.546        4.111        1.822      213.609       82.576        0.149      332.955        1.954      858.708
01/31/2014  11:27:00      108.400      133.476        9.032       81.195       83.810       74.516     6592.563     7024.144     5552.571        2.441        0.958      171.949       60.613        0.124      333.061        2.127      858.660
01/31/2014  11:28:00       45.333      160.086       -6.466       88.873      118.127       67.433     7898.346    13954.032     4547.197        2.706        1.320      166.381       61.394        0.136      333.162        2.296      858.640
01/31/2014  11:29:00       53.909      287.825      -23.993       86.168      140.853       80.965     7424.845    19839.529     6555.362        6.007        1.691      292.830       79.799        0.074      333.109        2.208      858.638
01/31/2014  11:30:00       70.916      212.446      -12.084       87.251      128.699       81.860     7612.772    16563.437     6701.095        4.059        1.544      223.969       86.637        0.150      333.180        2.323      858.630
01/31/2014  11:31:00       13.011      332.117      -41.486       78.546      134.756       59.544     6169.506    18159.231     3545.457        7.003        1.394      332.372       62.035        0.035      332.980        1.993      858.631
01/31/2014  11:32:00       75.525      221.748      -11.815      119.538      175.062       78.876    14289.338    30646.597     6221.381        5.308        2.558      234.256       80.430        0.118      333.186        2.333      858.602
01/31/2014  11:33:00       30.166      315.824      -39.165       70.822      138.950       56.283     5015.822    19307.093     3167.785        6.484        1.375      317.262       61.446        0.038      333.066        2.135      858.611
01/31/2014  11:34:00       -1.041      251.451      -20.832       70.627      108.706       62.288     4988.224    11816.887     3879.835        4.217        1.034      251.453       61.432        0.060      333.168        2.302      858.607
01/31/2014  11:35:00       32.114      221.875      -24.000       92.456       93.915       55.720     8548.152     8820.064     3104.725        3.565        1.024      224.187       47.642        0.045      333.514        2.876      858.597
01/31/2014  11:36:00       39.202      249.263      -15.362      101.463      143.749       81.240    10294.777    20663.878     6599.933        5.073        1.878      252.327       86.108        0.116      333.229        2.406      858.621
01/31/2014  11:37:00      -53.827      332.274      -34.728       70.978      133.904       44.980     5037.939    17930.359     2023.225        6.975        1.250      336.605       49.335        0.021      333.079        2.157      858.635
01/31/2014  11:38:00        2.281      341.703      -24.035      129.584      207.341       91.402    16792.120    42990.267     8354.364        9.273        3.407      341.711      113.152        0.110      333.102        2.195      858.613
01/31/2014  11:39:00      -73.725      200.018      -25.026      134.288      131.673       65.734    18033.348    17337.831     4320.909        4.287        1.985      213.173       65.292        0.094      333.335        2.579      858.606
01/31/2014  11:40:00       54.734      281.873      -13.655      101.618      170.754      101.056    10326.135    29157.049    10212.328        6.616        2.485      287.138      106.154        0.137      333.261        2.457      858.595
01/31/2014  11:41:00      -34.958      337.444      -31.858      101.038      140.766       66.917    10208.726    19814.955     4477.920        7.530        1.725      339.250       72.532        0.046      333.213        2.379      858.597
01/31/2014  11:42:00       51.724      368.924      -61.750       90.086      173.544       68.687     8115.425    30117.517     4717.943        9.276        2.148      372.532       82.422        0.049      333.092        2.179      858.577
01/31/2014  11:43:00      -46.550      316.680      -40.640      134.162      138.737       51.738    17999.523    19247.975     2676.769        7.201        1.996      320.083       53.813        0.028      333.318        2.552      858.571
01/31/2014  11:44:00     -123.742      275.502      -34.834      124.401      106.016       73.252    15475.600    11239.450     5365.900        6.225        1.604      302.016       83.802        0.077      333.189        2.339      858.572
01/31/2014  11:45:00     -163.790      253.607      -49.402      121.750      126.497       65.818    14822.971    16001.522     4331.989        6.436        1.758      301.899       78.069        0.067      333.149        2.271      858.569
01/31/2014  11:46:00     -140.965      312.053      -43.981       92.327      123.718       64.116     8524.327    15306.236     4110.838        7.356        1.397      342.416       68.484        0.040      333.170        2.308      858.560
01/31/2014  11:47:00     -139.570      339.667      -46.769      150.902      113.109       76.552    22771.503    12793.733     5860.187        8.923        2.071      367.224       83.638        0.052      333.171        2.307      858.552
01/31/2014  11:48:00        1.311      423.148      -45.652       86.335      121.883       64.798     7453.809    14855.452     4198.785       10.382        1.325      423.150       65.212        0.024      333.128        2.237      858.536
01/31/2014  11:49:00      -32.484      291.471      -23.525       95.899      153.577       70.382     9196.705    23585.778     4953.615        6.214        1.887      293.276       80.065        0.075      333.379        2.652      858.513
01/31/2014  11:50:00      -29.556      221.408       -1.470       86.861      126.773       62.997     7544.808    16071.326     3968.601        3.874        1.379      223.372       60.717        0.074      333.576        2.979      858.512
01/31/2014  11:51:00      -78.823      306.742      -33.196       86.959      137.604       53.195     7561.864    18934.987     2829.736        6.536        1.466      316.708       56.018        0.031      333.288        2.501      858.482
01/31/2014  11:52:00       -0.971      251.786       -9.769       95.349      154.357       71.888     9091.474    23826.163     5167.848        5.078        1.904      251.788       81.470        0.105      333.434        2.747      858.467
01/31/2014  11:53:00        4.975      330.209      -38.779      115.383      142.877       73.232    13313.208    20413.792     5362.879        7.482        1.954      330.247       71.139        0.046      333.407        2.699      858.452
01/31/2014  11:54:00      -71.989      375.932      -33.783      127.458      182.050       79.463    16245.423    33142.098     6314.324       10.167        2.785      382.762       79.489        0.043      333.201        2.359      858.481
01/31/2014  11:55:00      -93.031      293.210      -36.725      118.597      111.640       67.943    14065.192    12463.504     4616.195        6.356        1.557      307.615       56.017        0.033      333.321        2.555      858.465
01/31/2014  11:56:00       -4.074      271.422      -26.758       74.087      121.937       67.140     5488.944    14868.601     4507.823        4.963        1.243      271.452       65.820        0.059      333.393        2.675      858.427
01/31/2014  11:57:00       23.327      178.946        9.959       85.938      111.201       77.554     7385.328    12365.765     6014.578        2.921        1.288      180.460       69.658        0.149      333.617        3.047      858.407
01/31/2014  11:58:00      -12.311      238.176      -22.296       85.315      121.049       56.561     7278.582    14652.782     3199.190        4.125        1.257      238.494       64.871        0.074      333.447        2.764      858.393
01/31/2014  11:59:00      -70.102      336.277      -30.929       85.781      133.621       59.012     7358.364    17854.453     3482.448        7.382        1.435      343.506       62.392        0.033      333.406        2.696      858.401
01/31/2014  12:00:00      -49.595      308.794      -27.145       71.762      114.435       49.243     5149.778    13095.425     2424.881        5.961        1.034      312.752       51.724        0.027      333.402        2.690      858.370
01/31/2014  12:01:00      -21.083      337.583      -23.575       91.320      177.802       74.032     8339.305    31613.459     5480.804        8.019        2.272      338.241       90.715        0.072      333.383        2.659      858.348
01/31/2014  12:02:00       -8.312      273.112      -27.535       67.251      115.507       61.376     4522.639    13341.978     3767.044        4.852        1.082      273.238       57.754        0.045      333.447        2.765      858.322
01/31/2014  12:03:00     -182.370      252.601      -37.396       92.594       91.374       63.213     8573.683     8349.247     3995.854        5.969        1.046      311.555       54.632        0.031      333.594        3.008      858.322
01/31/2014  12:04:00      -84.144      265.915      -31.197      102.968      110.679       53.542    10602.444    12249.760     2866.760        5.224        1.286      278.910       45.517        0.027      333.678        3.147      858.336
01/31/2014  12:05:00      -46.442      465.152      -57.506       64.653      107.816       42.401     4179.996    11624.239     1797.879       11.971        0.880      467.465       40.415        0.007      333.130        2.239      858.319
01/31/2014  12:06:00      -18.314      372.775      -46.212       93.003      137.138       50.964     8649.488    18806.796     2597.300        8.574        1.503      373.224       57.665        0.024      333.339        2.585      858.315
01/31/2014  12:07:00     -116.691      422.325      -40.775       91.742      127.886       60.440     8416.512    16354.819     3652.974       11.103        1.421      438.150       57.469        0.017      333.287        2.500      858.297
01/31/2014  12:08:00     -121.391      282.502      -28.091      117.746      160.795       65.974    13864.203    25855.086     4352.518        6.969        2.204      307.479       70.706        0.053      333.397        2.682      858.271
01/31/2014  12:09:00      -83.012      202.240      -22.312       77.592      179.783       61.522     6020.585    32321.906     3784.994        4.520        2.106      218.614       70.344        0.104      333.782        3.320      858.263
01/31/2014  12:10:00       -6.027      389.504      -48.432       81.657       88.381       56.163     6667.808     7811.194     3154.328        8.586        0.882      389.551       46.035        0.014      333.334        2.577      858.249
01/31/2014  12:11:00     -118.444      340.873      -34.919       68.137      108.612       46.011     4642.695    11796.523     2117.055        7.500        0.928      360.864       45.668        0.016      333.243        2.426      858.257
01/31/2014  12:12:00      -83.884      166.517       -8.928       71.560       86.497       46.980     5120.827     7481.800     2207.126        2.482        0.740      186.452       46.859        0.063      333.597        3.014      858.222
01/31/2014  12:13:00      -50.350      213.018      -14.612       73.118      171.920       57.756     5346.235    29556.467     3335.701        4.318        1.912      218.888       83.320        0.145      333.692        3.173      858.217
01/31/2014  12:14:00      -60.090      393.980      -38.101       68.887      146.273       51.999     4745.382    21395.723     2703.880        9.456        1.442      398.536       67.400        0.029      333.217        2.384      858.210
01/31/2014  12:15:00       -7.790      281.539      -17.437       63.179      120.523       56.734     3991.633    14525.728     3218.753        5.068        1.087      281.646       59.662        0.045      333.377        2.647      858.198
01/31/2014  12:16:00       50.601      169.970       -2.837       88.908      103.989       71.232     7904.651    10813.645     5074.062        2.762        1.190      177.342       69.120        0.152      333.527        2.897      858.165
01/31/2014  12:17:00       50.737       96.790       -2.227       69.452       75.619       47.212     4823.576     5718.234     2228.979        1.236        0.639      109.282       50.035        0.210      333.755        3.277      858.157
01/31/2014  12:18:00      -97.619      278.733      -37.308      107.798      136.970       66.974    11620.374    18760.753     4485.533        6.173        1.743      295.333       63.528        0.046      333.627        3.062      858.180
01/31/2014  12:19:00     -113.175      305.880      -37.589       86.174      119.016       58.711     7425.884    14164.825     3446.924        6.641        1.252      326.146       65.595        0.040      333.556        2.946      858.188
01/31/2014  12:20:00     -116.145      369.619      -39.049       88.038      122.084       52.926     7750.682    14904.542     2801.143        8.854        1.273      387.438       52.245        0.018      333.285        2.496      858.199
01/31/2014  12:21:00     -109.939      287.826      -35.671      102.870      124.868       54.513    10582.174    15592.019     2971.654        6.267        1.457      308.108       59.993        0.038      333.385        2.662      858.198
01/31/2014  12:22:00     -119.798      316.119      -41.565      109.813      100.378       59.998    12058.804    10075.755     3599.718        7.087        1.287      338.058       52.876        0.024      333.335        2.580      858.201
01/31/2014  12:23:00        2.449      350.850      -22.245       91.604      113.232       77.381     8391.226    12821.547     5987.851        7.539        1.360      350.858       73.780        0.044      333.347        2.599      858.167
01/31/2014  12:24:00      -45.159      274.919      -29.021       56.803      103.212       48.246     3226.534    10652.627     2327.718        4.733        0.810      278.604       44.917        0.026      333.733        3.238      858.150
01/31/2014  12:25:00      -52.954      124.392       -5.170       82.439      100.964       52.131     6796.149    10193.781     2717.674        1.900        0.985      135.194       52.974        0.154      333.897        3.510      858.134
01/31/2014  12:26:00       12.552      186.282        4.626      111.102      151.294       76.767    12343.629    22889.848     5893.211        3.800        2.056      186.704       85.324        0.209      333.929        3.563      858.111
01/31/2014  12:27:00      -51.704      378.062      -47.097      108.701      182.456       69.513    11815.808    33290.122     4832.110        9.887        2.497      381.581       80.856        0.045      333.696        3.176      858.099
01/31/2014  12:28:00     -180.369      362.308      -47.358       97.740      108.224       64.873     9553.094    11712.474     4208.537        9.575        1.274      404.723       66.534        0.027      333.312        2.540      858.119
01/31/2014  12:29:00        0.037      484.831      -60.574       81.299       99.963       55.632     6609.559     9992.620     3094.922       12.921        0.985      484.831       56.466        0.014      333.352        2.608      858.081
01/31/2014  12:30:00      -59.537      279.114      -13.133      107.144      187.891       66.166    11479.787    35302.856     4377.988        6.638        2.558      285.394       74.436        0.068      333.674        3.142      858.091
01/31/2014  12:31:00      -98.151      317.555      -39.018       97.348      117.834       67.527     9476.675    13884.801     4559.947        6.995        1.396      332.377       62.872        0.036      333.464        2.794      858.102
01/31/2014  12:32:00      -25.332      293.489      -30.290       90.260      116.757       59.834     8146.792    13632.280     3580.074        5.652        1.268      294.580       64.384        0.048      333.530        2.901      858.057
01/31/2014  12:33:00     -103.230      369.006      -38.516       99.095      115.955       69.219     9819.889    13445.528     4791.247        8.818        1.403      383.173       69.338        0.033      333.509        2.867      858.057
01/31/2014  12:34:00      -49.227      323.587      -25.916       94.505      145.739       60.505     8931.111    21239.834     3660.826        7.081        1.692      327.310       74.200        0.051      333.553        2.941      858.037
01/31/2014  12:35:00      -45.672      252.233      -15.785      125.233      144.215       75.884    15683.247    20797.875     5758.322        5.409        2.112      256.335       80.101        0.098      333.656        3.113      858.008
01/31/2014  12:36:00       36.692      379.119      -21.122       98.962      174.068       98.981     9793.558    30299.644     9797.185        9.770        2.495      380.890      102.906        0.073      333.455        2.779      858.018
01/31/2014  12:37:00       17.584      294.802      -20.964       76.787      107.118       58.376     5896.245    11474.327     3407.773        5.421        1.039      295.326       61.412        0.043      333.439        2.752      858.006
01/31/2014  12:38:00      -38.736      212.416       -8.137       60.582      131.719       54.542     3670.213    17349.999     2974.868        3.534        1.200      215.919       67.958        0.099      333.854        3.440      858.004
01/31/2014  12:39:00      -42.077      187.728       -0.247       98.765      109.492       70.568     9754.484    11988.413     4979.797        3.186        1.336      192.386       58.101        0.091      334.008        3.695      858.012
01/31/2014  12:40:00      -79.641      141.830        5.318       88.354      115.977       61.305     7806.434    13450.621     3758.249        2.575        1.251      162.660       56.911        0.122      334.175        3.973      858.009
01/31/2014  12:41:00      -26.713      342.885      -34.582      102.219      133.209       71.304    10448.643    17744.664     5084.295        7.637        1.664      343.924       73.674        0.046      333.635        3.075      858.001
01/31/2014  12:42:00      -58.070      405.789      -45.072      117.074      120.296       64.412    13706.361    14471.022     4148.858       10.119        1.616      409.923       59.069        0.021      333.677        3.147      857.988
01/31/2014  12:43:00       47.214      440.187      -49.968       72.986      138.209       73.760     5327.025    19101.723     5440.519       11.417        1.493      442.712       78.826        0.032      333.414        2.710      857.990
01/31/2014  12:44:00       72.945      350.782      -25.590       96.862      177.047       99.443     9382.160    31345.743     9888.827        8.981        2.531      358.286      111.539        0.097      333.473        2.808      857.973
01/31/2014  12:45:00       -1.455      291.376      -29.762       92.870      112.452       73.066     8624.847    12645.478     5338.593        5.619        1.330      291.379       55.511        0.036      333.685        3.159      857.947
01/31/2014  12:46:00     -105.665      280.116      -30.277      101.038      129.509       50.444    10208.670    16772.673     2544.620        6.003        1.476      299.383       42.953        0.021      333.912        3.534      857.953
01/31/2014  12:47:00      -83.312      358.878      -25.288       87.857      171.198       60.378     7718.922    29308.899     3645.446        8.852        2.034      368.421       80.107        0.047      333.734        3.241      857.982
01/31/2014  12:48:00      -92.717      210.983      -17.728      114.741      154.796       67.360    13165.492    23961.799     4537.414        4.754        2.083      230.457       71.159        0.095      333.819        3.380      857.970
01/31/2014  12:49:00      -52.220      423.149      -56.391      119.826      170.136       67.756    14358.242    28946.349     4590.941       11.642        2.395      426.358       86.425        0.041      333.681        3.153      857.960
01/31/2014  12:50:00     -181.104      229.389      -49.062      128.185       92.220       50.154    16431.378     8504.548     2515.379        5.763        1.373      292.263       46.598        0.025      333.817        3.377      857.985
01/31/2014  12:51:00     -101.765      151.980      -10.762       63.377       81.720       52.260     4016.700     6678.154     2731.091        2.350        0.671      182.905       47.148        0.066      334.087        3.827      857.968
01/31/2014  12:52:00      -69.755      229.425      -10.781       77.073      140.412       54.613     5940.304    19715.471     2982.628        4.312        1.432      239.795       58.829        0.060      333.782        3.320      857.969
01/31/2014  12:53:00     -117.913      399.937      -31.755      101.999      164.606       71.159    10403.870    27095.010     5063.673       10.870        2.128      416.957       67.382        0.026      333.620        3.051      857.945
01/31/2014  12:54:00     -248.098      325.875      -70.650      127.221      128.574       73.945    16185.105    16531.170     5467.799       10.545        1.909      409.569       74.403        0.033      333.653        3.107      857.987
01/31/2014  12:55:00     -119.788      251.731      -26.168       90.074      130.956       63.137     8113.346    17149.351     3986.325        5.382        1.462      278.779       73.273        0.069      333.678        3.147      857.986
01/31/2014  12:56:00      -15.313      309.762      -43.540       57.355       55.625       35.668     3289.627     3094.133     1272.179        5.287        0.383      310.140       26.069        0.007      333.512        2.871      857.943
01/31/2014  12:57:00     -186.637      234.014      -37.993       98.978      125.804       65.950     9796.716    15826.531     4349.431        6.050        1.499      299.326       70.483        0.055      333.665        3.127      857.959
01/31/2014  12:58:00     -207.742      258.128      -52.587      115.810      129.109       66.514    13411.999    16669.173     4424.121        7.352        1.725      331.341       82.801        0.062      333.480        2.819      857.961
01/31/2014  12:59:00     -148.289      312.412      -35.328       69.048       96.163       56.074     4767.587     9247.337     3144.245        6.900        0.858      345.820       49.619        0.021      333.324        2.560      857.973
01/31/2014  13:00:00     -109.613      191.997      -20.371       76.678      125.431       41.945     5879.440    15732.884     1759.401        3.633        1.169      221.083       40.446        0.033      333.427        2.733      857.945
01/31/2014  13:01:00      -99.486      305.073      -24.795       89.667      160.356       62.101     8040.098    25714.116     3856.502        7.059        1.881      320.884       81.765        0.065      333.474        2.810      857.938
01/31/2014  13:02:00      -59.314      222.176      -17.727       81.270      119.006       51.254     6604.805    14162.358     2626.988        3.829        1.170      229.957       56.705        0.061      333.472        2.806      857.917
01/31/2014  13:03:00      -85.474      313.133      -34.123       64.614      107.492       41.891     4174.974    11554.518     1754.828        6.200        0.874      324.589       33.597        0.011      333.211        2.376      857.892
01/31/2014  13:04:00     -192.862      151.163      -34.341       87.266       71.372       51.795     7615.420     5093.928     2682.700        3.831        0.770      245.043       34.275        0.020      333.689        3.165      857.869
01/31/2014  13:05:00     -116.294      173.136       -8.933       93.069      126.071       63.852     8661.766    15893.950     4077.074        3.610        1.432      208.567       56.277        0.073      333.550        2.936      857.885
01/31/2014  13:06:00     -106.376       89.460       -9.761       81.465      107.792       46.806     6636.533    11619.053     2190.791        1.993        1.022      138.993       44.130        0.101      333.876        3.477      857.866
01/31/2014  13:07:00      -83.124      353.184      -42.283       97.501      137.404       47.718     9506.370    18879.909     2276.983        8.204        1.533      362.834       44.348        0.015      333.402        2.690      857.887
01/31/2014  13:08:00      -34.125      241.537      -24.484       56.591       92.273       46.695     3202.489     8514.235     2180.459        3.700        0.695      243.936       46.695        0.037      333.325        2.563      857.865
01/31/2014  13:09:00      -26.207      121.671       17.517       75.777       64.131       55.191     5742.138     4112.743     3046.089        1.435        0.645      124.461       55.173        0.197      333.632        3.074      857.859
01/31/2014  13:10:00     -160.476       94.964      -36.156       55.055       54.432       33.375     3031.064     2962.834     1113.878        2.159        0.355      186.469       24.783        0.018      333.434        2.746      857.866
01/31/2014  13:11:00      -82.851      221.602      -26.532       62.063       76.963       46.146     3851.758     5923.307     2129.411        3.429        0.595      236.584       43.564        0.034      333.611        3.035      857.862
01/31/2014  13:12:00      -74.290      125.574       -6.293       71.269       82.711       49.014     5079.338     6841.109     2402.326        1.782        0.716      145.904       39.872        0.075      333.884        3.490      857.878
01/31/2014  13:13:00     -153.496       38.321      -10.046       70.295       54.334       50.459     4941.348     2952.162     2546.096        1.778        0.522      158.208       42.404        0.072      333.742        3.254      857.885
01/31/2014  13:14:00      -42.477       42.625       27.566       66.358       57.342       51.935     4403.371     3288.141     2697.279        0.738        0.519       60.176       17.613        0.086      334.139        3.915      857.860
01/31/2014  13:15:00     -231.066      -34.981      -27.871       73.084       63.223       32.881     5341.282     3997.204     1081.157        3.290        0.521      233.699       17.167        0.005      333.741        3.249      857.848
01/31/2014  13:16:00      -90.884      162.138      -11.058       77.575      112.448       46.275     6017.834    12644.556     2141.340        2.773        1.040      185.872       40.792        0.048      333.581        2.988      857.861
01/31/2014  13:17:00     -139.203       90.667      -18.135       74.544       81.899       45.573     5556.822     6707.462     2076.887        2.113        0.717      166.126       48.438        0.085      333.702        3.188      857.862
01/31/2014  13:18:00     -106.625      103.356      -10.817       79.847      101.045       52.591     6375.619    10210.006     2765.793        2.076        0.968      148.497       56.572        0.145      333.695        3.177      857.867
01/31/2014  13:19:00      -87.217      182.298      -27.401       71.122       82.932       44.318     5058.340     6877.765     1964.069        2.774        0.695      202.088       43.675        0.047      333.594        3.009      857.862
01/31/2014  13:20:00       26.248      107.413       -6.120       69.952       84.211       40.291     4893.249     7091.573     1623.359        1.293        0.680      110.574       48.501        0.192      333.733        3.241      857.853
01/31/2014  13:21:00       35.742       94.030        6.347       36.901       58.667       39.683     1361.658     3441.802     1574.706        0.827        0.319      100.594       36.930        0.135      333.715        3.211      857.849
01/31/2014  13:22:00      105.723      143.395        9.566       78.372       86.220       76.330     6142.107     7433.812     5826.277        2.561        0.970      178.156       60.732        0.116      333.802        3.354      857.845
01/31/2014  13:23:00        5.698       63.617       29.484      197.413      112.676       83.142    38972.072    12695.781     6912.599        3.175        2.929       63.872       77.998        1.491      334.135        3.904      857.786
01/31/2014  13:24:00     -152.882      125.962      -26.130       84.350       83.018       51.098     7114.987     6892.047     2611.019        2.827        0.831      198.089       42.387        0.046      334.166        3.957      857.853
01/31/2014  13:25:00      -89.762      253.949      -19.598      105.952      152.200       56.629    11225.799    23164.736     3206.894        5.526        1.880      269.346       73.069        0.074      333.977        3.643      857.886
01/31/2014  13:26:00     -111.123      313.908      -32.104       60.250      125.114       55.939     3630.043    15653.521     3129.158        6.716        1.121      332.996       59.356        0.032      333.648        3.097      857.901
01/31/2014  13:27:00     -134.293      203.917      -27.991       79.633       94.610       55.740     6341.335     8951.109     3106.898        3.940        0.920      244.166       48.627        0.040      333.526        2.896      857.893
01/31/2014  13:28:00     -118.064       86.987      -18.448       69.496       96.801       43.198     4829.692     9370.376     1866.065        1.895        0.803      146.649       43.806        0.089      333.504        2.862      857.855
01/31/2014  13:29:00     -193.752      309.585      -59.332       99.675      127.050       64.334     9935.051    16141.773     4138.849        8.355        1.511      365.216       74.321        0.041      333.589        3.000      857.856
01/31/2014  13:30:00     -119.631      306.827      -56.199      146.634      105.512       62.619    21501.454    11132.703     3921.145        7.408        1.828      329.324       66.434        0.041      333.578        2.982      857.862
01/31/2014  13:31:00       53.461      179.671       -3.744       61.477      121.640       79.990     3779.431    14796.231     6398.432        3.006        1.249      187.456       75.826        0.164      333.605        3.027      857.867
01/31/2014  13:32:00       80.048      194.152        2.410      111.741      111.056       71.571    12486.074    12333.441     5122.410        3.702        1.497      210.006       67.021        0.102      333.616        3.044      857.868
01/31/2014  13:33:00       62.111      106.885        7.480       60.197       81.946       63.530     3623.738     6715.118     4036.103        1.485        0.719      123.621       51.682        0.175      333.663        3.123      857.876
01/31/2014  13:34:00       12.495      110.134       -2.777       50.919       46.938       35.329     2592.753     2203.213     1248.124        0.917        0.302      110.840       33.445        0.091      333.727        3.231      857.875
01/31/2014  13:35:00      -55.749      108.419      -23.185       63.016       61.372       38.112     3970.972     3766.500     1452.505        1.229        0.459      121.912       38.138        0.098      334.054        3.773      857.887
01/31/2014  13:36:00     -145.861      149.702      -35.870      110.271      138.852       63.886    12159.683    19279.968     4081.426        4.024        1.776      209.012       81.131        0.151      334.010        3.699      857.888
01/31/2014  13:37:00     -199.370       71.692      -25.199      118.244       85.285       41.841    13981.570     7273.584     1750.694        3.426        1.150      211.868       47.838        0.051      333.809        3.364      857.894
01/31/2014  13:38:00      -32.181      180.902      -23.905       58.695       78.431       42.140     3445.065     6151.404     1775.748        2.285        0.569      183.742       42.309        0.053      334.022        3.717      857.904
01/31/2014  13:39:00       61.442      191.145       -1.130       87.161      150.641       70.096     7597.083    22692.831     4913.506        3.775        1.760      200.778       75.290        0.141      333.928        3.564      857.900
01/31/2014  13:40:00     -130.948      285.006      -31.943       91.942      151.041       61.745     8453.309    22813.442     3812.411        6.723        1.754      313.650       50.697        0.026      333.577        2.981      857.917
01/31/2014  13:41:00      -95.525      124.178      -12.953      105.180       98.796       58.785    11062.932     9760.746     3455.671        2.449        1.214      156.669       57.479        0.135      333.916        3.543      857.918
01/31/2014  13:42:00     -127.574      172.644      -32.950      114.574       77.364       51.836    13127.307     5985.214     2686.999        3.448        1.090      214.665       32.149        0.022      333.798        3.347      857.923
01/31/2014  13:43:00      -98.617      301.891      -33.945       86.305      111.595       58.019     7448.519    12453.512     3366.188        6.264        1.163      317.590       55.769        0.031      333.631        3.070      857.939
01/31/2014  13:44:00     -138.450      237.461      -50.007      126.216      111.108       52.478    15930.575    12345.009     2753.975        5.454        1.551      274.875       66.312        0.058      333.643        3.090      857.937
01/31/2014  13:45:00      -67.490      243.597      -20.529       65.489      106.889       49.747     4288.822    11425.312     2474.745        4.125        0.909      252.773       47.337        0.035      333.773        3.305      857.946
01/31/2014  13:46:00     -100.438      333.991      -28.487       80.357      101.627       58.469     6457.197    10327.989     3418.625        7.132        1.010      348.766       58.499        0.028      333.614        3.042      857.940
01/31/2014  13:47:00     -161.621      245.289      -39.651       94.251       94.773       52.018     8883.273     8981.927     2705.924        5.421        1.029      293.748       38.766        0.017      333.794        3.339      857.965
01/31/2014  13:48:00      -78.418      327.264      -28.589       76.596      107.824       55.486     5866.887    11625.922     3078.676        6.732        1.029      336.528       46.629        0.019      333.721        3.218      857.985
01/31/2014  13:49:00      -93.017      332.164      -26.794       74.453      130.733       62.962     5543.185    17091.070     3964.180        7.315        1.330      344.942       62.351        0.033      333.815        3.373      857.970
01/31/2014  13:50:00     -265.594      214.676      -59.411       96.859      100.354       55.192     9381.571    10070.844     3046.169        7.132        1.125      341.505       51.953        0.023      333.689        3.164      857.983
01/31/2014  13:51:00     -186.377      178.268      -34.088      132.615      119.740       67.896    17586.643    14337.765     4609.863        5.210        1.827      257.907       78.760        0.093      333.924        3.556      857.972
01/31/2014  13:52:00     -181.690      204.388      -40.249      103.010      130.874       46.763    10610.959    17127.937     2186.755        5.316        1.496      273.470       43.586        0.025      333.777        3.312      857.974
01/31/2014  13:53:00     -127.528      156.159      -23.921       72.556       87.318       52.362     5264.428     7624.507     2741.750        2.842        0.782      201.616       48.547        0.058      333.790        3.334      857.965
01/31/2014  13:54:00     -109.797       19.705       -3.745       86.794       62.131       50.991     7533.129     3860.270     2600.115        1.322        0.700      111.551       51.979        0.217      334.158        3.945      857.928
01/31/2014  13:55:00      -32.112       96.245        2.632       45.512       98.672       39.435     2071.326     9736.213     1555.137        1.183        0.668      101.461       27.423        0.073      333.824        3.393      857.932
01/31/2014  13:56:00     -125.567      166.823      -30.793       75.943       89.947       43.491     5767.266     8090.467     1891.429        3.014        0.787      208.799       42.631        0.042      333.901        3.517      857.912
01/31/2014  13:57:00     -138.593      253.663      -31.893       77.423      104.219       52.431     5994.387    10861.654     2748.989        5.208        0.980      289.055       57.625        0.040      333.713        3.206      857.913
01/31/2014  13:58:00      103.459      194.134      -19.057      110.284      105.679       82.888    12162.657    11167.948     6870.431        3.947        1.510      219.981       68.499        0.097      334.075        3.806      857.886
01/31/2014  13:59:00       34.053      286.342      -47.849      116.472      134.724       73.321    13565.634    18150.433     5375.968        6.126        1.855      288.360       65.141        0.051      334.016        3.706      857.879
01/31/2014  14:00:00      -69.229      311.616      -26.312       90.448      117.670       62.440     8180.836    13846.343     3898.731        6.425        1.296      319.213       65.942        0.043      334.076        3.806      857.915
01/31/2014  14:01:00       71.480      133.352       -2.289      115.933      103.563       76.097    13440.560    10725.197     5790.715        2.642        1.498      151.301       61.397        0.165      334.112        3.867      857.905
01/31/2014  14:02:00       53.717      226.484      -17.069      158.949      156.239       76.519    25264.656    24410.767     5855.113        5.499        2.777      232.767       87.107        0.140      333.755        3.275      857.890
01/31/2014  14:03:00     -119.421      387.339      -54.020      113.621      142.641       55.311    12909.658    20346.558     3059.290       10.176        1.816      405.331       58.414        0.021      333.609        3.033      857.936
01/31/2014  14:04:00     -135.403      266.090      -43.277      119.621      117.309       64.841    14309.168    13761.292     4204.325        6.164        1.614      298.560       70.743        0.056      333.845        3.424      857.910
01/31/2014  14:05:00      -38.673      295.155      -34.323      103.890      162.725       57.195    10793.228    26479.513     3271.257        6.516        2.027      297.678       77.505        0.068      333.854        3.438      857.911
01/31/2014  14:06:00      -17.452      159.401       -3.374       94.241      145.507       62.501     8881.328    21172.256     3906.331        2.984        1.698      160.353       75.443        0.221      334.015        3.708      857.901
01/31/2014  14:07:00      -15.447      173.899        4.925       94.561      160.065       65.164     8941.692    25620.731     4246.378        3.465        1.940      174.584       87.616        0.252      333.971        3.634      857.896
01/31/2014  14:08:00      102.369      244.242       -4.727      125.783      168.754       89.514    15821.478    28478.008     8012.767        6.123        2.616      264.828       91.005        0.118      333.860        3.450      857.875
01/31/2014  14:09:00       27.067      242.621      -17.116       86.662      131.398       82.139     7510.381    17265.479     6746.772        4.570        1.576      244.127       70.922        0.084      333.852        3.436      857.879
01/31/2014  14:10:00      -34.545      249.505      -30.712       81.884      115.218       60.366     6705.014    13275.158     3644.097        4.400        1.181      251.885       60.841        0.058      333.925        3.556      857.876
01/31/2014  14:11:00     -146.240      306.985      -46.521      129.575      103.239       59.592    16789.770    10658.263     3551.201        7.439        1.550      340.038       67.754        0.040      333.945        3.590      857.905
01/31/2014  14:12:00     -189.488      194.711      -44.171      115.288       99.620       64.324    13291.376     9924.239     4137.625        5.156        1.368      271.694       70.653        0.068      333.847        3.427      857.920
01/31/2014  14:13:00     -124.920      181.737      -22.268      123.296      135.160       56.986    15201.997    18268.328     3247.453        4.292        1.836      220.530       51.237        0.054      333.985        3.657      857.908
01/31/2014  14:14:00     -116.954      234.794      -19.510       96.209      115.530       58.867     9256.187    13347.089     3465.357        4.762        1.303      262.310       53.324        0.041      334.030        3.731      857.898
01/31/2014  14:15:00     -134.918      225.466      -29.435       92.814      144.807       53.202     8614.381    20968.984     2830.402        5.115        1.621      262.750       61.888        0.055      334.045        3.756      857.893
01/31/2014  14:16:00     -110.809      283.771      -45.405      132.530       90.808       64.064    17564.326     8246.125     4104.135        6.239        1.496      304.638       63.903        0.044      333.877        3.475      857.933
01/31/2014  14:17:00      -40.195      283.556      -32.434       54.247       78.507       35.989     2942.777     6163.353     1295.177        4.673        0.520      286.391       30.418        0.011      333.670        3.133      857.929
01/31/2014  14:18:00      -28.450      353.867      -40.999       63.777       91.602       49.315     4067.560     8390.980     2431.957        7.130        0.745      355.009       46.182        0.017      333.792        3.336      857.919
01/31/2014  14:19:00       -1.047      298.297      -24.137       86.947      155.774       71.121     7559.819    24265.593     5058.239        6.322        1.844      298.299       86.925        0.085      333.724        3.221      857.917
01/31/2014  14:20:00      -54.444      356.634      -50.537       59.109       85.348       36.699     3493.861     7284.259     1346.832        7.241        0.606      360.766       29.160        0.007      333.700        3.184      857.930
01/31/2014  14:21:00      -93.451      335.239      -38.133      101.607       93.930       53.438    10324.047     8822.922     2855.600        7.228        1.100      348.021       53.881        0.024      333.653        3.106      857.940
01/31/2014  14:22:00      -19.259      274.793      -31.584       70.105      101.532       53.448     4914.749    10308.847     2856.717        4.748        0.904      275.467       51.748        0.035      333.760        3.284      857.905
01/31/2014  14:23:00      -24.063       70.490      -17.109       60.492       85.041       36.018     3659.277     7231.914     1297.286        0.901        0.609       74.484       28.988        0.151      334.056        3.778      857.897
01/31/2014  14:24:00      -49.569      175.300      -13.974       68.426      114.585       50.335     4682.072    13129.814     2533.602        2.686        1.017      182.174       53.107        0.085      334.237        4.074      857.902
01/31/2014  14:25:00      -57.695      204.254      -12.941       77.353      143.976       56.542     5983.431    20728.970     3196.971        3.756        1.495      212.247       68.253        0.103      334.235        4.072      857.916
01/31/2014  14:26:00     -129.894      161.869      -30.760       54.126       86.661       40.372     2929.653     7510.109     1629.916        2.804        0.603      207.543       34.906        0.028      333.940        3.581      857.908
01/31/2014  14:27:00      -67.265      216.170      -18.773       58.224      101.201       50.933     3390.071    10241.596     2594.130        3.391        0.811      226.393       47.523        0.044      334.091        3.833      857.883
01/31/2014  14:28:00      -24.597      351.032      -30.957       95.136      120.325       67.690     9050.896    14478.119     4581.988        7.644        1.406      351.893       65.576        0.035      334.033        3.736      857.907
01/31/2014  14:29:00      -92.142      150.970      -15.930       75.706      107.554       55.511     5731.444    11567.833     3081.449        2.595        1.019      176.868       56.970        0.104      334.313        4.201      857.913
01/31/2014  14:30:00      -82.232      252.788      -15.105       73.036      213.247       57.315     5334.204    45474.466     3284.963        6.248        2.705      265.827       86.846        0.107      334.200        4.013      857.930
01/31/2014  14:31:00      -67.021      279.481      -27.840      106.938      123.208       70.980    11435.661    15180.275     5038.196        5.751        1.583      287.405       66.247        0.053      333.954        3.604      857.933
01/31/2014  14:32:00     -120.052      281.498      -32.095       70.372       78.441       50.287     4952.241     6152.913     2528.830        5.416        0.682      306.029       46.686        0.023      333.852        3.435      857.928
01/31/2014  14:33:00     -106.322      228.961      -19.586       89.755      101.995       57.361     8056.000    10402.986     3290.336        4.293        1.087      252.443       51.173        0.041      334.103        3.851      857.918
01/31/2014  14:34:00     -215.934      193.301      -33.887      128.137      145.012       70.459    16418.997    21028.541     4964.403        6.377        2.121      289.815       67.265        0.054      333.944        3.588      857.929
01/31/2014  14:35:00     -218.925      219.417      -45.190      100.233      111.579       60.550    10046.654    12449.778     3666.349        6.213        1.308      309.954       50.715        0.027      333.804        3.356      857.941
01/31/2014  14:36:00     -170.038      167.430      -17.920       94.423      116.516       69.569     8915.748    13575.924     4839.849        4.229        1.367      238.634       65.383        0.075      333.946        3.590      857.950
01/31/2014  14:37:00     -149.753      252.012      -36.665       98.152      112.125       52.501     9633.909    12571.982     2756.365        5.612        1.248      293.149       51.533        0.031      333.786        3.326      857.938
01/31/2014  14:38:00     -146.819      137.781      -31.765       88.151      117.316       51.099     7770.615    13763.109     2611.102        3.284        1.207      201.344       35.028        0.030      334.076        3.807      857.916
01/31/2014  14:39:00     -121.139      270.552      -36.819       63.136      102.049       41.560     3986.157    10414.056     1727.234        5.268        0.806      296.434       38.476        0.017      333.910        3.530      857.922
01/31/2014  14:40:00       -7.575      200.005      -11.014       75.863       97.271       55.472     5755.184     9461.563     3077.186        2.923        0.915      200.148       56.640        0.080      334.258        4.108      857.919
01/31/2014  14:41:00       -4.734      151.098      -12.896       67.608      100.422       51.870     4570.890    10084.628     2690.495        2.018        0.867      151.172       52.171        0.119      334.237        4.075      857.918
01/31/2014  14:42:00     -139.086      233.933      -37.548      105.290       92.205       47.594    11085.922     8501.689     2265.184        4.866        1.093      272.157       42.954        0.025      334.044        3.753      857.955
01/31/2014  14:43:00      -99.406      140.312      -15.003       88.130       81.654       50.753     7766.861     6667.327     2575.817        2.340        0.851      171.956       49.252        0.082      333.977        3.643      857.964
01/31/2014  14:44:00      -60.770      335.517      -43.460      121.711      149.818       61.722    14813.457    22445.531     3809.654        7.960        2.053      340.976       67.520        0.039      333.810        3.365      857.961
01/31/2014  14:45:00     -113.838      244.841      -35.410       83.970       78.919       48.551     7050.996     6228.239     2357.244        4.490        0.782      270.011       48.118        0.032      333.847        3.425      857.966
01/31/2014  14:46:00       11.162      296.759      -30.548       80.116      143.072       59.144     6418.608    20469.683     3498.044        5.975        1.519      296.969       61.075        0.042      333.854        3.438      857.955
01/31/2014  14:47:00      -12.500      324.521      -39.191       80.132      126.068       52.752     6421.207    15893.123     2782.823        6.605        1.255      324.762       52.393        0.026      333.802        3.351      857.948
01/31/2014  14:48:00      -65.335       76.603       -2.814       44.100       64.710       34.446     1944.806     4187.445     1186.494        0.873        0.366      100.681       31.541        0.098      334.353        4.269      857.950
01/31/2014  14:49:00      -22.420       78.170        1.135       58.730      103.714       42.877     3449.155    10756.695     1838.415        1.133        0.802       81.321       40.529        0.248      334.321        4.215      857.950
01/31/2014  14:50:00      -60.613      105.185       15.294       85.461      124.128       60.221     7303.532    15407.712     3626.530        2.065        1.317      121.399       59.641        0.241      334.328        4.227      857.952
01/31/2014  14:51:00     -145.587      124.627      -14.794      110.312      116.544       63.758    12168.664    13582.565     4065.087        3.338        1.491      191.644       71.126        0.138      334.099        3.847      857.971
01/31/2014  14:52:00     -166.192      241.666      -38.425       95.216       89.717       57.928     9066.056     8049.226     3355.692        5.398        1.024      293.295       55.980        0.036      333.871        3.467      857.995
01/31/2014  14:53:00     -178.973      132.852      -18.931      123.152       94.376       61.258    15166.408     8906.743     3752.559        3.893        1.391      222.892       60.932        0.075      334.145        3.921      857.989
01/31/2014  14:54:00      -99.096      201.857      -20.968       79.518       86.419       43.384     6323.162     7468.312     1882.198        3.334        0.784      224.870       39.321        0.031      334.117        3.875      857.993
01/31/2014  14:55:00      -78.345       70.459       -2.100       90.612       95.579       39.998     8210.617     9135.289     1599.822        1.502        0.947      105.369       48.927        0.216      334.306        4.192      857.987
01/31/2014  14:56:00     -123.030      361.225      -37.228       70.964      168.156       63.280     5035.941    28276.459     4004.313        9.215        1.866      381.602       72.127        0.036      333.763        3.289      858.012
01/31/2014  14:57:00     -160.262      254.716      -22.116       79.988       94.639       61.485     6398.136     8956.499     3780.371        5.509        0.957      300.938       42.320        0.020      333.948        3.592      858.007
01/31/2014  14:58:00      -69.781      296.501      -37.896       62.005       74.105       46.406     3844.634     5491.526     2153.485        5.285        0.574      304.601       31.785        0.011      333.881        3.481      858.014
01/31/2014  14:59:00      -99.257      190.812       -4.438       91.023      130.138       74.056     8285.140    16935.836     5484.251        3.849        1.535      215.085       70.857        0.109      334.062        3.784      858.030
01/31/2014  15:00:00     -142.710      371.663      -35.115       93.820      135.053       67.072     8802.141    18239.246     4498.591        9.563        1.577      398.120       76.022        0.036      333.689        3.165      858.054
01/31/2014  15:01:00     -174.589      317.344      -52.097      170.494      155.545       74.924    29068.102    24194.190     5613.626        9.638        2.944      362.200       96.145        0.070      333.751        3.268      858.051
01/31/2014  15:02:00      -80.910      390.247      -50.281       77.906      135.599       61.362     6069.314    18387.138     3765.284        9.479        1.411      398.547       66.945        0.028      333.761        3.284      858.062
01/31/2014  15:03:00     -191.932      397.495      -50.183       94.511      101.855       71.550     8932.400    10374.354     5119.444       11.089        1.221      441.407       65.726        0.022      333.738        3.246      858.081
01/31/2014  15:04:00     -139.908      360.138      -45.601      116.067      108.117       62.764    13471.659    11689.189     3939.340        9.022        1.455      386.359       54.311        0.020      333.734        3.240      858.094
01/31/2014  15:05:00     -173.987      184.291      -40.359      105.203      136.036       66.424    11067.599    18505.907     4412.169        4.992        1.699      253.446       59.333        0.055      333.961        3.615      858.094
01/31/2014  15:06:00      -79.817      354.141      -41.473       81.164      137.843       61.277     6587.627    19000.603     3754.899        8.142        1.467      363.024       68.050        0.035      333.746        3.260      858.121
01/31/2014  15:07:00     -117.059      287.087      -27.309       90.472      102.659       53.954     8185.110    10538.905     2911.031        5.925        1.082      310.035       52.183        0.028      333.772        3.303      858.119
01/31/2014  15:08:00      -63.740      230.092      -23.952       67.291      130.723       44.150     4528.043    17088.623     1949.256        4.057        1.178      238.757       56.095        0.055      333.821        3.386      858.108
01/31/2014  15:09:00      -82.175      169.085      -31.246       74.246      100.085       50.241     5512.511    10017.054     2524.153        2.718        0.903      187.996       41.495        0.049      334.035        3.739      858.099
01/31/2014  15:10:00      -48.375      165.847      -16.894       67.621       73.679       40.787     4572.537     5428.630     1663.565        2.090        0.583      172.758       36.671        0.045      334.165        3.956      858.114
01/31/2014  15:11:00      -33.274      228.573      -27.303       45.139       84.031       38.213     2037.566     7061.147     1460.256        3.233        0.528      230.982       33.742        0.021      334.075        3.806      858.120
01/31/2014  15:12:00      -72.555      211.797      -15.796       66.240      124.134       49.296     4387.694    15409.346     2430.098        3.630        1.111      223.880       55.735        0.062      334.210        4.030      858.150
01/31/2014  15:13:00     -171.444      354.093      -44.312       87.765      102.142       57.350     7702.778    10433.089     3288.988        8.908        1.071      393.415       46.823        0.014      333.755        3.273      858.186
01/31/2014  15:14:00     -146.690      236.469      -28.171       82.191      109.469       59.365     6755.439    11983.434     3524.258        5.024        1.113      278.273       57.768        0.043      333.844        3.422      858.194
01/31/2014  15:15:00     -100.516      226.174      -27.359      102.268      107.811       54.400    10458.666    11623.283     2959.348        4.352        1.252      247.504       53.974        0.048      333.905        3.524      858.203
01/31/2014  15:16:00      -78.447      337.123      -42.935       86.087      148.922       65.639     7410.949    22177.814     4308.518        7.777        1.695      346.130       68.139        0.039      333.994        3.671      858.210
01/31/2014  15:17:00     -147.029      328.307      -36.300       79.968      150.562       55.854     6394.848    22669.019     3119.633        8.145        1.609      359.727       50.753        0.020      333.828        3.395      858.236
01/31/2014  15:18:00      -40.527      346.567      -32.108       81.959      107.427       55.464     6717.297    11540.599     3076.240        7.205        1.067      348.929       46.970        0.018      333.928        3.561      858.241
01/31/2014  15:19:00     -174.898      271.658      -34.203       82.914      102.901       60.234     6874.730    10588.589     3628.159        6.332        1.055      323.090       54.639        0.029      333.886        3.492      858.254
01/31/2014  15:20:00     -103.022      313.471      -39.257       74.116      191.000       54.577     5493.240    36480.933     2978.627        7.768        2.248      329.966       74.976        0.052      333.935        3.573      858.277
01/31/2014  15:21:00     -135.793      302.107      -31.695       87.484      114.623       53.056     7653.532    13138.516     2814.917        6.716        1.180      331.223       49.677        0.022      333.918        3.546      858.289
01/31/2014  15:22:00     -137.118      261.763      -36.482       92.782      137.868       58.996     8608.487    19007.484     3480.523        5.987        1.555      295.502       64.528        0.048      333.986        3.657      858.280
01/31/2014  15:23:00     -195.698      224.405      -51.390       72.905       93.557       51.479     5315.115     8752.909     2650.124        5.400        0.836      297.750       45.400        0.023      333.761        3.285      858.318
01/31/2014  15:24:00     -119.711      137.109      -12.044       88.906       82.518       48.803     7904.268     6809.204     2381.705        2.518        0.855      182.015       47.619        0.068      334.010        3.698      858.300
01/31/2014  15:25:00      -77.564      236.509      -35.560       74.292       93.413       38.868     5519.331     8726.015     1510.740        3.948        0.788      248.903       36.372        0.021      333.932        3.568      858.298
01/31/2014  15:26:00      -44.035      330.011      -29.548       68.209      117.940       56.608     4652.486    13909.916     3204.435        6.674        1.088      332.936       62.825        0.036      333.983        3.652      858.299
01/31/2014  15:27:00      -76.466      282.986      -33.558       77.513      160.553       52.388     6008.288    25777.130     2744.537        6.079        1.726      293.135       61.918        0.045      334.041        3.747      858.310
01/31/2014  15:28:00      -37.255      511.763      -56.267      103.084      193.939       77.163    10626.222    37612.155     5954.158       16.031        2.710      513.117       84.307        0.027      333.718        3.215      858.306
01/31/2014  15:29:00     -156.844      367.591      -50.495       98.168      149.700       69.320     9636.898    22410.112     4805.202        9.956        1.843      399.654       58.289        0.021      333.793        3.338      858.354
01/31/2014  15:30:00     -131.849      372.826      -40.754       70.454      116.751       60.448     4963.724    13630.730     3653.942        9.014        1.112      395.453       58.556        0.022      333.685        3.159      858.357
01/31/2014  15:31:00      -92.077      423.618      -48.588      108.546      185.843       58.198    11782.167    34537.689     3386.980       11.999        2.485      433.509       53.121        0.015      333.714        3.206      858.370
01/31/2014  15:32:00      -77.548      424.225      -45.990       88.111      128.760       53.700     7763.562    16579.187     2883.742       10.766        1.361      431.254       46.476        0.012      333.553        2.940      858.390
01/31/2014  15:33:00      -92.340      299.500      -36.352       81.466      101.713       50.024     6636.789    10345.559     2502.369        5.951        0.974      313.411       41.168        0.017      333.716        3.209      858.375
01/31/2014  15:34:00     -153.173      311.226      -39.672      114.430      136.803       63.685    13094.173    18715.107     4055.803        7.888        1.793      346.877       64.804        0.035      333.742        3.254      858.381
01/31/2014  15:35:00     -131.434      293.888      -33.004      112.497      123.904       62.582    12655.658    15352.168     3916.505        6.832        1.596      321.939       59.808        0.035      333.689        3.166      858.390
01/31/2014  15:36:00      -40.988      335.769      -23.059       84.734      130.764       72.396     7179.892    17099.116     5241.155        7.223        1.476      338.262       77.834        0.053      333.613        3.039      858.381
01/31/2014  15:37:00     -176.339      289.022      -47.322       97.916      103.361       65.269     9587.591    10683.484     4260.107        7.070        1.227      338.569       69.498        0.042      333.608        3.031      858.396
01/31/2014  15:38:00      -47.948      412.657      -50.572       64.857      114.472       43.485     4206.369    13103.732     1890.985        9.717        0.960      415.433       43.283        0.011      333.596        3.009      858.396
01/31/2014  15:39:00      -73.868      324.308      -41.704      111.357      146.575       60.917    12400.409    21484.295     3710.887        7.498        1.880      332.614       70.458        0.045      333.677        3.145      858.419
01/31/2014  15:40:00      -57.018      451.886      -50.440       88.902      108.622       58.353     7903.613    11798.791     3405.026       11.655        1.155      455.469       56.154        0.015      333.505        2.859      858.413
01/31/2014  15:41:00      -89.150      444.103      -44.753       77.084       91.589       45.155     5941.938     8388.554     2038.986       11.177        0.818      452.963       37.102        0.007      333.536        2.911      858.427
01/31/2014  15:42:00      -59.664      390.374      -37.193       77.723       96.302       54.486     6040.853     9274.006     2968.727        8.781        0.914      394.908       51.526        0.017      333.565        2.959      858.434
01/31/2014  15:43:00      -70.950      294.564      -32.431       66.495      102.224       47.522     4421.560    10449.785     2258.381        5.499        0.856      302.988       51.311        0.029      333.683        3.155      858.439
01/31/2014  15:44:00     -117.345      158.571      -13.121      105.557       95.326       50.147    11142.334     9087.085     2514.746        3.091        1.137      197.268       36.049        0.033      333.839        3.416      858.451
01/31/2014  15:45:00     -172.281      332.812      -42.842       82.941      126.286       54.300     6879.136    15948.120     2948.543        8.402        1.289      374.759       58.044        0.024      333.598        3.013      858.451
01/31/2014  15:46:00     -150.404      306.977      -34.650       93.597       93.745       55.957     8760.471     8788.182     3131.239        6.936        1.034      341.842       52.564        0.024      333.611        3.035      858.442
01/31/2014  15:47:00      -83.537      335.344      -45.060       99.849       90.769       54.725     9969.855     8238.927     2994.865        7.133        1.060      345.592       53.037        0.024      333.661        3.118      858.450
01/31/2014  15:48:00      -35.343      289.069      -18.938       74.179      151.278       63.033     5502.488    22885.100     3973.100        5.876        1.618      291.222       76.521        0.069      333.781        3.318      858.446
01/31/2014  15:49:00      -74.518      337.047      -48.926      115.152      112.199       44.743    13259.955    12588.516     2001.970        7.469        1.393      345.187       48.021        0.019      333.793        3.336      858.472
01/31/2014  15:50:00     -126.751      236.619      -28.131      110.906      148.404       54.915    12300.041    22023.890     3015.642        5.509        1.867      268.429       55.171        0.042      333.790        3.331      858.495
01/31/2014  15:51:00     -101.623      321.818      -42.741       66.667       96.072       41.037     4444.497     9229.904     1684.055        6.554        0.768      337.482       33.530        0.010      333.594        3.006      858.507
01/31/2014  15:52:00      -49.764      182.400      -27.532       77.197       94.981       37.348     5959.380     9021.461     1394.875        2.644        0.819      189.067       36.241        0.037      333.764        3.290      858.502
01/31/2014  15:53:00      -51.363      267.052      -39.954       66.808      106.231       45.730     4463.291    11284.948     2091.267        4.669        0.892      271.947       46.695        0.029      333.683        3.153      858.493
01/31/2014  15:54:00      -63.978      184.483      -12.363       65.101       87.746       41.662     4238.168     7699.422     1735.745        2.597        0.684      195.261       47.780        0.060      333.716        3.211      858.482
01/31/2014  15:55:00     -128.324      271.583      -32.697      117.096       94.438       57.344    13711.553     8918.510     3288.360        5.860        1.296      300.374       54.891        0.033      333.715        3.207      858.482
01/31/2014  15:56:00       11.772      280.950      -21.911       94.986      116.699       63.985     9022.409    13618.582     4094.136        5.314        1.337      281.196       63.780        0.051      333.690        3.168      858.480
01/31/2014  15:57:00      -57.277      355.751      -40.262       87.127      117.519       52.105     7591.188    13810.760     2714.938        7.778        1.206      360.332       54.454        0.023      333.567        2.962      858.486
01/31/2014  15:58:00      -76.992      437.444      -36.072       94.342      164.851       71.127     8900.411    27176.011     5059.065       11.985        2.057      444.168       75.672        0.029      333.533        2.907      858.487
01/31/2014  15:59:00      -67.369      486.559      -55.801       89.802      172.117       52.240     8064.377    29624.142     2729.051       14.240        2.021      491.201       66.378        0.018      333.522        2.888      858.498
01/31/2014  16:00:00      -84.092      372.294      -42.785       98.237       77.824       55.692     9650.433     6056.573     3101.606        8.315        0.940      381.673       47.486        0.015      333.568        2.965      858.520
01/31/2014  16:01:00     -149.046      308.304      -44.139       93.148      102.345       58.296     8676.509    10474.413     3398.418        7.088        1.127      342.441       56.092        0.027      333.576        2.978      858.535
01/31/2014  16:02:00      -49.372      283.271      -15.917       98.060      118.848       67.937     9615.851    14124.740     4615.399        5.564        1.418      287.542       74.549        0.067      333.579        2.983      858.537
01/31/2014  16:03:00     -153.344      326.681      -38.061       87.378      101.565       63.968     7634.981    10315.374     4091.957        7.686        1.102      360.880       59.732        0.027      333.488        2.832      858.538
01/31/2014  16:04:00      -85.947      254.122      -25.502       80.340      104.728       57.718     6454.494    10967.914     3331.353        4.668        1.038      268.263       61.703        0.053      333.537        2.914      858.535
01/31/2014  16:05:00     -108.631      387.863      -42.441       99.106      120.708       53.913     9822.079    14570.316     2906.603        9.566        1.365      402.789       50.323        0.016      333.466        2.796      858.528
01/31/2014  16:06:00      -43.456      351.658      -43.279       89.086      117.325       53.062     7936.315    13765.096     2815.582        7.597        1.226      354.333       52.181        0.022      333.536        2.912      858.517
01/31/2014  16:07:00      -37.237      290.318      -34.656       91.217      144.101       53.788     8320.555    20765.026     2893.141        5.942        1.599      292.697       66.409        0.051      333.549        2.934      858.537
01/31/2014  16:08:00       14.176      216.192      -29.249       71.690      123.343       51.057     5139.392    15213.541     2606.812        3.537        1.148      216.656       58.991        0.074      333.587        2.996      858.530
01/31/2014  16:09:00     -119.871      286.852      -38.409      116.387      153.313       47.747    13545.907    23504.980     2279.775        6.872        1.967      310.891       56.423        0.033      333.578        2.981      858.525
01/31/2014  16:10:00      -54.877      221.970      -18.504       69.662      124.036       48.954     4852.846    15384.818     2396.538        3.763        1.132      228.653       56.920        0.062      333.642        3.088      858.521
01/31/2014  16:11:00      -61.625      284.194      -33.893       74.941      124.295       40.146     5616.193    15449.341     1611.723        5.419        1.134      290.798       46.618        0.026      333.593        3.006      858.527
01/31/2014  16:12:00     -106.864      352.524      -49.982       73.872       91.579       47.053     5457.111     8386.711     2214.016        7.712        0.803      368.365       39.336        0.011      333.543        2.923      858.524
01/31/2014  16:13:00       -9.331      226.378      -23.225       72.224       89.787       45.833     5216.321     8061.618     2100.649        3.362        0.769      226.570       43.263        0.036      333.629        3.065      858.531
01/31/2014  16:14:00      -56.243      356.357      -42.891       62.073      118.264       47.392     3853.085    13986.307     2246.026        7.604        1.004      360.768       56.384        0.024      333.611        3.035      858.531
01/31/2014  16:15:00      -57.073      301.612      -27.791       68.776       94.205       47.405     4730.184     8874.599     2247.281        5.542        0.793      306.964       49.716        0.026      333.617        3.045      858.534
01/31/2014  16:16:00      -82.836      239.185      -22.212       94.225       96.827       47.672     8878.341     9375.533     2272.663        4.254        1.026      253.123       47.896        0.036      333.713        3.205      858.537
01/31/2014  16:17:00      -66.414      185.450      -18.707       62.768       92.075       44.448     3939.811     8477.774     1975.596        2.677        0.720      196.983       50.025        0.064      333.804        3.356      858.548
01/31/2014  16:18:00      -24.466      245.674      -20.279       70.457      115.932       51.262     4964.221    13440.222     2627.804        4.120        1.052      246.889       62.601        0.064      333.644        3.092      858.564
01/31/2014  16:19:00     -122.025      256.253      -41.271       72.516       88.551       53.736     5258.543     7841.194     2887.509        4.912        0.799      283.823       47.067        0.028      333.547        2.931      858.581
01/31/2014  16:20:00     -106.983      170.186      -26.547       81.931       92.748       47.399     6712.752     8602.191     2246.712        2.933        0.878      201.019       45.491        0.051      333.566        2.963      858.581
01/31/2014  16:21:00      -95.009      219.044      -23.675       60.983      105.087       46.199     3718.921    11043.311     2134.370        3.723        0.845      238.761       39.965        0.028      333.560        2.951      858.588
01/31/2014  16:22:00     -173.521      296.576      -39.169       83.834      116.315       57.077     7028.084    13529.103     3257.770        7.170        1.191      343.608       54.567        0.025      333.536        2.912      858.610
01/31/2014  16:23:00     -128.093      246.101      -41.332       68.780      117.566       49.494     4730.747    13821.672     2449.658        4.984        1.050      277.441       57.469        0.043      333.506        2.863      858.629
01/31/2014  16:24:00     -199.566      242.442      -42.972       79.624       98.798       61.474     6340.058     9761.002     3779.011        6.016        0.994      314.014       54.141        0.030      333.568        2.963      858.631
01/31/2014  16:25:00      -90.773      264.851      -42.788      119.485      108.820       57.365    14276.765    11841.766     3290.693        5.481        1.470      279.975       61.915        0.049      333.537        2.914      858.635
01/31/2014  16:26:00      -40.002      261.390      -22.732       79.244      117.052       52.481     6279.678    13701.110     2754.253        4.658        1.137      264.434       58.957        0.050      333.560        2.952      858.645
01/31/2014  16:27:00     -106.864      177.031      -25.922       94.140       68.556       50.395     8862.417     4699.879     2539.666        2.976        0.805      206.785       54.084        0.068      333.649        3.100      858.654
01/31/2014  16:28:00      -23.953      344.497      -41.674       87.854      137.269       66.405     7718.403    18842.831     4409.683        7.597        1.549      345.329       71.911        0.043      333.545        2.927      858.667
01/31/2014  16:29:00      -58.290      360.798      -41.575       77.183       54.792       42.993     5957.174     3002.112     1848.363        7.305        0.540      365.476       35.698        0.010      333.528        2.897      858.689
01/31/2014  16:30:00      -73.308      197.845      -40.582       55.218      106.248       33.071     3049.000    11288.558     1093.675        3.079        0.772      210.990       26.014        0.015      333.635        3.076      858.697
01/31/2014  16:31:00      -68.049       73.594       -8.439       61.557      105.430       44.475     3789.276    11115.517     1978.026        1.350        0.844      100.234       39.991        0.159      333.725        3.227      858.716
01/31/2014  16:32:00      -96.456       31.450       -2.190       75.065       45.603       44.938     5634.700     2079.597     2019.395        1.001        0.487      101.454       36.911        0.132      333.745        3.260      858.717
01/31/2014  16:33:00     -132.358      152.819      -21.665       69.964      119.470       52.872     4895.008    14273.030     2795.412        3.165        1.098      202.169       44.697        0.049      333.585        2.994      858.743
01/31/2014  16:34:00      -85.241       89.391       -6.285       55.344       44.787       31.313     3063.013     2005.905      980.533        1.067        0.302      123.519       19.955        0.026      333.727        3.230      858.761
01/31/2014  16:35:00     -109.253      118.143      -20.957       65.654       80.362       35.842     4310.398     6457.981     1284.655        1.919        0.603      160.916       29.112        0.033      333.611        3.038      858.782
01/31/2014  16:36:00      -32.978      170.871       -8.332       58.817       93.723       42.445     3459.465     8783.998     1801.539        2.220        0.702      174.024       34.615        0.040      333.656        3.113      858.802
01/31/2014  16:37:00      -59.636      143.559      -27.438       72.165       92.370       36.039     5207.790     8532.279     1298.827        1.998        0.752      155.454       35.600        0.052      333.581        2.990      858.816
01/31/2014  16:38:00      -85.095      128.236      -16.921       54.210       71.244       34.839     2938.772     5075.725     1213.726        1.660        0.461      153.902       38.175        0.062      333.666        3.129      858.812
01/31/2014  16:39:00      -30.111      201.743      -23.311       42.145       87.918       34.484     1776.159     7729.660     1189.133        2.642        0.535      203.978       41.237        0.041      333.572        2.973      858.818
01/31/2014  16:40:00      -75.002      183.266      -19.981       55.853       82.559       38.534     3119.515     6816.016     1484.856        2.551        0.571      198.020       42.880        0.047      333.553        2.940      858.823
01/31/2014  16:41:00      -95.649      120.662       -7.770       73.845       94.861       55.862     5453.097     8998.574     3120.566        2.067        0.879      153.974       33.876        0.048      333.516        2.880      858.833
01/31/2014  16:42:00     -127.678       58.965      -19.218       64.169       95.562       32.587     4117.687     9132.055     1061.940        1.723        0.716      140.636       33.503        0.057      333.537        2.915      858.830
01/31/2014  16:43:00     -152.635      186.196      -28.061       73.415      143.273       52.910     5389.834    20527.084     2799.498        4.373        1.436      240.762       54.195        0.051      333.394        2.678      858.851
01/31/2014  16:44:00     -133.572      116.984      -25.148       62.448       91.670       45.850     3899.747     8403.474     2102.211        2.328        0.720      177.558       39.246        0.049      333.444        2.760      858.851
01/31/2014  16:45:00     -102.875      201.747      -18.924       84.863      119.579       54.055     7201.780    14299.219     2921.890        3.803        1.221      226.462       65.856        0.085      333.400        2.689      858.844
01/31/2014  16:46:00     -123.637       85.527      -39.739       56.725       64.906       36.230     3217.701     4212.787     1312.636        1.646        0.437      150.337       20.909        0.019      333.471        2.806      858.835
01/31/2014  16:47:00     -122.636      116.868      -24.352       63.397      104.551       42.388     4019.203    10930.944     1796.760        2.302        0.837      169.404       38.399        0.051      333.369        2.636      858.830
01/31/2014  16:48:00     -111.202      114.100      -14.104       64.943       90.734       44.034     4217.573     8232.614     1939.022        1.998        0.719      159.326       26.547        0.028      333.374        2.646      858.827
01/31/2014  16:49:00     -120.698      178.589      -31.603       49.265       73.009       37.533     2427.045     5330.301     1408.758        2.831        0.458      215.551       34.543        0.026      333.321        2.557      858.839
01/31/2014  16:50:00      -68.916      160.889      -22.915       47.695       44.242       32.047     2274.842     1957.348     1027.035        1.821        0.263      175.028       23.611        0.018      333.389        2.670      858.845
01/31/2014  16:51:00      -79.209      214.055      -24.568       63.617      107.480       48.392     4047.069    11551.993     2341.829        3.532        0.897      228.240       49.627        0.047      333.395        2.679      858.850
01/31/2014  16:52:00      -78.900      251.537      -36.605       62.977       77.206       44.766     3966.066     5960.726     2004.033        4.138        0.597      263.622       43.873        0.028      333.316        2.548      858.851
01/31/2014  16:53:00      -51.879      257.196      -37.416       55.851       89.052       44.374     3119.387     7930.329     1969.079        4.163        0.651      262.376       49.956        0.036      333.362        2.623      858.849
01/31/2014  16:54:00      -30.785      204.931      -21.963       42.109       56.551       35.534     1773.129     3198.069     1262.637        2.483        0.312      207.231       29.443        0.020      333.400        2.688      858.863
01/31/2014  16:55:00      -68.257      209.581      -26.614       51.404       95.021       37.908     2642.395     9028.944     1437.022        3.120        0.655      220.416       45.074        0.042      333.406        2.697      858.867
01/31/2014  16:56:00      -59.178      216.042      -19.560       57.764      107.285       36.378     3336.650    11510.147     1323.387        3.336        0.809      224.000       38.713        0.030      333.381        2.658      858.870
01/31/2014  16:57:00      -44.532      281.750      -27.611       40.991       68.018       36.979     1680.274     4626.429     1367.436        4.490        0.384      285.248       34.773        0.015      333.340        2.586      858.863
01/31/2014  16:58:00     -119.791       81.518      -16.859       44.403       41.058       28.227     1971.633     1685.753      796.776        1.287        0.223      144.897       23.839        0.027      333.471        2.806      858.865
01/31/2014  16:59:00     -118.395      108.353      -28.754       37.925       50.955       28.548     1438.272     2596.390      814.971        1.572        0.242      160.492       20.850        0.017      333.318        2.554      858.870
01/31/2014  17:00:00      -92.644       77.868      -25.353       25.669       40.380       21.276      658.921     1630.538      452.655        0.902        0.137      121.023       16.046        0.018      333.394        2.680      858.855
01/31/2014  17:01:00     -138.578       86.004      -20.312       71.871       46.022       35.108     5165.420     2118.045     1232.544        1.776        0.426      163.097       23.882        0.021      333.312        2.543      858.857
01/31/2014  17:02:00      -98.878       55.752      -15.677       40.294       52.399       29.626     1623.642     2745.632      877.718        0.919        0.262      113.513       13.811        0.015      333.364        2.631      858.842
01/31/2014  17:03:00     -143.060      -37.711      -16.756       44.719       49.585       35.041     1999.806     2458.629     1227.861        1.393        0.284      147.946       23.971        0.026      333.370        2.638      858.844
01/31/2014  17:04:00     -100.695      -45.838      -17.113       75.389       70.159       50.263     5683.508     4922.315     2526.395        1.283        0.657      110.637       25.629        0.054      333.318        2.555      858.836
01/31/2014  17:05:00     -112.385      -25.979      -20.054       49.973       70.199       32.940     2497.325     4927.829     1085.033        1.111        0.426      115.349       15.332        0.018      333.207        2.370      858.839
01/31/2014  17:06:00      -90.760      -34.347      -18.116       79.728       40.864       40.412     6356.626     1669.853     1633.092        0.970        0.483       97.042       34.778        0.128      333.248        2.437      858.831
01/31/2014  17:07:00      -70.982       14.840       -5.956       44.562       49.736       31.808     1985.808     2473.672     1011.728        0.538        0.274       72.516       27.193        0.141      333.219        2.390      858.840
01/31/2014  17:08:00      -56.546      132.397      -18.370       55.954       81.858       49.092     3130.809     6700.790     2410.073        1.665        0.612      143.967       30.564        0.045      333.191        2.343      858.841
01/31/2014  17:09:00     -140.993       91.037      -17.223       75.505       92.934       45.617     5700.997     8636.699     2080.905        2.244        0.821      167.830       38.620        0.053      333.188        2.337      858.841
01/31/2014  17:10:00     -152.159      210.427      -34.010       72.176       86.310       50.900     5209.325     7449.345     2590.834        4.192        0.762      259.676       48.964        0.036      333.146        2.267      858.847
01/31/2014  17:11:00      -81.941      116.203      -22.065       39.441       60.989       28.049     1555.562     3719.663      786.769        1.338        0.303      142.188       30.413        0.046      333.240        2.423      858.853
01/31/2014  17:12:00     -140.837      103.077      -36.671       50.163       52.485       28.391     2516.346     2754.706      806.073        1.894        0.304      174.528       17.308        0.010      333.199        2.355      858.853
01/31/2014  17:13:00     -165.638      121.754      -21.545       76.052       70.392       43.260     5783.943     4955.091     1871.446        2.767        0.631      205.572       41.345        0.040      333.212        2.374      858.859
01/31/2014  17:14:00     -150.610      146.122      -40.524       66.762       59.450       39.790     4457.153     3534.317     1583.244        2.762        0.479      209.845       39.001        0.035      333.153        2.278      858.870
01/31/2014  17:15:00     -156.809      156.008      -39.749       64.907       58.357       42.373     4212.954     3405.566     1795.438        2.996        0.471      221.195       39.123        0.031      333.146        2.267      858.881
01/31/2014  17:16:00     -142.767      159.189      -36.755       55.375       60.714       41.512     3066.382     3686.207     1723.206        2.777        0.424      213.831       33.352        0.024      333.187        2.333      858.879
01/31/2014  17:17:00     -105.123       47.345      -20.245       38.488       44.446       22.943     1481.301     1975.440      526.402        0.884        0.199      115.293       17.392        0.023      333.246        2.435      858.884
01/31/2014  17:18:00      -53.409       -6.737        7.135       64.266       36.416       30.273     4130.181     1326.146      916.467        0.466        0.319       53.833       34.417        0.409      333.138        2.256      858.893
01/31/2014  17:19:00      -44.188       72.468       -4.784       47.611       78.975       35.608     2266.834     6237.033     1267.947        0.850        0.489       84.878       38.761        0.209      333.176        2.320      858.893
01/31/2014  17:20:00      -76.518      102.429      -14.801       41.184       67.975       42.319     1696.131     4620.654     1790.878        1.234        0.405      127.854       29.567        0.053      333.106        2.204      858.889
01/31/2014  17:21:00      -76.911      130.739      -10.231       44.721       57.800       31.564     2000.000     3340.804      996.305        1.472        0.317      151.684       24.501        0.026      333.048        2.107      858.895
01/31/2014  17:22:00     -110.339       65.977      -12.230       40.264       75.445       34.225     1621.208     5691.881     1171.360        1.258        0.424      128.560       42.233        0.108      333.065        2.136      858.896
01/31/2014  17:23:00      -80.533      163.524      -23.740       44.007       50.384       33.755     1936.619     2538.534     1139.427        1.970        0.281      182.279       24.969        0.019      333.057        2.122      858.897
01/31/2014  17:24:00      -98.018      117.654      -22.307       39.845       60.610       29.345     1587.588     3673.592      861.107        1.503        0.306      153.134       27.179        0.032      332.993        2.016      858.901
01/31/2014  17:25:00      -54.522       29.466       -0.250       60.790       46.664       20.750     3695.466     2177.528      430.543        0.507        0.315       61.975       20.009        0.104      333.160        2.293      858.903
01/31/2014  17:26:00     -105.770       47.919      -21.619       45.644       55.987       24.734     2083.417     3134.511      611.774        0.989        0.291      116.118       20.543        0.031      333.059        2.125      858.927
01/31/2014  17:27:00      -65.726       41.721       -5.819       44.261       48.408       25.829     1959.050     2343.307      667.145        0.553        0.248       77.849       23.181        0.089      333.070        2.144      858.918
01/31/2014  17:28:00     -111.881       49.166      -28.147       46.529       64.036       29.538     2164.917     4100.615      872.472        1.143        0.357      122.208       30.152        0.061      333.009        2.043      858.918
01/31/2014  17:29:00      -85.490       42.241       -9.579       36.240       30.919       22.161     1313.333      956.003      491.098        0.597        0.138       95.357       20.849        0.048      333.001        2.032      858.925
01/31/2014  17:30:00      -84.482       30.984      -12.890       25.922       35.894       17.144      671.931     1288.368      293.921        0.526        0.113       89.985        7.324        0.007      332.969        1.978      858.923
01/31/2014  17:31:00     -111.775      -33.556       -8.834       42.868       51.286       28.060     1837.702     2630.257      787.375        0.948        0.263      116.703       11.688        0.010      332.912        1.884      858.917
01/31/2014  17:32:00     -140.228      -44.949      -12.561       39.398       46.852       29.913     1552.199     2195.125      894.766        1.324        0.232      147.255       15.785        0.011      332.830        1.748      858.914
01/31/2014  17:33:00     -127.292      -48.627      -17.079       45.458       39.107       24.629     2066.434     1529.366      606.564        1.153        0.210      136.264        7.254        0.003      332.790        1.682      858.901
01/31/2014  17:34:00     -123.004      -45.829      -11.155       57.666       36.694       29.332     3325.333     1346.449      860.394        1.144        0.277      131.265       22.779        0.030      332.765        1.640      858.908
01/31/2014  17:35:00     -123.332      -34.839      -16.929       35.422       55.706       22.803     1254.698     3103.173      519.962        1.079        0.244      128.158       16.658        0.017      332.749        1.615      858.905
01/31/2014  17:36:00     -134.370       15.031      -30.268       42.758       36.018       25.053     1828.222     1297.292      627.651        1.147        0.188      135.208       10.965        0.007      332.685        1.508      858.911
01/31/2014  17:37:00     -103.286       49.446      -12.953       68.319       63.077       35.555     4667.530     3978.693     1264.186        1.159        0.496      114.512       44.749        0.153      332.707        1.542      858.912
01/31/2014  17:38:00      -96.921        7.570      -17.368       61.940       41.942       28.291     3836.535     1759.112      800.408        0.807        0.320       97.216       33.791        0.121      332.767        1.644      858.906
01/31/2014  17:39:00      -85.249      -26.995       -3.863       43.038       33.130       26.650     1852.286     1097.581      710.219        0.583        0.183       89.421       20.624        0.053      332.754        1.623      858.910
01/31/2014  17:40:00      -55.189      -42.425        2.842       66.088       44.564       30.571     4367.611     1985.973      934.614        0.607        0.364       69.611       36.472        0.275      332.803        1.705      858.909
01/31/2014  17:41:00      -59.269       -8.943       -7.859       26.140       39.694       27.627      683.306     1575.597      763.248        0.334        0.151       59.939       16.378        0.075      332.783        1.671      858.910
01/31/2014  17:42:00     -139.342      -44.086      -12.127       35.292       39.717       15.960     1245.551     1577.459      254.737        1.229        0.154      146.150       12.195        0.007      332.718        1.563      858.900
01/31/2014  17:43:00     -109.542      -62.113       -8.755       44.966       39.055       28.046     2021.953     1525.287      786.571        1.013        0.217      125.926       20.466        0.026      332.665        1.475      858.905
01/31/2014  17:44:00     -142.208      -70.051      -17.293       44.157       34.883       27.731     1949.856     1216.852      768.990        1.468        0.197      158.525        8.310        0.003      332.610        1.383      858.903
01/31/2014  17:45:00     -174.952      -62.202       -1.225       45.691       36.702       24.813     2087.626     1347.068      615.669        1.926        0.203      185.681       24.188        0.017      332.529        1.248      858.906
01/31/2014  17:46:00     -123.523      -41.737      -14.453       46.959       35.515       30.546     2205.179     1261.344      933.067        1.080        0.220      130.384       23.808        0.033      332.575        1.326      858.912
01/31/2014  17:47:00     -114.137      -47.212      -14.552       57.305       48.256       25.488     3283.872     2328.594      649.663        1.086        0.313      123.516       13.777        0.012      332.578        1.331      858.911
01/31/2014  17:48:00     -103.409      -37.853       -6.767       47.841       43.608       26.346     2288.802     1901.672      694.091        0.853        0.244      110.120       17.956        0.027      332.479        1.166      858.913
01/31/2014  17:49:00      -76.852      -11.865      -15.880       44.260       53.013       23.500     1958.945     2810.410      552.269        0.581        0.266       77.762       22.610        0.085      332.540        1.268      858.915
01/31/2014  17:50:00      -78.252      -61.370        0.164       42.069       45.554       29.654     1769.762     2075.174      879.355        0.731        0.236       99.447       30.374        0.093      332.543        1.273      858.919
01/31/2014  17:51:00      -54.610      -12.610        2.823       47.582       36.316       24.207     2264.039     1318.831      585.958        0.366        0.208       56.047       11.011        0.039      332.486        1.179      858.930
01/31/2014  17:52:00      -63.200      -19.640       -9.768       51.684       34.412       23.405     2671.185     1184.165      547.772        0.444        0.220       66.182       22.263        0.113      332.601        1.369      858.931
01/31/2014  17:53:00      -54.898      -38.350       -5.333       26.241       28.017       16.366      688.594      784.944      267.838        0.313        0.087       66.967       10.678        0.025      332.618        1.398      858.957
01/31/2014  17:54:00      -32.860      -18.083        3.145       44.275       26.098       20.271     1960.254      681.082      410.926        0.223        0.153       37.507       14.099        0.141      332.561        1.305      858.980
01/31/2014  17:55:00      -83.861      -40.510       -9.688       38.444       26.512       17.556     1477.956      702.864      308.223        0.563        0.124       93.133       14.023        0.023      332.524        1.242      858.997
01/31/2014  17:56:00     -110.515      -31.693      -12.811       31.966       33.037       22.692     1021.800     1091.419      514.947        0.800        0.131      114.969       15.165        0.017      332.463        1.141      859.033
01/31/2014  17:57:00      -40.054      -21.272       -5.237       38.669       22.014       14.247     1495.297      484.607      202.963        0.213        0.109       45.352       18.574        0.168      332.565        1.310      859.058
01/31/2014  17:58:00      -24.607        1.348       -7.606       27.934       33.446       25.387      780.292     1118.611      644.493        0.160        0.127       24.644       18.161        0.543      332.558        1.299      859.074
01/31/2014  17:59:00      -67.835       24.952      -15.632       24.733       40.743       21.570      611.698     1660.016      465.273        0.410        0.137       72.279       11.207        0.024      332.593        1.356      859.089
01/31/2014  18:00:00     -102.511       10.131      -20.691       50.103       57.545       23.475     2510.360     3311.480      551.098        0.871        0.319      103.010       32.914        0.102      332.601        1.370      859.110
01/31/2014  18:01:00      -84.497      -22.180      -10.678       31.191       31.700       20.877      972.878     1004.859      435.841        0.508        0.121       87.360       15.376        0.031      332.739        1.599      859.118
01/31/2014  18:02:00      -93.839      -28.603       -8.302       32.252       42.675       22.360     1040.218     1821.116      499.952        0.653        0.168       98.101       16.706        0.029      332.643        1.440      859.125
01/31/2014  18:03:00     -134.538       13.919      -21.150       32.152       26.412       15.753     1033.720      697.584      248.172        1.036        0.099      135.256       15.422        0.013      332.570        1.318      859.139
01/31/2014  18:04:00      -79.150      -11.197      -11.377       51.318       28.905       18.120     2633.546      835.485      328.320        0.516        0.190       79.938       18.433        0.053      332.537        1.265      859.156
01/31/2014  18:05:00      -90.645      -17.762      -14.451       36.756       36.790       25.577     1351.018     1353.537      654.171        0.605        0.168       92.369       24.139        0.068      332.575        1.327      859.159
01/31/2014  18:06:00     -117.929      -46.824      -12.641       45.266       26.543       22.221     2048.980      704.552      493.793        0.975        0.162      126.884        7.160        0.003      332.517        1.231      859.162
01/31/2014  18:07:00      -97.711      -46.064       -1.977       39.913       30.393       16.854     1593.074      923.749      284.066        0.724        0.140      108.025       13.183        0.015      332.511        1.221      859.166
01/31/2014  18:08:00     -121.867      -63.627       -6.108       57.565       28.097       23.312     3313.762      789.466      543.449        1.179        0.232      137.477       27.567        0.040      332.501        1.205      859.178
01/31/2014  18:09:00     -156.345      -71.611       -8.045       50.337       41.725       21.825     2533.832     1740.950      476.337        1.719        0.238      171.965       13.767        0.006      332.448        1.116      859.180
01/31/2014  18:10:00     -150.739      -53.758       -4.140       35.500       37.801       25.248     1260.262     1428.885      637.479        1.448        0.166      160.038       21.721        0.018      332.410        1.053      859.186
01/31/2014  18:11:00     -164.535      -33.290       -9.073       33.422       28.432       24.118     1117.009      808.405      581.667        1.538        0.125      167.869       20.926        0.016      332.393        1.027      859.204
01/31/2014  18:12:00     -144.205      -27.069       -6.587       51.506       31.572       26.407     2652.847      996.791      697.335        1.296        0.217      146.724       28.856        0.039      332.401        1.039      859.221
01/31/2014  18:13:00     -105.977      -11.593       -6.507       45.420       41.184       23.578     2063.011     1696.094      555.906        0.786        0.216      106.609       16.933        0.025      332.402        1.041      859.240
01/31/2014  18:14:00     -130.473      -32.797      -14.653       36.548       33.185       18.207     1335.722     1101.240      331.479        1.054        0.138      134.532        5.596        0.002      332.435        1.095      859.246
01/31/2014  18:15:00      -92.290      -19.597       -4.933       43.395       27.378       17.498     1883.141      749.557      306.175        0.593        0.147       94.348       21.370        0.051      332.425        1.078      859.248
01/31/2014  18:16:00      -74.604      -45.331        0.588       44.899       33.450       17.161     2015.945     1118.908      294.496        0.552        0.171       87.296       18.552        0.045      332.457        1.132      859.259
01/31/2014  18:17:00      -58.806      -10.251        3.155       27.986       24.230       22.426      783.200      587.115      502.933        0.272        0.094       59.693       14.754        0.061      332.416        1.066      859.272
01/31/2014  18:18:00      -87.527        0.666      -11.715       20.727       25.139       15.481      429.615      631.962      239.671        0.455        0.065       87.530       12.589        0.021      332.504        1.209      859.268
01/31/2014  18:19:00      -70.149       -2.314      -15.474       19.972       23.248       17.909      398.867      540.481      320.729        0.321        0.063       70.187        7.891        0.013      332.516        1.229      859.272
01/31/2014  18:20:00      -84.819      -18.761      -14.075       21.647       28.144       12.964      468.590      792.109      168.055        0.459        0.071       86.869        9.084        0.011      332.498        1.200      859.280
01/31/2014  18:21:00      -80.119      -38.442       -7.003       19.068       27.829       18.060      363.597      774.437      326.155        0.470        0.073       88.864        8.005        0.008      332.525        1.244      859.282
01/31/2014  18:22:00      -89.114      -29.560      -12.626       24.673       28.722       14.743      608.778      824.981      217.358        0.531        0.083       93.889        7.798        0.007      332.540        1.268      859.281
01/31/2014  18:23:00     -107.132      -26.602      -10.490       37.541       23.540       20.888     1409.331      554.143      436.301        0.735        0.120      110.385       18.960        0.030      332.501        1.205      859.289
01/31/2014  18:24:00      -98.921        6.116      -16.446       29.730       34.078       19.448      883.870     1161.290      378.208        0.626        0.121       99.110       13.454        0.018      332.413        1.059      859.288
01/31/2014  18:25:00     -101.714      -20.513      -10.499       31.410       32.600       18.323      986.571     1062.738      335.736        0.663        0.119      103.762       10.693        0.011      332.492        1.188      859.286
01/31/2014  18:26:00     -140.064       16.555      -16.798       32.807       27.739       25.184     1076.321      769.425      634.252        1.133        0.124      141.039       16.761        0.014      332.407        1.048      859.297
01/31/2014  18:27:00     -117.589       -1.797      -22.214       29.292       38.535       21.748      858.049     1484.960      472.972        0.857        0.141      117.603       17.960        0.023      332.458        1.133      859.306
01/31/2014  18:28:00      -91.450      -26.356      -20.146       51.985       24.410       22.279     2702.452      595.855      496.371        0.663        0.190       95.172        7.526        0.006      332.457        1.131      859.301
01/31/2014  18:29:00     -101.773      -33.845      -17.811       33.268       28.955       20.552     1106.735      838.381      422.395        0.709        0.118      107.253       10.839        0.010      332.404        1.044      859.303
01/31/2014  18:30:00      -92.994      -26.627       -9.808       49.210       30.293       23.367     2421.625      917.644      546.004        0.667        0.194       96.731       18.071        0.035      332.408        1.051      859.299
01/31/2014  18:31:00     -129.459      -45.172      -13.113       39.621       34.592       23.668     1569.805     1196.613      560.169        1.115        0.166      137.114       23.200        0.029      332.313        0.895      859.304
01/31/2014  18:32:00     -107.692      -47.286       -6.348       33.400       39.904       24.879     1115.575     1592.349      618.948        0.860        0.166      117.615       18.633        0.025      332.364        0.979      859.294
01/31/2014  18:33:00     -146.419      -46.307      -21.743       36.841       35.021       21.369     1357.287     1226.473      456.641        1.355        0.152      153.567       18.293        0.014      332.272        0.828      859.282
01/31/2014  18:34:00     -134.916      -46.878      -18.410       43.693       24.497       28.576     1909.067      600.109      816.598        1.203        0.166      142.829       22.650        0.025      332.283        0.847      859.274
01/31/2014  18:35:00     -161.936      -43.056      -24.755       42.607       37.765       24.421     1815.376     1426.226      596.383        1.626        0.192      167.563       17.783        0.011      332.264        0.814      859.283
01/31/2014  18:36:00      -81.012      -55.092       -2.005       46.424       37.432       27.276     2155.234     1401.153      743.959        0.695        0.215       97.970       19.842        0.041      332.267        0.819      859.285
01/31/2014  18:37:00     -140.710      -56.597      -28.254       50.992       43.538       32.001     2600.213     1895.583     1024.054        1.466        0.276      151.665       26.285        0.030      332.232        0.762      859.294
01/31/2014  18:38:00     -107.232      -46.462      -19.183       51.946       32.192       20.793     2698.380     1036.313      432.345        0.910        0.208      116.865       17.474        0.022      332.220        0.742      859.297
01/31/2014  18:39:00     -136.259      -19.927      -17.941       42.449       52.982       23.136     1801.887     2807.050      535.288        1.221        0.257      137.709       14.851        0.012      332.178        0.673      859.304
01/31/2014  18:40:00     -116.428      -13.661      -25.648       27.935       41.938       19.177      780.391     1758.777      367.775        0.865        0.145      117.226       16.585        0.020      332.192        0.694      859.320
01/31/2014  18:41:00     -143.510      -27.495      -20.258       32.253       35.343       25.552     1040.241     1249.149      652.903        1.235        0.147      146.120       18.153        0.015      332.157        0.638      859.332
01/31/2014  18:42:00     -125.682        4.210       -3.812       48.366       44.491       26.595     2339.312     1979.491      707.303        1.043        0.251      125.753       22.300        0.031      332.129        0.592      859.329
01/31/2014  18:43:00      -97.760        1.066      -18.088       27.060       23.511       18.482      732.258      552.774      341.601        0.576        0.081       97.766        8.672        0.008      332.211        0.728      859.324
01/31/2014  18:44:00     -123.982      -42.566      -25.111       44.884       42.548       27.976     2014.549     1810.320      782.654        1.121        0.230      131.085       21.995        0.028      332.172        0.662      859.328
01/31/2014  18:45:00      -72.016      -42.723       -3.206       77.497       39.377       41.761     6005.861     1550.546     1744.017        0.816        0.465       83.735       49.583        0.351      332.159        0.641      859.321
01/31/2014  18:46:00     -164.636      -38.154      -31.642       34.946       46.844       23.995     1221.225     2194.379      575.754        1.678        0.200      168.999       16.706        0.010      332.124        0.583      859.316
01/31/2014  18:47:00     -155.640      -66.251      -20.174       58.938       45.085       37.203     3473.687     2032.701     1384.043        1.795        0.345      169.154       36.064        0.045      332.082        0.512      859.314
01/31/2014  18:48:00     -129.251      -60.888       -1.625       55.382       53.106       30.830     3067.214     2820.250      950.509        1.363        0.342      142.875       27.042        0.036      332.092        0.528      859.311
01/31/2014  18:49:00      -84.199      -11.896       -3.179       52.899       26.351       20.449     2798.297      694.379      418.175        0.558        0.196       85.035        9.729        0.013      332.131        0.594      859.312
01/31/2014  18:50:00      -49.593      -36.686       -4.043       50.983       44.193       27.606     2599.286     1953.046      762.065        0.457        0.266       61.688       22.479        0.133      332.172        0.662      859.316
01/31/2014  18:51:00      -64.125      -18.415       -6.048       28.267       32.985       16.578      799.008     1087.991      274.828        0.332        0.108       66.716       18.052        0.073      332.151        0.628      859.336
01/31/2014  18:52:00      -76.216      -17.668       -2.055       54.351       31.095       24.071     2954.056      966.893      579.408        0.531        0.225       78.237       24.766        0.100      332.116        0.569      859.341
01/31/2014  18:53:00     -121.171       17.139       -7.557       41.141       46.940       22.289     1692.588     2203.390      496.814        0.971        0.220      122.377       16.474        0.018      332.037        0.439      859.345
01/31/2014  18:54:00     -109.146      -19.342      -10.620       54.823       33.057       20.995     3005.536     1092.732      440.782        0.847        0.227      110.846       24.684        0.050      332.010        0.395      859.364
01/31/2014  18:55:00     -123.226       -4.539      -15.267       46.532       37.931       22.889     2165.214     1438.775      523.894        0.978        0.206      123.309       22.656        0.034      332.080        0.510      859.365
01/31/2014  18:56:00     -119.008       16.148       -9.842       36.416       34.026       23.756     1326.126     1157.798      564.368        0.878        0.152      120.099       19.986        0.028      332.088        0.523      859.368
01/31/2014  18:57:00     -102.179       -6.037      -10.143       32.114       25.850       23.139     1031.307      668.212      535.395        0.641        0.112      102.357       22.090        0.047      332.168        0.655      859.366
01/31/2014  18:58:00     -140.645       24.996      -18.347       38.635       36.849       26.365     1492.633     1357.842      695.130        1.214        0.177      142.849       20.461        0.021      332.100        0.543      859.375
01/31/2014  18:59:00     -100.842       -5.098      -15.396       41.417       41.191       32.872     1715.357     1696.709     1080.551        0.746        0.225      100.970       23.510        0.054      332.134        0.600      859.369
01/31/2014  19:00:00      -89.952       -1.076       -6.742       29.453       43.450       31.910      867.494     1887.898     1018.275        0.596        0.189       89.958       19.964        0.049      332.204        0.715      859.366
01/31/2014  19:01:00      -84.212        2.928       -9.863       31.577       30.575       26.226      997.121      934.814      687.806        0.491        0.131       84.262       22.111        0.069      332.236        0.769      859.367
01/31/2014  19:02:00      -52.247      -20.171       -3.912       30.943       23.637       22.117      957.451      558.723      489.151        0.258        0.100       56.005       20.869        0.139      332.224        0.748      859.361
01/31/2014  19:03:00      -44.869       -8.122        2.326       24.689       32.629       19.168      609.553     1064.628      367.419        0.206        0.102       45.598        7.200        0.025      332.286        0.850      859.357
01/31/2014  19:04:00      -97.485       33.094      -10.827       42.407       35.334       29.468     1798.337     1248.486      868.383        0.731        0.196      102.950       32.395        0.099      332.223        0.746      859.361
01/31/2014  19:05:00      -95.182       20.028      -10.305       34.386       33.544       19.008     1182.407     1125.180      361.299        0.612        0.133       97.266       19.792        0.041      332.293        0.863      859.371
01/31/2014  19:06:00      -85.979       -0.727       -5.456       19.128       35.009       17.130      365.893     1225.634      293.426        0.465        0.094       85.982        7.785        0.008      332.304        0.879      859.379
01/31/2014  19:07:00      -70.338      -13.683       -5.251       25.008       16.140       17.524      625.421      260.514      307.103        0.318        0.060       71.657       10.451        0.021      332.256        0.801      859.385
01/31/2014  19:08:00      -87.511       -4.608      -11.401       30.859       18.317       16.814      952.271      335.519      282.697        0.469        0.079       87.632       17.078        0.038      332.305        0.882      859.380
01/31/2014  19:09:00      -81.191      -24.229      -12.276       27.341       22.529       20.080      747.529      507.567      403.215        0.449        0.083       84.729       16.089        0.036      332.195        0.700      859.384
01/31/2014  19:10:00      -90.683      -29.171       -8.613       33.013       24.951       13.702     1089.830      622.544      187.741        0.552        0.095       95.259       12.351        0.017      332.198        0.706      859.387
01/31/2014  19:11:00      -89.449      -11.568       -7.106       27.670       29.164       15.385      765.638      850.541      236.708        0.502        0.093       90.194       11.919        0.017      332.146        0.620      859.389
01/31/2014  19:12:00      -70.944       -4.813      -11.421       41.299       20.006       22.397     1705.583      400.237      501.610        0.390        0.130       71.107       27.473        0.149      332.125        0.585      859.389
01/31/2014  19:13:00      -99.797       17.668      -15.036       27.870       22.012       14.357      776.755      484.550      206.136        0.598        0.073      101.349       12.050        0.014      332.151        0.628      859.389
01/31/2014  19:14:00      -85.460        9.573      -17.032       27.502       32.825       15.909      756.380     1077.471      253.100        0.489        0.104       85.994       16.621        0.037      332.200        0.710      859.391
01/31/2014  19:15:00     -107.757       -0.746      -17.514       37.915       23.104       18.726     1437.576      533.804      350.657        0.712        0.116      107.760       18.573        0.030      332.158        0.640      859.393
01/31/2014  19:16:00     -114.292       21.470      -20.104       28.891       27.375       15.902      834.717      749.396      252.861        0.788        0.092      116.291       13.016        0.013      332.230        0.757      859.399
01/31/2014  19:17:00     -103.509       -8.249       -9.745       29.864       28.457       16.366      891.860      809.791      267.858        0.642        0.098      103.837       15.130        0.021      332.237        0.771      859.406
01/31/2014  19:18:00     -106.400      -20.999      -13.348       21.310       24.824       15.670      454.111      616.219      245.544        0.663        0.066      108.452       13.684        0.016      332.235        0.768      859.406
01/31/2014  19:19:00     -113.027      -23.877      -11.022       22.501       25.229       18.362      506.292      636.480      337.173        0.747        0.074      115.522       16.892        0.021      332.215        0.734      859.408
01/31/2014  19:20:00      -86.396      -14.714       -6.209       34.422       18.814       15.714     1184.868      353.967      246.927        0.475        0.089       87.640       15.745        0.032      332.221        0.742      859.416
01/31/2014  19:21:00     -100.023      -22.007      -18.257       17.218       14.472       13.724      296.477      209.433      188.336        0.576        0.035      102.416        8.876        0.008      332.171        0.661      859.422
01/31/2014  19:22:00      -81.745        7.176      -13.261       17.624       29.899       11.217      310.606      893.965      125.824        0.412        0.067       82.059        9.893        0.015      332.280        0.840      859.425
01/31/2014  19:23:00      -75.646       -9.176       -7.338       32.252       20.558       12.257     1040.189      422.626      150.241        0.374        0.081       76.200       10.941        0.021      332.235        0.766      859.435
01/31/2014  19:24:00      -95.132       -6.360       -7.763       21.845       21.470       10.951      477.191      460.968      119.934        0.510        0.053       95.344        8.415        0.008      332.269        0.822      859.451
01/31/2014  19:25:00      -81.171       -2.904      -11.233       23.330       24.298       15.631      544.279      590.413      244.319        0.405        0.069       81.223       12.332        0.023      332.192        0.695      859.468
01/31/2014  19:26:00      -80.519       11.659      -15.348       21.998       22.686       17.706      483.890      514.669      313.509        0.408        0.066       81.358       14.404        0.031      332.172        0.661      859.482
01/31/2014  19:27:00      -82.253       -3.217       -9.027       21.805       26.956       19.423      475.472      726.634      377.270        0.422        0.079       82.316        9.144        0.012      332.129        0.592      859.499
01/31/2014  19:28:00      -94.246        0.212      -13.244       30.840       31.291       19.231      951.100      979.150      369.847        0.568        0.115       94.247       18.740        0.040      332.066        0.487      859.501
01/31/2014  19:29:00      -63.884      -18.793        2.670       29.749       20.453       18.348      885.000      418.321      336.649        0.304        0.082       66.591       12.182        0.033      332.153        0.632      859.509
01/31/2014  19:30:00      -93.613       28.087      -14.386       29.051       23.648       17.064      843.973      559.227      291.182        0.573        0.085       97.735       11.403        0.014      332.208        0.722      859.513
01/31/2014  19:31:00      -78.216        6.593      -12.165       35.584       36.260       24.147     1266.215     1314.772      583.089        0.474        0.158       78.493       23.603        0.090      332.214        0.731      859.526
01/31/2014  19:32:00      -62.884       45.626      -22.478       26.355       37.186       22.784      694.584     1382.792      519.108        0.457        0.130       77.693       19.123        0.061      332.239        0.770      859.544
01/31/2014  19:33:00      -50.284       13.852      -10.583       28.744       50.527       17.015      826.227     2552.994      289.513        0.325        0.183       52.157       18.835        0.130      332.231        0.759      859.561
01/31/2014  19:34:00      -12.840       43.611        4.855       22.534       38.728       23.790      507.781     1499.891      565.965        0.233        0.129       45.462       22.543        0.246      332.174        0.665      859.574
01/31/2014  19:35:00      -44.302       27.335       -9.517       23.904       19.296       15.131      571.423      372.326      228.946        0.199        0.059       52.056        8.387        0.026      332.149        0.625      859.587
01/31/2014  19:36:00      -27.480       -9.365       -2.429       24.874       20.694        9.627      618.729      428.251       92.675        0.099        0.057       29.032        9.083        0.098      332.217        0.737      859.585
01/31/2014  19:37:00      -49.899      -34.596      -10.199       18.116       13.258        9.513      328.185      175.783       90.501        0.219        0.030       60.719        7.190        0.014      332.268        0.820      859.585
01/31/2014  19:38:00       -1.549      -17.384       11.120       19.211       13.222       17.329      369.080      174.821      300.291        0.064        0.042       17.453        8.692        0.248      332.216        0.734      859.588
01/31/2014  19:39:00       -9.376      -24.395        3.397       24.244       19.716       16.382      587.762      388.714      268.382        0.097        0.062       26.135        8.351        0.102      332.180        0.676      859.584
01/31/2014  19:40:00      -27.270      -27.009        7.181       30.025       35.746       21.600      901.473     1277.749      466.555        0.208        0.132       38.382       21.027        0.300      332.144        0.615      859.594
01/31/2014  19:41:00      -80.278      -55.282        0.578       39.017       31.414       23.223     1522.359      986.840      539.293        0.627        0.152       97.471       20.307        0.043      331.997        0.373      859.593
01/31/2014  19:42:00      -11.017      -14.855       10.750       40.713       30.604       23.186     1657.543      936.597      537.594        0.179        0.157       18.495       23.677        1.639      332.111        0.563      859.589
01/31/2014  19:43:00      -29.563      -13.786       13.534       45.992       26.370       21.871     2115.293      695.385      478.344        0.227        0.164       32.619       26.446        0.657      332.032        0.431      859.591
01/31/2014  19:44:00     -117.465      -90.305       -0.400       44.832       31.437       24.835     2009.949      988.275      616.785        1.278        0.181      148.166       17.839        0.014      331.967        0.323      859.599
01/31/2014  19:45:00      -96.226      -83.910       -0.939       51.079       34.225       25.129     2609.049     1171.329      631.478        1.036        0.221      127.672       18.872        0.022      331.891        0.198      859.601
01/31/2014  19:46:00     -112.289      -64.801       -8.257       55.143       30.573       25.885     3040.770      934.685      670.014        1.076        0.232      129.646       27.676        0.046      331.808        0.061      859.604
01/31/2014  19:47:00     -121.627      -41.726       -9.330       20.903       22.608       13.167      436.918      511.126      173.378        0.887        0.056      128.585        7.747        0.004      331.853        0.135      859.606
01/31/2014  19:48:00     -104.041      -55.803       -9.782       48.616       32.280       19.702     2363.478     1041.984      388.159        0.891        0.190      118.062       15.036        0.016      331.847        0.127      859.611
01/31/2014  19:49:00      -85.080      -63.592      -10.806       37.851       32.248       23.886     1432.730     1039.937      570.549        0.722        0.152      106.219       17.742        0.028      331.905        0.221      859.622
01/31/2014  19:50:00      -54.283      -31.295        3.257       35.199       28.734       20.894     1238.994      825.648      436.562        0.322        0.125       62.658       16.720        0.071      331.825        0.090      859.640
01/31/2014  19:51:00     -116.739        0.401       -8.130       33.458       26.372       17.551     1119.438      695.505      308.021        0.791        0.106      116.740       16.108        0.019      331.736       -0.056      859.652
01/31/2014  19:52:00     -115.452      -51.875       -5.670       47.420       33.469       22.841     2248.613     1120.195      521.729        0.997        0.195      126.571       25.171        0.040      331.774        0.005      859.655
01/31/2014  19:53:00     -163.902      -20.857      -13.508       46.511       29.108       25.751     2163.297      847.293      663.115        1.558        0.184      165.224       25.281        0.023      331.702       -0.111      859.667
01/31/2014  19:54:00     -123.854       11.522       -8.704       46.621       38.357       23.456     2173.484     1471.294      550.170        0.987        0.210      124.389       21.862        0.031      331.739       -0.051      859.675
01/31/2014  19:55:00     -181.394       56.115      -12.942       40.439       28.733       21.603     1635.278      825.574      466.703        1.957        0.146      189.875       17.930        0.009      331.766       -0.007      859.679
01/31/2014  19:56:00     -151.367       69.981      -17.051       45.791       29.362       19.053     2096.825      862.112      363.025        1.571        0.166      166.762       12.106        0.005      331.742       -0.046      859.683
01/31/2014  19:57:00      -85.144       55.180      -20.309       32.284       42.366       23.389     1042.276     1794.886      547.041        0.704        0.169      101.461       21.304        0.044      331.807        0.059      859.686
01/31/2014  19:58:00      -68.648       60.913      -16.673       34.922       33.859       19.333     1219.552     1146.432      373.768        0.572        0.137       91.777       16.843        0.034      331.846        0.125      859.689
01/31/2014  19:59:00      -67.628       33.513      -18.583       20.414       23.585       13.642      416.742      556.238      186.100        0.360        0.058       75.477        7.895        0.011      331.934        0.269      859.688
01/31/2014  20:00:00      -60.889       18.236       -6.553       14.382       18.316       12.858      206.831      335.467      165.322        0.240        0.035       63.562        9.343        0.022      331.969        0.327      859.681
01/31/2014  20:01:00      -66.178       25.379      -13.038       20.642       22.072       18.474      426.092      487.186      341.278        0.322        0.063       70.877       11.306        0.025      332.020        0.413      859.679
01/31/2014  20:02:00      -62.001       45.908      -14.441       21.610       25.503       14.281      466.991      650.387      203.945        0.374        0.066       77.147       12.038        0.024      331.973        0.335      859.672
01/31/2014  20:03:00      -56.469       78.763      -20.883       18.987       29.161       14.737      360.524      850.356      217.165        0.563        0.071       96.915       10.671        0.012      332.094        0.533      859.666
01/31/2014  20:04:00      -66.142       42.542      -12.933       23.255       20.706       18.077      540.773      428.743      326.778        0.382        0.065       78.642       11.608        0.022      332.073        0.498      859.668
01/31/2014  20:05:00      -66.435       31.620       -6.323       19.214       20.914       18.757      369.191      437.375      351.826        0.331        0.058       73.576        8.786        0.014      332.036        0.437      859.669
01/31/2014  20:06:00      -66.205       28.324       -9.899       15.707       17.053       14.071      246.705      290.819      198.002        0.301        0.037       72.010        9.434        0.017      332.016        0.406      859.671
01/31/2014  20:07:00      -57.545       39.020       -5.851       20.787       20.956       15.837      432.083      439.150      250.825        0.299        0.056       69.527       12.735        0.034      332.125        0.585      859.672
01/31/2014  20:08:00      -75.594       19.737       -4.334       20.408       19.699       14.794      416.484      388.070      218.865        0.357        0.051       78.128        9.976        0.016      332.157        0.638      859.666
01/31/2014  20:09:00      -73.278        3.884       -7.345       18.171       20.710       11.301      330.179      428.887      127.706        0.316        0.044       73.381        5.538        0.006      332.060        0.478      859.657
01/31/2014  20:10:00      -46.653       21.101       -6.760       15.905       16.611       13.321      252.981      275.921      177.450        0.169        0.035       51.203       12.420        0.059      332.088        0.524      859.655
01/31/2014  20:11:00      -77.789        6.704       -7.307       12.360       19.533        9.724      152.776      381.519       94.558        0.339        0.031       78.078        6.040        0.006      332.073        0.498      859.656
01/31/2014  20:12:00      -63.554       35.230      -14.713       15.721       32.252       13.206      247.145     1040.174      174.410        0.348        0.073       72.665       14.246        0.038      332.145        0.618      859.662
01/31/2014  20:13:00      -82.197       36.033      -14.035       19.359       21.202       16.875      374.784      449.537      284.776        0.468        0.055       89.748       10.223        0.013      332.173        0.666      859.668
01/31/2014  20:14:00      -77.027       18.521      -10.793       27.901       16.309       12.909      778.453      265.971      166.646        0.380        0.061       79.222       13.826        0.030      332.064        0.483      859.668
01/31/2014  20:15:00      -75.004       -1.693       -9.605       21.838       12.186       11.469      476.897      148.507      131.545        0.324        0.038       75.023        8.948        0.014      332.073        0.498      859.672
01/31/2014  20:16:00      -96.716      -10.615       -8.924       24.832       26.343       14.711      616.608      693.932      216.409        0.554        0.076       97.296       10.103        0.011      331.960        0.311      859.676
01/31/2014  20:17:00      -76.808       -4.772       -9.717       28.970       18.115       19.098      839.282      328.155      364.751        0.377        0.077       76.956       19.100        0.062      331.967        0.323      859.682
01/31/2014  20:18:00      -88.018        1.530       -4.782       32.268       22.037       21.385     1041.234      485.648      457.331        0.488        0.099       88.031       20.013        0.052      331.897        0.207      859.686
01/31/2014  20:19:00      -91.061       -7.591       -6.444       42.785       24.449       20.561     1830.581      597.743      422.767        0.562        0.143       91.377       23.853        0.068      331.800        0.050      859.684
01/31/2014  20:20:00     -102.608       -9.242       -5.725       38.358       23.321       18.001     1471.326      543.881      324.032        0.649        0.117      103.023       18.216        0.031      331.807        0.061      859.689
01/31/2014  20:21:00     -116.904        2.065      -12.489       25.672       22.365       15.019      659.042      500.171      225.565        0.761        0.069      116.923       11.713        0.010      331.847        0.126      859.690
01/31/2014  20:22:00     -126.886       -1.029      -15.616       22.492       23.210       14.816      505.907      538.724      219.518        0.880        0.063      126.890       10.112        0.006      331.879        0.178      859.694
01/31/2014  20:23:00     -122.837      -12.233      -12.440       28.236       22.188       15.402      797.299      492.326      237.213        0.846        0.076      123.444       13.892        0.013      331.931        0.265      859.704
01/31/2014  20:24:00     -137.078      -13.877      -21.564       22.536       27.570       15.992      507.873      760.128      255.733        1.049        0.076      137.779       13.373        0.009      331.891        0.197      859.703
01/31/2014  20:25:00      -95.273      -12.873       -6.374       39.750       24.836       24.100     1580.050      616.849      580.788        0.603        0.139       96.138       21.953        0.052      331.939        0.278      859.706
01/31/2014  20:26:00     -139.699       10.877      -22.110       19.207       17.024       13.518      368.894      289.814      182.747        1.048        0.042      140.122        8.403        0.004      331.866        0.157      859.706
01/31/2014  20:27:00     -153.088        4.765      -17.302       23.849       16.774       16.326      568.777      281.373      266.540        1.244        0.056      153.162       14.749        0.009      331.819        0.081      859.707
01/31/2014  20:28:00     -154.253        8.177      -15.162       20.431       27.949       10.172      417.443      781.167      103.461        1.270        0.065      154.469        6.599        0.002      331.836        0.108      859.715
01/31/2014  20:29:00     -137.187        7.152      -16.000       24.258       26.783       11.793      588.460      717.308      139.078        1.029        0.072      137.373        8.461        0.004      331.853        0.137      859.727
01/31/2014  20:30:00     -122.552       14.549      -18.753       22.721       19.664       17.650      516.240      386.671      311.533        0.840        0.061      123.412       13.104        0.011      331.857        0.143      859.740
01/31/2014  20:31:00     -129.255        1.112      -16.489       35.611       16.423       19.050     1268.135      269.726      362.908        0.944        0.095      129.260       17.456        0.018      331.893        0.200      859.755
01/31/2014  20:32:00     -139.847       20.565      -15.551       24.191       22.697       13.663      585.185      515.141      186.680        1.075        0.064      141.351        5.705        0.002      331.824        0.088      859.763
01/31/2014  20:33:00      -89.861      -19.550      -16.364       19.974        9.574       13.355      398.956       91.659      178.360        0.470        0.033       91.963        6.303        0.005      331.833        0.102      859.770
01/31/2014  20:34:00      -50.711       -0.558       -7.915       18.833       25.097       11.992      354.695      629.842      143.806        0.188        0.056       50.714        7.470        0.022      331.874        0.171      859.769
01/31/2014  20:35:00      -39.353       -2.595        2.402       20.445       19.998       11.462      417.989      399.935      131.387        0.126        0.047       39.438        5.953        0.023      331.949        0.294      859.781
01/31/2014  20:36:00      -75.351       12.306      -10.556       24.507       25.148       21.107      600.613      632.436      445.510        0.381        0.084       76.349       16.097        0.044      331.986        0.353      859.792
01/31/2014  20:37:00      -77.131      -20.047      -14.241       16.704       16.928       16.690      279.016      286.564      278.566        0.370        0.042       79.694        9.956        0.016      331.983        0.349      859.802
01/31/2014  20:38:00      -41.883      -30.355      -19.437       28.242       20.692       13.718      797.617      428.141      188.174        0.223        0.071       51.727        7.701        0.022      331.993        0.366      859.819
01/31/2014  20:39:00      -33.026       10.275       -5.200       30.916       33.755       12.329      955.818     1139.385      151.993        0.173        0.112       34.588        8.032        0.054      332.016        0.404      859.837
01/31/2014  20:40:00      -37.861       -6.792       -8.824       26.588       31.843       14.853      706.909     1013.986      220.607        0.175        0.097       38.466       17.003        0.195      331.935        0.272      859.844
01/31/2014  20:41:00      -53.648      -28.617        2.884       38.493       24.800       14.996     1481.740      615.040      224.876        0.301        0.116       60.803       13.965        0.053      331.868        0.161      859.852
01/31/2014  20:42:00      -51.423      -20.401       -2.910       22.948       25.932       17.437      526.627      672.485      304.054        0.229        0.075       55.322       15.313        0.077      331.840        0.114      859.850
01/31/2014  20:43:00      -41.819      -42.382       -7.760       28.984       23.530       16.970      840.086      553.649      287.976        0.264        0.084       59.541       14.717        0.061      331.884        0.188      859.848
01/31/2014  20:44:00      -70.662      -39.473       -5.849       22.550       16.867       17.155      508.480      284.479      294.302        0.384        0.054       80.940       14.719        0.033      331.824        0.088      859.845
01/31/2014  20:45:00      -37.969      -31.550        4.273       22.705       19.801       12.242      515.525      392.088      149.874        0.176        0.053       49.366       12.081        0.060      331.934        0.269      859.838
01/31/2014  20:46:00      -71.183       -8.997        0.808       33.746       23.247       13.475     1138.803      540.421      181.589        0.350        0.093       71.750       15.466        0.046      331.924        0.253      859.843
01/31/2014  20:47:00      -12.685      -22.642       13.777       25.618       17.105       13.042      656.281      292.574      170.086        0.099        0.056       25.954       10.503        0.164      331.899        0.212      859.849
01/31/2014  20:48:00      -42.124      -22.688        6.160       31.979       26.291       16.544     1022.681      691.205      273.691        0.216        0.099       47.845       17.931        0.140      331.824        0.089      859.867
01/31/2014  20:49:00      -44.695      -42.066        5.189       30.072       25.654       19.202      904.339      658.147      368.702        0.286        0.097       61.377       20.568        0.112      331.899        0.212      859.873
01/31/2014  20:50:00      -67.718      -38.826       -8.207       19.555       18.511        8.198      382.413      342.643       67.211        0.348        0.040       78.059        6.719        0.007      331.919        0.246      859.873
01/31/2014  20:51:00      -23.333      -22.431        3.231       24.382       19.413       10.734      594.505      376.861      115.214        0.107        0.054       32.366        9.271        0.082      331.960        0.312      859.874
01/31/2014  20:52:00      -43.481      -17.171       -0.478       10.800       16.282        9.692      116.644      265.092       93.931        0.133        0.024       46.749        6.800        0.021      332.010        0.395      859.876
01/31/2014  20:53:00      -71.949      -31.452       -1.238       15.919       15.990       12.336      253.428      255.694      152.184        0.341        0.033       78.524        9.488        0.015      331.975        0.337      859.874
01/31/2014  20:54:00      -55.655      -34.941       -3.123       20.763       17.733       10.697      431.096      314.464      114.424        0.259        0.043       65.714        8.667        0.017      331.950        0.295      859.878
01/31/2014  20:55:00      -36.727      -48.007        1.764       31.395       24.267       13.486      985.668      588.869      181.880        0.271        0.088       60.445       11.014        0.033      331.967        0.323      859.882
01/31/2014  20:56:00      -44.934      -53.192        6.380       37.604       26.926       23.394     1414.069      725.008      547.293        0.379        0.134       69.631       23.249        0.111      331.801        0.052      859.884
01/31/2014  20:57:00      -43.840      -56.328        8.190       30.986       33.376       19.080      960.155     1113.958      364.043        0.380        0.122       71.378       14.989        0.044      331.851        0.133      859.885
01/31/2014  20:58:00      -75.772      -50.717        3.034       49.472       27.316       27.258     2447.453      746.145      742.992        0.613        0.197       91.179       30.802        0.114      331.836        0.108      859.884
01/31/2014  20:59:00      -71.287      -48.843        5.944       30.759       32.721       19.539      946.123     1070.640      381.769        0.495        0.120       86.414       17.175        0.040      331.898        0.210      859.898
01/31/2014  21:00:00      -66.964      -73.458       -0.491       36.858       25.441       24.030     1358.544      647.250      577.418        0.623        0.129       99.399       25.151        0.064      331.911        0.231      859.898
01/31/2014  21:01:00      -55.569      -68.955        2.445       22.190       23.734       17.931      492.409      563.313      321.525        0.461        0.069       88.559       15.160        0.029      331.918        0.244      859.897
01/31/2014  21:02:00      -64.138      -69.641       -9.569       28.492       20.661       14.829      811.774      426.858      219.913        0.526        0.073       94.676       13.326        0.020      331.953        0.299      859.896
01/31/2014  21:03:00      -59.095      -53.786       -4.151       31.332       20.780       19.001      981.696      431.812      361.031        0.409        0.089       79.907       16.753        0.044      331.902        0.216      859.894
01/31/2014  21:04:00      -68.793      -60.847       -3.531       20.922       13.690       13.026      437.713      187.416      169.678        0.462        0.040       91.841        6.097        0.004      331.911        0.231      859.887
01/31/2014  21:05:00      -50.542      -60.171        2.497       43.466       21.400       17.995     1889.326      457.951      323.826        0.443        0.134       78.582       18.226        0.054      331.923        0.250      859.880
01/31/2014  21:06:00      -76.811      -47.944       -1.696       27.658       22.641       17.298      764.971      512.613      299.218        0.489        0.079       90.546       12.128        0.018      331.967        0.323      859.868
01/31/2014  21:07:00      -44.759      -39.483        2.767       41.849       24.370       15.153     1751.344      593.909      229.608        0.307        0.129       59.685       11.361        0.036      331.992        0.365      859.867
01/31/2014  21:08:00      -64.004      -45.134       -1.312       33.291       30.971       15.831     1108.281      959.228      250.617        0.423        0.116       78.317       20.677        0.070      331.945        0.286      859.868
01/31/2014  21:09:00      -18.947      -33.122       10.836       36.441       26.155       21.584     1327.957      684.095      465.890        0.203        0.124       38.158       17.581        0.212      331.988        0.358      859.866
01/31/2014  21:10:00      -58.176      -27.417        0.522       39.689       20.636       15.008     1575.188      425.848      225.243        0.318        0.111       64.313       18.461        0.082      331.931        0.266      859.864
01/31/2014  21:11:00      -51.945      -33.381        2.796       24.832       19.786       12.490      616.653      391.472      155.989        0.249        0.058       61.746        8.824        0.020      331.905        0.222      859.869
01/31/2014  21:12:00      -32.740      -35.467       -3.418       32.047       17.713       13.839     1027.013      313.741      191.517        0.194        0.077       48.268        2.468        0.003      331.909        0.229      859.871
01/31/2014  21:13:00       -3.790      -38.379       -3.499       17.958       16.710        8.244      322.473      279.231       67.961        0.108        0.033       38.566        3.276        0.007      331.991        0.363      859.875
01/31/2014  21:14:00       -8.551      -41.163       -6.479       13.693       16.542       12.461      187.498      273.627      155.285        0.121        0.031       42.042        6.539        0.024      331.970        0.329      859.880
01/31/2014  21:15:00      -19.048      -28.830       -7.676       16.034       14.996       12.510      257.088      224.892      156.502        0.095        0.032       34.554        9.592        0.077      331.938        0.275      859.888
01/31/2014  21:16:00      -41.386      -55.670        1.546       29.297       31.221       15.453      858.314      974.725      238.807        0.344        0.104       69.368       19.627        0.080      331.860        0.149      859.901
01/31/2014  21:17:00      -83.696      -46.939       -2.804       30.025       25.266       15.729      901.474      638.378      247.415        0.550        0.089       95.960        9.905        0.011      331.846        0.124      859.898
01/31/2014  21:18:00      -58.729      -44.998        7.851       50.454       41.683       28.318     2545.574     1737.457      801.937        0.531        0.254       73.986       23.984        0.105      331.791        0.034      859.899
01/31/2014  21:19:00      -59.393      -75.709       -6.820       41.867       29.180       26.990     1752.876      851.490      728.474        0.632        0.167       96.225       23.455        0.059      331.860        0.148      859.906
01/31/2014  21:20:00      -50.354      -64.629       10.093       39.491       27.183       27.002     1559.521      738.923      729.097        0.492        0.151       81.929       26.291        0.103      331.860        0.147      859.913
01/31/2014  21:21:00      -70.670      -65.213        0.612       41.633       39.775       24.911     1733.347     1582.059      620.568        0.659        0.197       96.161       28.370        0.087      331.817        0.077      859.923
01/31/2014  21:22:00      -71.459      -90.336        3.230       51.105       33.664       23.807     2611.739     1133.269      566.780        0.879        0.216      115.183       27.582        0.057      331.828        0.095      859.934
01/31/2014  21:23:00      -60.455      -70.872        2.865       41.840       33.316       23.644     1750.570     1109.926      559.016        0.605        0.171       93.154       28.197        0.092      331.819        0.080      859.947
01/31/2014  21:24:00      -45.790      -62.213        1.481       31.360       37.204       18.563      983.447     1384.113      344.573        0.434        0.136       77.248       18.364        0.057      331.825        0.090      859.961
01/31/2014  21:25:00      -25.430      -64.722      -10.168       19.291       29.041       18.433      372.153      843.351      339.792        0.325        0.078       69.538       16.519        0.056      331.901        0.215      859.971
01/31/2014  21:26:00      -12.620      -11.346        8.908       26.604       21.808       21.649      707.771      475.583      468.676        0.101        0.083       16.970       17.688        1.086      331.838        0.111      859.981
01/31/2014  21:27:00      -31.694      -10.336        3.053       33.965       25.220       19.711     1153.640      636.028      388.539        0.165        0.109       33.337        8.571        0.066      331.784        0.023      859.985
01/31/2014  21:28:00      -22.961       30.286        1.904       20.395       26.435       18.015      415.937      698.812      324.555        0.144        0.072       38.006       16.930        0.198      331.762       -0.013      859.992
01/31/2014  21:29:00      -16.208        9.486       21.288       28.784       15.762       18.707      828.497      248.448      349.935        0.112        0.071       18.780       12.632        0.452      331.595       -0.289      859.996
01/31/2014  21:30:00      -41.522      -16.102       -1.015       27.498       39.300       17.993      756.125     1544.516      323.749        0.230        0.131       44.535       17.995        0.163      331.685       -0.141      860.005
01/31/2014  21:31:00      -40.807       -4.456        4.578       19.268       17.436       11.059      371.255      304.000      122.312        0.125        0.040       41.049       10.565        0.066      331.671       -0.162      860.005
01/31/2014  21:32:00      -19.306       23.537        3.578       20.675       19.037       13.036      427.471      362.397      169.944        0.095        0.048       30.442       13.715        0.203      331.593       -0.292      860.006
01/31/2014  21:33:00      -19.152        9.364       -3.694       18.295       18.652       15.511      334.705      347.879      240.591        0.070        0.046       21.319        9.144        0.184      331.614       -0.257      860.019
01/31/2014  21:34:00      -60.665      -37.435       -3.249       25.948       18.894       13.653      673.296      356.999      186.410        0.315        0.061       71.286        3.763        0.003      331.655       -0.189      860.031
01/31/2014  21:35:00      -66.568      -55.761        2.471       57.784       51.148       23.804     3339.014     2616.124      566.638        0.703        0.326       86.836       31.491        0.132      331.576       -0.319      860.050
01/31/2014  21:36:00      -81.071      -73.722        5.002       59.901       40.360       27.339     3588.130     1628.940      747.404        0.900        0.298      109.579       26.120        0.057      331.510       -0.430      860.065
01/31/2014  21:37:00      -36.707      -58.928        9.076       54.758       44.087       23.402     2998.422     1943.700      547.666        0.520        0.274       69.426       25.264        0.132      331.586       -0.303      860.077
01/31/2014  21:38:00      -70.268      -83.750        5.520       43.811       58.727       34.063     1919.431     3448.841     1160.318        0.925        0.326      109.324       37.137        0.115      331.551       -0.362      860.084
01/31/2014  21:39:00      -81.089     -111.318       -0.907       46.610       42.686       31.273     2172.491     1822.091      978.007        1.197        0.249      137.721       27.511        0.040      331.567       -0.334      860.083
01/31/2014  21:40:00      -55.961      -67.752       -0.376       58.982       32.115       27.732     3478.844     1031.381      769.082        0.650        0.264       87.875       23.601        0.072      331.595       -0.288      860.090
01/31/2014  21:41:00      -58.694      -44.941        9.154       50.962       34.426       28.363     2597.105     1185.161      804.469        0.507        0.229       73.924       27.473        0.138      331.483       -0.474      860.092
01/31/2014  21:42:00      -81.597      -77.571        8.943       56.691       47.685       36.330     3213.875     2273.896     1319.883        0.978        0.340      112.585       37.510        0.111      331.466       -0.500      860.095
01/31/2014  21:43:00     -118.990      -73.718       -1.826       51.546       33.501       26.925     2656.944     1122.326      724.934        1.205        0.225      139.975       27.032        0.037      331.475       -0.485      860.094
01/31/2014  21:44:00     -126.574      -96.083      -10.256       36.976       41.346       19.475     1367.190     1709.465      379.268        1.441        0.173      158.912       13.353        0.007      331.516       -0.417      860.088
01/31/2014  21:45:00     -113.044      -82.121       -2.753       33.098       37.814       22.644     1095.483     1429.877      512.758        1.128        0.152      139.724       22.070        0.025      331.482       -0.475      860.088
01/31/2014  21:46:00     -110.575      -72.311        0.111       46.647       46.362       24.846     2175.901     2149.475      617.320        1.120        0.247      132.120       26.895        0.041      331.481       -0.477      860.103
01/31/2014  21:47:00     -128.482      -98.440       -5.784       35.690       41.002       26.188     1273.795     1681.145      685.822        1.494        0.182      161.858       24.334        0.023      331.413       -0.588      860.112
01/31/2014  21:48:00     -150.212     -102.743       -4.920       38.695       45.141       20.061     1497.337     2037.705      402.441        1.854        0.197      181.988       16.118        0.008      331.367       -0.664      860.104
01/31/2014  21:49:00     -115.476      -81.779       -2.432       49.034       41.140       27.117     2404.369     1692.518      735.305        1.243        0.242      141.501       27.997        0.039      331.426       -0.567      860.099
01/31/2014  21:50:00     -112.381      -73.519        8.166       59.383       35.050       32.173     3526.323     1228.471     1035.082        1.194        0.289      134.293       30.044        0.050      331.421       -0.575      860.095
01/31/2014  21:51:00     -129.006      -89.404       -9.803       55.891       40.456       24.273     3123.749     1636.659      589.193        1.504        0.267      156.958       22.000        0.020      331.409       -0.595      860.091
01/31/2014  21:52:00     -114.204      -80.850        2.506       37.342       39.178       23.830     1394.431     1534.940      567.875        1.154        0.175      139.926       22.197        0.025      331.398       -0.612      860.101
01/31/2014  21:53:00     -115.154      -39.720       -7.606       30.747       28.026       19.805      945.398      785.465      392.242        0.851        0.106      121.812       11.014        0.008      331.372       -0.656      860.100
01/31/2014  21:54:00      -97.376      -33.717       -9.192       35.679       28.827       17.510     1272.987      831.009      306.596        0.656        0.121      103.049       11.858        0.013      331.396       -0.616      860.106
01/31/2014  21:55:00     -100.924       -3.870       -2.361       37.375       34.830       23.783     1396.866     1213.130      565.633        0.669        0.159      100.998       22.592        0.050      331.224       -0.898      860.115
01/31/2014  21:56:00     -113.121      -32.418       -8.690       43.726       30.789       18.208     1911.959      947.963      331.515        0.856        0.160      117.675       19.436        0.027      331.178       -0.973      860.123
01/31/2014  21:57:00      -91.285      -17.992       -7.095       47.984       41.897       17.636     2302.491     1755.372      311.017        0.654        0.218       93.041       20.684        0.049      331.119       -1.071      860.139
01/31/2014  21:58:00     -115.752      -19.366      -16.780       24.835       23.957       14.821      616.783      573.934      219.667        0.773        0.071      117.361        9.582        0.007      331.064       -1.162      860.155
01/31/2014  21:59:00     -139.773      -27.580      -15.685       28.602       29.718       17.846      818.083      883.154      318.463        1.128        0.101      142.468       11.279        0.006      331.050       -1.183      860.155
01/31/2014  22:00:00     -120.008      -14.667       -9.834       17.632       18.871       17.613      310.903      356.097      310.216        0.785        0.049      120.901       13.846        0.013      331.043       -1.197      860.155
01/31/2014  22:01:00     -120.944      -58.890      -14.833       25.883       25.092       14.803      669.918      629.608      219.138        0.992        0.076      134.519       13.114        0.010      331.027       -1.222      860.154
01/31/2014  22:02:00      -95.385      -42.886      -12.020       37.087       28.105       28.940     1375.470      789.882      837.551        0.704        0.150      104.582       21.974        0.044      331.057       -1.174      860.157
01/31/2014  22:03:00     -102.107      -27.082      -17.361       26.839       31.419       18.888      720.341      987.157      356.762        0.676        0.103      105.637       15.305        0.021      331.025       -1.226      860.160
01/31/2014  22:04:00     -114.819      -39.286      -15.425       22.186       28.489       16.164      492.232      811.617      261.268        0.826        0.078      121.354       10.079        0.007      331.023       -1.229      860.162
01/31/2014  22:05:00     -101.129      -14.174       -9.921       27.417       30.479       18.587      751.680      928.954      345.464        0.628        0.101      102.117       13.918        0.019      330.968       -1.320      860.170
01/31/2014  22:06:00      -85.498       -2.300       -8.548       33.132       31.318       16.512     1097.759      980.838      272.654        0.487        0.118       85.529       12.580        0.022      331.007       -1.257      860.174
01/31/2014  22:07:00     -101.814        7.036      -13.218       32.965       20.562       16.088     1086.707      422.789      258.837        0.618        0.088      102.057       14.326        0.020      330.981       -1.299      860.183
01/31/2014  22:08:00     -122.045       25.745      -14.550       26.337       16.409       15.140      693.623      269.244      229.208        0.848        0.060      124.731        9.540        0.006      330.979       -1.301      860.179
01/31/2014  22:09:00      -91.356       -4.942       -6.165       36.294       22.230       17.414     1317.288      494.158      303.246        0.526        0.106       91.490       19.195        0.044      331.014       -1.246      860.172
01/31/2014  22:10:00      -79.264      -12.491       -4.922       39.849       22.299       15.564     1587.942      497.254      242.234        0.439        0.116       80.242       20.469        0.065      330.971       -1.315      860.178
01/31/2014  22:11:00     -100.948       -2.494      -12.918       32.502       16.814       17.991     1056.374      282.696      323.666        0.601        0.083      100.979       17.067        0.029      330.943       -1.359      860.185
01/31/2014  22:12:00      -80.681      -30.530      -10.911       15.304       21.532       12.225      234.205      463.624      149.452        0.420        0.042       86.264        8.646        0.010      331.003       -1.263      860.181
01/31/2014  22:13:00      -57.680      -53.104        0.784       27.096       17.564       19.690      734.189      308.489      387.679        0.379        0.072       78.402       15.321        0.038      331.084       -1.129      860.175
01/31/2014  22:14:00      -83.706      -24.384       -7.433       20.044       17.564       20.254      401.770      308.491      410.221        0.439        0.056       87.185       11.837        0.018      331.025       -1.226      860.171
01/31/2014  22:15:00      -72.849      -33.364      -13.897       27.043       17.595       14.073      731.347      309.570      198.045        0.393        0.062       80.126        9.510        0.014      331.109       -1.089      860.171
01/31/2014  22:16:00      -84.491      -39.196      -17.655       14.111       18.355       13.211      199.123      336.890      174.519        0.485        0.036       93.140        8.969        0.009      331.026       -1.226      860.164
01/31/2014  22:17:00      -86.686      -27.703       -8.541       12.451       16.772        9.804      155.017      281.284       96.112        0.444        0.027       91.005        5.913        0.004      331.117       -1.075      860.154
01/31/2014  22:18:00     -101.781      -44.948      -13.029       11.112       14.108        9.338      123.487      199.033       87.201        0.648        0.020      111.264        5.711        0.003      331.031       -1.217      860.151
01/31/2014  22:19:00      -95.561      -45.047       -6.911       19.601       17.878       12.606      384.216      319.633      158.900        0.604        0.043      105.646        6.549        0.004      331.022       -1.231      860.156
01/31/2014  22:20:00     -102.196      -19.976       -7.584       20.204       19.875       13.098      408.213      395.013      171.560        0.594        0.049      104.130        8.059        0.006      330.978       -1.303      860.163
01/31/2014  22:21:00      -97.645      -18.806       -4.676       20.779       16.451       12.621      431.786      270.649      159.295        0.539        0.043       99.440        9.957        0.010      330.955       -1.341      860.163
01/31/2014  22:22:00      -88.209      -20.476       -2.157       29.136       21.735       17.226      848.896      472.413      296.734        0.491        0.081       90.555       16.505        0.033      330.904       -1.423      860.159
01/31/2014  22:23:00      -95.446      -22.242      -10.731       16.912       21.088       11.633      286.031      444.687      135.335        0.529        0.043       98.004        4.081        0.002      330.928       -1.386      860.151
01/31/2014  22:24:00      -91.712      -32.203       -3.081       32.464       18.358       14.983     1053.882      337.026      224.480        0.554        0.081       97.201       16.502        0.029      330.882       -1.460      860.150
01/31/2014  22:25:00      -87.885      -17.084       -4.436       32.325       23.062       17.639     1044.923      531.860      311.122        0.496        0.094       89.530       19.395        0.047      330.890       -1.447      860.150
01/31/2014  22:26:00      -89.695       -6.942       -7.453       32.225       23.778       19.969     1038.433      565.377      398.781        0.508        0.100       89.963       18.053        0.040      330.851       -1.513      860.154
01/31/2014  22:27:00      -54.663      -22.507       -0.525       36.280       26.644       16.933     1316.229      709.925      286.724        0.290        0.116       59.115       17.732        0.090      330.836       -1.537      860.155
01/31/2014  22:28:00      -19.256      -15.290        8.767       29.353       26.122       18.518      861.579      682.357      342.923        0.128        0.094       24.588       15.683        0.407      330.878       -1.468      860.155
01/31/2014  22:29:00      -75.689      -36.013       -4.250       32.721       27.141       16.336     1070.635      736.644      266.863        0.456        0.104       83.820       14.041        0.028      330.841       -1.529      860.154
01/31/2014  22:30:00      -78.962      -49.704       -3.456       24.314       26.926       13.928      591.179      725.035      193.979        0.511        0.076       93.303       11.049        0.014      330.922       -1.393      860.144
01/31/2014  22:31:00      -73.258      -18.057       -5.696       16.782       25.083       13.216      281.637      629.139      174.671        0.341        0.054       75.450        7.714        0.010      330.951       -1.347      860.142
01/31/2014  22:32:00      -64.691      -37.517       -0.754       28.189       25.558       16.570      794.611      653.213      274.569        0.366        0.086       74.783       10.213        0.019      331.000       -1.267      860.145
01/31/2014  22:33:00     -115.278      -68.594       -7.564       23.274       17.236       19.345      541.696      297.078      374.246        0.963        0.061      134.143       16.568        0.015      330.842       -1.526      860.153
01/31/2014  22:34:00     -143.725      -63.037      -12.831       23.747       23.259       16.995      563.916      540.962      288.818        1.309        0.070      156.941        8.018        0.003      330.836       -1.536      860.159
01/31/2014  22:35:00     -116.919      -42.566       -3.519       35.888       28.498       22.228     1287.949      812.112      494.098        0.904        0.130      124.427       22.847        0.034      330.784       -1.622      860.161
01/31/2014  22:36:00     -123.401      -34.083      -14.770       24.429       30.020       15.331      596.777      901.175      235.049        0.917        0.087      128.021       11.436        0.008      330.832       -1.542      860.167
01/31/2014  22:37:00     -135.260      -33.466      -14.147       21.342       19.745       16.383      455.466      389.877      268.415        1.036        0.056      139.339       10.762        0.006      330.893       -1.443      860.160
01/31/2014  22:38:00     -120.252      -22.850      -16.504       16.125       18.168       15.417      260.013      330.092      237.683        0.804        0.041      122.404        7.692        0.004      330.881       -1.460      860.146
01/31/2014  22:39:00      -96.061      -25.906       -4.743       24.823       15.545       14.846      616.175      241.638      220.408        0.550        0.054       99.493       13.696        0.019      330.919       -1.401      860.142
01/31/2014  22:40:00      -76.545      -25.269       -5.550       21.468       15.653       15.278      460.895      245.020      233.408        0.373        0.047       80.608       12.368        0.024      330.900       -1.431      860.136
01/31/2014  22:41:00      -97.527      -10.399      -10.378       16.418       17.550       12.543      269.562      308.001      157.326        0.523        0.037       98.079        7.493        0.006      330.891       -1.446      860.130
01/31/2014  22:42:00      -83.159        5.511      -16.624       26.232       19.154       15.619      688.119      366.862      243.965        0.426        0.065       83.341       11.883        0.020      330.778       -1.633      860.137
01/31/2014  22:43:00     -120.052       -2.617      -17.279       24.837       19.896       14.395      616.855      395.836      207.217        0.797        0.061      120.081        7.872        0.004      330.746       -1.684      860.141
01/31/2014  22:44:00     -101.843       -8.866      -11.160       38.761       27.517       20.961     1502.446      757.173      439.359        0.664        0.135      102.228       22.910        0.050      330.729       -1.713      860.143
01/31/2014  22:45:00     -111.898        9.072      -10.056       22.512       19.487       16.333      506.774      379.734      266.761        0.693        0.058      112.265        8.264        0.005      330.800       -1.595      860.154
01/31/2014  22:46:00     -104.198        3.882      -15.086       29.220       27.879       17.925      853.792      777.240      321.308        0.653        0.098      104.270       12.783        0.015      330.792       -1.609      860.161
01/31/2014  22:47:00      -74.405       -6.331       -2.435       23.981       29.980       14.018      575.091      898.827      196.518        0.363        0.084       74.674       12.103        0.026      330.765       -1.652      860.176
01/31/2014  22:48:00      -45.373       -4.305      -11.095       17.497       22.160       14.487      306.135      491.056      209.869        0.160        0.050       45.576       12.147        0.071      330.821       -1.560      860.189
01/31/2014  22:49:00      -47.062      -24.398      -14.078       20.002       17.545       16.572      400.092      307.844      274.635        0.200        0.049       53.011       11.633        0.048      330.871       -1.480      860.213
01/31/2014  22:50:00      -11.887      -30.046        2.472       17.759       16.377       12.688      315.370      268.216      160.987        0.090        0.037       32.312        6.308        0.038      330.970       -1.316      860.237
01/31/2014  22:51:00      -17.665       -2.985        3.088       11.506       11.783        7.244      132.388      138.838       52.474        0.033        0.016       17.916        4.942        0.076      330.812       -1.577      860.254
01/31/2014  22:52:00        0.464       15.450        9.591        5.884        7.169       10.527       34.620       51.399      110.821        0.026        0.010       15.457        3.798        0.060      330.859       -1.496      860.267
01/31/2014  22:53:00        3.695       17.309       17.422        8.221        8.419        8.268       67.591       70.880       68.352        0.041        0.010       17.699        5.948        0.113      330.863       -1.492      860.281
01/31/2014  22:54:00       -5.800        8.751       28.661        5.418        8.754        7.321       29.359       76.629       53.598        0.055        0.008       10.498        5.804        0.306      330.873       -1.475      860.296
01/31/2014  22:55:00       -2.521       17.205       30.361        8.682       11.514        5.959       75.377      132.569       35.509        0.073        0.012       17.389        5.423        0.097      330.826       -1.552      860.305
01/31/2014  22:56:00        6.623       23.192       24.896       11.694        9.906       10.647      136.747       98.137      113.369        0.077        0.017       24.119        7.179        0.089      330.785       -1.621      860.312
01/31/2014  22:57:00       -8.978       12.354       15.817        7.976        9.051        9.304       63.616       81.918       86.563        0.036        0.012       15.272        7.834        0.263      330.848       -1.515      860.321
01/31/2014  22:58:00      -20.059        2.110        9.660       11.594       15.121       13.207      134.424      228.645      174.438        0.052        0.027       20.170       13.485        0.447      330.854       -1.507      860.320
01/31/2014  22:59:00      -21.902       -0.123        3.516       14.975       10.226        9.813      224.253      104.576       96.301        0.046        0.021       21.903        9.968        0.207      330.820       -1.564      860.321
01/31/2014  23:00:00      -42.718       -6.446       -0.906       19.710       15.057       12.274      388.473      226.716      150.659        0.132        0.038       43.202       12.063        0.078      330.775       -1.637      860.319
01/31/2014  23:01:00      -73.713      -10.236       -6.734       16.543       11.558        7.592      273.684      133.579       57.638        0.302        0.023       74.421        2.147        0.001      330.787       -1.617      860.310
01/31/2014  23:02:00      -86.625      -14.649      -11.576       16.929       14.302       12.579      286.596      204.544      158.237        0.425        0.032       87.855       10.351        0.014      330.813       -1.574      860.304
01/31/2014  23:03:00     -117.416      -24.366      -11.126       21.658       13.863       12.381      469.067      192.184      153.289        0.766        0.041      119.918        7.958        0.004      330.732       -1.707      860.291
01/31/2014  23:04:00     -128.354      -34.156       -6.408       30.078       31.633       17.402      904.674     1000.626      302.828        0.994        0.110      132.821       15.765        0.014      330.689       -1.777      860.274
01/31/2014  23:05:00     -132.315      -41.957       -4.301       44.780       37.280       20.167     2005.209     1389.775      406.697        1.154        0.190      138.808       20.462        0.022      330.594       -1.932      860.263
01/31/2014  23:06:00     -122.423        0.329      -10.524       47.003       23.828       23.655     2209.282      567.768      559.576        0.922        0.167      122.423       24.275        0.039      330.473       -2.131      860.250
01/31/2014  23:07:00     -137.178       15.363      -15.736       43.950       28.695       20.478     1931.617      823.399      419.339        1.124        0.159      138.036       17.538        0.016      330.472       -2.134      860.239
01/31/2014  23:08:00     -130.496       10.131      -10.654       32.136       17.115       20.095     1032.751      292.908      403.792        0.949        0.086      130.889       19.142        0.021      330.535       -2.031      860.239
01/31/2014  23:09:00      -98.830       -3.126      -13.503       21.448       25.303       14.372      460.038      640.240      206.565        0.563        0.065       98.879        8.296        0.007      330.636       -1.865      860.246
01/31/2014  23:10:00      -82.023        7.695       -8.075       24.234       21.566       13.631      587.299      465.076      185.812        0.404        0.062       82.383       13.778        0.028      330.681       -1.791      860.258
01/31/2014  23:11:00      -96.837       29.203      -11.050       34.429       24.689       16.101     1185.352      609.556      259.236        0.620        0.103      101.145       19.147        0.036      330.699       -1.762      860.268
01/31/2014  23:12:00      -65.813       16.188       -0.103       43.433       17.044       22.750     1886.422      290.494      517.555        0.364        0.135       67.775       24.526        0.131      330.673       -1.803      860.277
01/31/2014  23:13:00      -56.466       -5.725       -0.872       30.073       24.305       15.866      904.384      590.712      251.745        0.248        0.087       56.755       11.079        0.038      330.710       -1.743      860.285
01/31/2014  23:14:00      -97.696        6.158      -10.308       31.272       23.625       17.387      977.969      558.128      302.298        0.576        0.092       97.890       13.778        0.020      330.656       -1.830      860.296
01/31/2014  23:15:00      -47.740        5.067       -3.738       28.516       12.490       16.316      813.156      156.011      266.201        0.178        0.062       48.009       10.554        0.048      330.591       -1.937      860.311
01/31/2014  23:16:00      -33.173        4.065       -6.321       10.632        8.333        8.533      113.047       69.446       72.808        0.071        0.013       33.421        5.440        0.026      330.701       -1.759      860.328
01/31/2014  23:17:00      -17.476        4.181       -0.909       17.438        7.339        9.083      304.083       53.868       82.495        0.038        0.022       17.969        8.154        0.206      330.652       -1.838      860.343
01/31/2014  23:18:00        3.702       26.031       -7.183       15.826       15.415       11.203      250.465      237.607      125.503        0.068        0.031       26.293       10.432        0.157      330.792       -1.606      860.357
01/31/2014  23:19:00       26.603       27.364        1.844       12.656       17.361       15.550      160.164      301.387      241.813        0.108        0.035       38.164       11.144        0.085      330.859       -1.498      860.363
01/31/2014  23:20:00       25.471       55.043      -10.714       12.597       13.646        7.909      158.697      186.219       62.547        0.210        0.020       60.651        5.825        0.009      330.802       -1.591      860.371
01/31/2014  23:21:00       53.374       29.336        7.926       14.985       11.568       10.696      224.536      133.817      114.398        0.212        0.024       60.904        6.582        0.012      330.678       -1.795      860.376
01/31/2014  23:22:00       57.862       46.814       27.367       21.478       18.150       11.787      461.318      329.431      138.923        0.361        0.046       74.428        5.975        0.006      330.796       -1.602      860.375
01/31/2014  23:23:00       19.320       32.972       42.960       24.683       22.263       10.167      609.272      495.619      103.370        0.226        0.060       38.215        8.103        0.045      330.802       -1.593      860.374
01/31/2014  23:24:00       10.054       35.829       50.324       18.845       20.437        9.435      355.138      417.677       89.013        0.239        0.043       37.213       10.824        0.085      330.885       -1.456      860.376
01/31/2014  23:25:00       10.862       36.315       44.745       16.589       21.787       19.917      275.188      474.675      396.681        0.229        0.057       37.904       17.377        0.210      330.884       -1.458      860.374
01/31/2014  23:26:00       18.760      -10.982       23.173       19.102       33.422       20.139      364.896     1116.997      405.587        0.145        0.094       21.738       23.304        1.149      330.877       -1.468      860.381
01/31/2014  23:27:00       41.588      -40.981        6.730       31.920       31.959       29.569     1018.912     1021.359      874.342        0.318        0.146       58.386       29.758        0.260      330.977       -1.305      860.383
01/31/2014  23:28:00       35.489      -13.351        5.930       27.275       28.155       19.837      743.935      792.693      393.511        0.170        0.097       37.918       20.931        0.305      331.003       -1.262      860.386
01/31/2014  23:29:00       -8.326      -50.727        1.903       39.923       35.576       25.333     1593.885     1265.631      641.769        0.307        0.175       51.406       14.863        0.084      331.075       -1.144      860.385
01/31/2014  23:30:00      -39.156        0.267       -1.012       15.986       16.254       12.060      255.557      264.184      145.434        0.110        0.033       39.157        7.777        0.039      330.859       -1.499      860.379
01/31/2014  23:31:00       -7.278      -10.296        7.048       34.701       13.636       14.156     1204.140      185.952      200.396        0.090        0.080       12.608       21.355        2.869      330.845       -1.521      860.374
01/31/2014  23:32:00       -0.604        6.525        6.652        3.917        6.183        7.721       15.344       38.233       59.621        0.010        0.006        6.553        2.612        0.159      330.788       -1.614      860.369
01/31/2014  23:33:00       -0.637       12.491       -6.080        9.366       10.477        6.232       87.719      109.772       38.833        0.021        0.012       12.507        5.352        0.183      330.832       -1.542      860.374
01/31/2014  23:34:00       -1.302        7.655        0.275        4.682        6.903        6.884       21.924       47.653       47.385        0.009        0.006        7.765        2.807        0.131      330.869       -1.481      860.375
01/31/2014  23:35:00        0.017       29.325        1.836        7.415        6.061        7.458       54.988       36.737       55.627        0.051        0.007       29.325        3.782        0.017      330.837       -1.533      860.373
01/31/2014  23:36:00        3.325       35.442       -0.128       11.968       13.859       10.718      143.238      192.084      114.883        0.086        0.023       35.597        6.118        0.030      330.576       -1.963      860.369
01/31/2014  23:37:00       10.117        6.521       -0.945        9.519        9.417        8.633       90.607       88.675       74.530        0.020        0.013       12.036        5.676        0.222      330.526       -2.043      860.364
01/31/2014  23:38:00        8.093        1.041        3.768        7.819        7.273        8.866       61.137       52.890       78.605        0.014        0.010        8.160        6.132        0.565      330.630       -1.873      860.358
01/31/2014  23:39:00        6.368       11.337        0.363        8.694        5.081        6.288       75.585       25.812       39.542        0.016        0.007       13.003        5.724        0.194      330.659       -1.826      860.355
01/31/2014  23:40:00       -4.298       10.185        5.704        5.855        6.924        5.601       34.284       47.940       31.371        0.013        0.006       11.055        3.586        0.105      330.740       -1.694      860.350
01/31/2014  23:41:00      -37.992       -6.097       -0.965       22.954       16.180        8.672      526.902      261.787       75.206        0.117        0.043       38.478        5.626        0.021      330.771       -1.643      860.354
01/31/2014  23:42:00      -64.217      -40.523        7.244       36.572       29.808       17.352     1337.528      888.542      301.101        0.417        0.126       75.933       14.440        0.036      330.699       -1.760      860.357
01/31/2014  23:43:00      -62.272      -51.417        2.878       37.488       29.209       24.255     1405.380      853.143      588.285        0.469        0.142       80.756       23.435        0.084      330.661       -1.822      860.356
01/31/2014  23:44:00      -93.192      -70.263       -3.958       43.757       37.375       19.999     1914.664     1396.900      399.956        0.867        0.186      116.711       15.068        0.017      330.652       -1.837      860.364
01/31/2014  23:45:00      -93.624      -73.384       -4.611       29.450       29.898       19.227      867.325      893.891      369.672        0.815        0.107      118.956       14.750        0.015      330.643       -1.852      860.362
01/31/2014  23:46:00     -106.344      -36.797       -4.353       28.164       17.074       16.385      793.217      291.510      268.484        0.702        0.068      112.530       11.553        0.011      330.623       -1.885      860.350
01/31/2014  23:47:00      -62.294      -41.995       -1.290       28.674       25.684       15.822      822.220      659.682      250.323        0.369        0.087       75.127        4.886        0.004      330.697       -1.765      860.351
01/31/2014  23:48:00      -48.707      -14.339        7.505       23.098       27.458       21.545      533.522      753.938      464.182        0.219        0.088       50.774       17.495        0.119      330.530       -2.038      860.361
01/31/2014  23:49:00      -73.993      -12.417       -7.572       30.666       25.582       17.785      940.412      654.417      316.294        0.380        0.096       75.028       15.564        0.043      330.370       -2.302      860.380
01/31/2014  23:50:00      -93.652       -3.929       -7.385       38.128       27.153       17.486     1453.723      737.283      305.754        0.567        0.125       93.735       14.439        0.024      330.297       -2.419      860.392
01/31/2014  23:51:00     -115.227      -27.297       -7.283       42.146       23.830       17.109     1776.279      567.846      292.715        0.836        0.132      118.416       18.404        0.024      330.367       -2.305      860.393
01/31/2014  23:52:00     -109.263      -33.084       -6.706       40.236       31.600       19.297     1618.920      998.565      372.392        0.803        0.149      114.162       20.927        0.034      330.352       -2.330      860.386
01/31/2014  23:53:00     -158.574      -21.505       -7.932       39.320       32.159       23.173     1546.052     1034.171      537.005        1.439        0.156      160.026       21.170        0.018      330.302       -2.413      860.384
01/31/2014  23:54:00     -168.926      -68.114      -20.709       35.336       35.624       18.227     1248.632     1269.054      332.225        1.823        0.142      182.141       14.255        0.006      330.308       -2.404      860.374
01/31/2014  23:55:00     -146.396      -66.518      -12.092       33.032       43.440       19.629     1091.126     1886.994      385.279        1.468        0.168      160.800       17.072        0.011      330.266       -2.471      860.374
01/31/2014  23:56:00     -153.259      -38.144      -18.683       33.639       38.992       23.300     1131.603     1520.402      542.872        1.424        0.160      157.934       16.464        0.011      330.231       -2.528      860.379
01/31/2014  23:57:00     -184.541      -69.428      -15.016       32.864       34.245       19.282     1080.016     1172.691      371.810        2.086        0.131      197.169       16.749        0.007      330.243       -2.509      860.379
01/31/2014  23:58:00     -140.501      -31.074       -2.197       54.329       39.586       24.983     2951.661     1567.043      624.127        1.293        0.257      143.896       25.007        0.030      330.154       -2.655      860.386
01/31/2014  23:59:00      -90.526      -38.497      -11.809       32.784       35.959       20.967     1074.808     1293.014      439.606        0.631        0.140       98.372       12.752        0.017      330.234       -2.525      860.386
